[[{"header":{"parameterUnit":"m.s-1","parameterCategory":1,"la1":31.0,"la2":29.5877,"lo1":-88.7671,"lo2":-86.6584,"dy":0.0162,"dx":0.0185,"nx":115,"ny":88,"refTime":"2024-06-19T12:00:00:Z","depth":0,"parameterNumber":2,"parameterNumberName":"U-component_of_WINDS"},"data":[0.0,0.0,0.0,0.0,0.0,0.0,0.0,0.0,0.0,0.0,0.0,0.0,0.0,0.0,0.0,0.0,0.0,0.0,0.0,0.0,0.0,0.0,0.0,0.0,0.0,0.0,0.0,0.0,0.0,0.0,0.0,0.0,0.0,0.0,0.0,0.0,0.0,0.0,0.0,0.0,0.0,0.0,0.0,0.0,0.0,0.0,0.0,0.0,0.0,0.0,0.0,0.0,0.0,0.0,0.0,0.0,0.0,0.0,0.0,0.0,0.0,0.0,0.0,0.0,0.0,0.0,0.0,0.0,0.0,0.0,0.0,0.0,0.0,0.0,0.0,0.0,0.0,0.0,0.0,0.0,0.0,0.0,0.0,0.0,0.0,0.0,0.0,0.0,0.0,0.0,0.0,0.0,0.0,0.0,0.0,0.0,0.0,0.0,0.0,0.0,0.0,0.0,0.0,0.0,0.0,0.0,0.0,0.0,0.0,0.0,0.0,0.0,0.0,0.0,0.0,0.0,0.0,0.0,0.0,0.0,0.0,0.0,0.0,0.0,0.0,0.0,0.0,0.0,0.0,0.0,0.0,0.0,0.0,0.0,0.0,0.0,0.0,0.0,0.0,0.0,0.0,0.0,0.0,0.0,0.0,0.0,0.0,0.0,0.0,0.0,0.0,0.0,0.0,0.0,0.0,0.0,0.0,0.0,0.0,0.0,0.0,0.0,0.0,0.0,0.0,0.0,0.0,0.0,0.0,0.0,0.0,0.0,0.0,0.0,0.0,0.0,0.0,0.0,0.0,0.0,0.0,0.0,0.0,0.0,0.0,0.0,0.0,0.0,0.0,0.0,0.0,0.0,0.0,0.0,0.0,0.0,0.0,0.0,0.0,0.0,0.0,0.0,0.0,0.0,0.0,0.0,0.0,0.0,0.0,0.0,0.0,0.0,0.0,0.0,0.0,0.0,0.0,0.0,0.0,0.0,0.0,0.0,0.0,0.0,0.0,0.0,0.0,0.0,0.0,0.0,0.0,0.0,0.0,0.0,0.0,0.0,0.0,0.0,0.0,0.0,0.0,0.0,0.0,0.0,0.0,0.0,0.0,0.0,0.0,0.0,0.0,0.0,0.0,0.0,0.0,0.0,0.0,0.0,0.0,0.0,0.0,0.0,0.0,0.0,0.0,0.0,0.0,0.0,0.0,0.0,0.0,0.0,0.0,0.0,0.0,0.0,0.0,0.0,0.0,0.0,0.0,0.0,0.0,0.0,0.0,0.0,0.0,0.0,0.0,0.0,0.0,0.0,0.0,0.0,0.0,0.0,0.0,0.0,0.0,0.0,0.0,0.0,0.0,0.0,0.0,0.0,0.0,0.0,0.0,0.0,0.0,0.0,0.0,0.0,0.0,0.0,0.0,0.0,0.0,0.0,0.0,0.0,0.0,0.0,0.0,0.0,0.0,0.0,0.0,0.0,0.0,0.0,0.0,0.0,0.0,0.0,0.0,0.0,0.0,0.0,0.0,0.0,0.0,0.0,0.0,0.0,0.0,0.0,0.0,0.0,0.0,0.0,0.0,0.0,0.0,0.0,0.0,0.0,0.0,0.0,0.0,0.0,0.0,0.0,0.0,0.0,0.0,0.0,0.0,0.0,0.0,0.0,0.0,0.0,0.0,0.0,0.0,0.0,0.0,0.0,0.0,0.0,0.0,0.0,0.0,0.0,0.0,0.0,0.0,0.0,0.0,0.0,0.0,0.0,0.0,0.0,0.0,0.0,0.0,0.0,0.0,0.0,0.0,0.0,0.0,0.0,0.0,0.0,0.0,0.0,0.0,0.0,0.0,0.0,0.0,0.0,0.0,0.0,0.0,0.0,0.0,0.0,0.0,0.0,0.0,0.0,0.0,0.0,0.0,0.0,0.0,0.0,0.0,0.0,0.0,0.0,0.0,0.0,0.0,0.0,0.0,0.0,0.0,0.0,0.0,0.0,0.0,0.0,0.0,0.0,0.0,0.0,0.0,0.0,0.0,0.0,0.0,0.0,0.0,0.0,0.0,0.0,0.0,0.0,0.0,0.0,0.0,0.0,0.0,0.0,0.0,0.0,0.0,0.0,0.0,0.0,0.0,0.0,0.0,0.0,0.0,0.0,0.0,0.0,0.0,0.0,0.0,0.0,0.0,0.0,0.0,0.0,0.0,0.0,0.0,0.0,0.0,0.0,0.0,0.0,0.0,0.0,0.0,0.0,0.0,0.0,0.0,0.0,0.0,0.0,0.0,0.0,0.0,0.0,0.0,0.0,0.0,0.0,0.0,0.0,0.0,0.0,0.0,0.0,0.0,0.0,0.0,0.0,0.0,0.0,0.0,0.0,0.0,0.0,0.0,0.0,0.0,0.0,0.0,0.0,0.0,0.0,0.0,0.0,0.0,0.0,0.0,0.0,0.0,0.0,0.0,0.0,0.0,0.0,0.0,0.0,0.0,0.0,0.0,0.0,0.0,0.0,0.0,0.0,0.0,0.0,0.0,0.0,0.0,0.0,0.0,0.0,0.0,0.0,0.0,0.0,0.0,0.0,0.0,0.0,0.0,0.0,0.0,0.0,0.0,0.0,0.0,0.0,0.0,0.0,0.0,0.0,0.0,0.0,0.0,0.0,0.0,0.0,0.0,0.0,0.0,0.0,0.0,0.0,0.0,0.0,0.0,0.0,0.0,0.0,0.0,0.0,0.0,0.0,0.0,0.0,0.0,0.0,0.0,0.0,0.0,0.0,0.0,0.0,0.0,0.0,0.0,0.0,0.0,0.0,0.0,0.0,0.0,0.0,0.0,0.0,0.0,0.0,0.0,0.0,0.0,0.0,0.0,0.0,0.0,0.0,0.0,0.0,0.0,0.0,0.0,0.0,0.0,0.0,0.0,0.0,0.0,0.0,0.0,0.0,0.0,0.0,0.0,0.0,0.0,0.0,0.0,0.0,0.0,0.0,0.0,0.0,0.0,0.0,0.0,0.0,0.0,0.0,0.0,0.0,0.0,0.0,0.0,0.0,0.0,0.0,0.0,0.0,0.0,0.0,0.0,0.0,0.0,0.0,0.0,0.0,0.0,0.0,0.0,0.0,0.0,0.0,0.0,0.0,0.0,0.0,0.0,0.0,0.0,0.0,0.0,0.0,0.0,0.0,0.0,0.0,0.0,0.0,0.0,0.0,0.0,0.0,0.0,0.0,0.0,0.0,0.0,0.0,0.0,0.0,0.0,0.0,0.0,0.0,0.0,0.0,0.0,0.0,0.0,0.0,0.0,0.0,0.0,0.0,0.0,0.0,0.0,0.0,0.0,0.0,0.0,0.0,0.0,0.0,0.0,0.0,0.0,0.0,0.0,0.0,0.0,0.0,0.0,0.0,0.0,0.0,0.0,0.0,0.0,0.0,0.0,0.0,0.0,0.0,0.0,0.0,0.0,0.0,0.0,0.0,0.0,0.0,0.0,0.0,0.0,0.0,0.0,0.0,0.0,0.0,0.0,0.0,0.0,0.0,0.0,0.0,0.0,0.0,0.0,0.0,0.0,0.0,0.0,0.0,0.0,0.0,0.0,0.0,0.0,0.0,0.0,0.0,0.0,0.0,0.0,0.0,0.0,0.0,0.0,0.0,0.0,0.0,0.0,0.0,0.0,0.0,0.0,0.0,0.0,0.0,0.0,0.0,0.0,0.0,0.0,0.0,0.0,0.0,0.0,0.0,0.0,0.0,0.0,0.0,0.0,0.0,0.0,0.0,0.0,0.0,0.0,0.0,0.0,0.0,0.0,0.0,0.0,0.0,0.0,0.0,0.0,0.0,0.0,0.0,0.0,0.0,0.0,0.0,0.0,0.0,0.0,0.0,0.0,0.0,0.0,0.0,0.0,0.0,0.0,0.0,0.0,0.0,0.0,0.0,0.0,0.0,0.0,0.0,0.0,0.0,0.0,0.0,0.0,0.0,0.0,0.0,0.0,0.0,0.0,0.0,0.0,0.0,0.0,0.0,0.0,0.0,0.0,0.0,0.0,0.0,0.0,0.0,0.0,0.0,0.0,0.0,0.0,0.0,0.0,0.0,0.0,0.0,0.0,0.0,0.0,0.0,0.0,0.0,0.0,0.0,0.0,0.0,0.0,0.0,0.0,0.0,0.0,0.0,0.0,0.0,0.0,0.0,0.0,0.0,0.0,0.0,0.0,0.0,0.0,0.0,0.0,0.0,0.0,0.0,0.0,0.0,0.0,0.0,0.0,0.0,0.0,0.0,0.0,0.0,0.0,0.0,0.7918,0.0,0.0,0.0,0.0,0.0,0.0,0.0,0.0,0.0,0.0,0.0,0.0,0.0,0.0,0.0,0.0,0.0,0.0,0.0,0.0,0.0,0.0,0.0,0.0,0.0,0.0,0.0,0.0,0.0,0.0,0.0,0.0,0.0,0.0,0.0,0.0,0.0,0.0,0.0,0.0,0.0,0.0,0.0,0.0,0.0,0.0,0.0,0.0,0.0,0.0,0.0,0.0,0.0,0.0,0.0,0.0,0.0,0.0,0.0,0.0,0.0,0.0,0.0,0.0,0.0,0.0,0.0,0.0,0.0,0.0,0.0,0.0,0.0,0.0,0.0,0.0,0.0,0.0,0.0,0.0,0.0,0.0,0.0,0.0,0.0,0.0,0.0,0.0,0.0,0.0,0.0,0.0,0.0,0.0,0.0,0.0,0.0,0.0,0.0,0.0,0.0,0.0,0.0,0.0,0.0,0.0,0.0,0.0,0.0,0.0,0.7906,0.7906,0.7906,0.7906,0.7921,0.0,0.0,0.0,0.0,0.0,0.0,0.0,0.0,0.0,0.0,0.0,0.0,0.0,0.0,0.0,0.0,0.0,0.0,0.0,0.0,0.0,0.0,0.0,0.0,0.0,0.0,0.0,0.0,0.0,0.0,0.0,0.0,0.0,0.0,0.0,0.0,0.0,0.0,0.0,0.0,0.0,0.0,0.0,0.0,0.0,0.0,0.0,0.0,0.0,0.0,0.0,0.0,0.0,0.0,0.0,0.0,0.0,0.0,0.0,0.0,0.0,0.0,0.0,0.0,0.0,0.0,0.0,0.0,0.0,0.0,0.0,0.0,0.0,0.0,0.0,0.0,0.0,0.0,0.0,0.0,0.0,0.0,0.0,0.0,0.0,0.0,0.0,0.0,0.0,0.0,0.0,0.0,0.0,0.0,0.0,0.0,0.0,0.0,0.0,0.0,0.0,0.0,0.0,0.0,0.0,0.0,0.0,0.0,0.0,0.0,0.0,0.0,0.8345,0.8495,0.8787,0.0,0.0,0.0,0.0,0.0,0.0,0.0,0.0,0.0,0.0,0.0,0.0,0.0,0.0,0.0,0.0,0.0,0.0,0.0,0.0,0.0,0.0,0.0,0.0,0.0,0.0,0.0,0.0,0.0,0.0,0.0,0.0,0.0,0.0,0.0,0.0,0.0,0.0,0.0,0.0,0.0,0.0,0.0,0.0,0.0,0.0,0.0,0.0,0.0,0.0,0.0,0.0,0.0,0.0,0.0,0.0,0.0,0.0,0.0,0.0,0.0,0.0,0.0,0.0,0.0,0.0,0.0,0.0,0.0,0.0,0.0,0.0,0.0,0.0,0.0,0.0,0.0,0.0,0.0,0.0,0.0,0.0,0.0,0.0,0.0,0.0,0.0,0.0,0.0,0.0,0.0,0.0,0.0,0.0,0.0,0.0,0.0,0.0,0.0,0.0,0.0,0.0,0.0,0.0,0.0,0.0,0.0,0.0,0.0,0.0,0.848,0.9685,0.97,0.0,1.1361,0.0,0.0,0.0,0.0,0.0,0.0,0.0,0.0,0.0,0.0,0.0,0.0,0.0,0.0,0.0,0.0,0.0,0.0,0.0,0.0,0.0,0.0,0.0,0.0,0.0,0.0,0.0,0.0,0.0,0.0,0.0,0.0,0.0,0.0,0.0,0.0,0.0,0.0,0.0,0.0,0.0,0.0,0.0,0.0,0.0,0.0,0.0,0.0,0.0,0.0,0.0,0.0,0.0,0.0,0.0,0.0,0.0,0.0,0.0,0.0,0.0,0.0,0.0,0.0,0.0,0.0,0.0,0.0,0.0,0.0,0.0,0.0,0.0,0.0,0.0,0.0,0.0,0.0,0.0,0.0,0.0,0.0,0.0,0.0,0.0,0.0,0.0,0.0,0.0,0.0,0.0,0.0,0.0,0.0,0.0,0.0,0.0,0.0,0.0,0.0,0.0,0.0,0.0,0.0,0.0,0.0,0.0,0.0,0.0,0.0,0.934,0.989,0.989,1.0319,0.0,0.0,0.0,0.0,0.0,0.0,0.0,0.0,0.0,0.0,0.0,0.0,0.0,0.0,0.0,0.0,0.0,0.0,0.0,0.0,0.0,0.0,0.0,0.0,0.0,0.0,0.0,0.0,0.0,0.0,0.0,0.0,0.0,0.0,0.0,0.0,0.0,0.0,0.0,0.0,0.0,0.0,0.0,0.0,0.0,0.0,0.0,0.0,0.0,0.0,0.0,0.0,0.0,0.0,0.0,0.0,0.0,0.0,0.0,0.0,0.0,0.0,0.0,0.0,0.0,0.0,0.0,0.0,0.0,0.0,0.0,0.0,0.0,0.0,0.0,0.0,0.0,0.0,0.0,0.0,0.0,0.0,0.0,0.0,0.0,0.0,0.0,0.0,0.0,0.0,0.0,0.0,0.0,0.0,0.0,0.0,0.0,0.0,0.0,0.0,0.0,0.0,0.0,0.0,0.0,0.0,0.0,0.0,0.0,0.0,0.9584,1.0078,1.0403,1.0418,1.0548,1.0802,0.0,0.0,0.0,0.0,0.0,0.0,0.0,0.0,0.0,0.0,0.0,0.0,0.0,0.0,0.0,0.0,0.0,0.0,0.0,0.0,0.0,0.0,0.0,0.0,0.0,0.0,0.0,0.0,0.0,0.0,0.0,0.0,0.0,0.0,0.0,0.0,0.0,0.0,0.0,0.0,0.0,0.0,0.0,0.0,0.0,0.0,0.0,0.0,0.0,0.0,0.0,0.0,0.0,0.0,0.0,0.0,0.0,0.0,0.0,0.0,0.0,0.0,0.0,0.0,0.0,0.0,0.0,0.0,0.0,0.0,0.0,0.0,0.0,0.0,0.0,0.0,0.0,0.0,0.0,0.0,0.0,0.0,0.0,0.0,0.0,0.0,0.0,0.0,0.0,0.0,0.0,0.0,0.0,0.0,0.0,0.0,0.0,0.0,0.0,0.0,0.0,0.0,0.0,0.0,0.0,0.0,0.0,0.0,0.0,1.0478,1.0483,1.1676,1.172,1.1435,0.0,0.0,0.0,0.0,0.0,0.0,0.0,0.0,0.0,0.0,0.0,0.0,0.0,0.0,0.0,0.0,0.0,0.0,0.0,0.0,0.0,0.0,0.0,0.0,0.0,0.0,0.0,0.0,0.0,0.0,0.0,0.0,0.0,0.0,0.0,0.0,0.0,0.0,0.0,0.0,0.0,0.0,0.0,0.0,0.0,0.0,0.0,0.0,0.0,0.0,0.0,0.0,0.0,0.0,0.0,0.0,0.0,0.0,0.0,0.0,0.0,0.0,0.0,0.0,0.0,0.0,0.0,0.0,0.0,0.0,0.0,0.0,0.0,0.0,0.0,0.0,0.0,0.0,0.0,0.0,0.0,0.0,0.0,0.0,0.0,0.0,0.0,0.0,0.0,0.0,0.0,0.0,0.0,0.0,0.0,0.0,0.0,0.0,0.0,0.0,0.0,0.0,0.0,0.0,0.0,0.0,0.0,0.0,0.0,0.9266,0.9685,1.0927,1.2921,1.147,1.0847,0.0,0.0,0.0,0.0,0.0,0.0,0.0,0.0,0.0,0.0,0.0,0.0,0.0,0.0,0.0,0.0,0.0,0.0,0.0,0.0,0.0,0.0,0.0,0.0,0.0,0.0,0.0,0.0,0.0,0.0,0.0,0.0,0.0,0.0,0.0,0.0,0.0,0.0,0.0,0.0,0.0,0.0,0.0,0.0,0.0,0.0,0.0,0.0,0.0,0.0,0.0,0.0,0.0,0.0,0.0,0.0,0.0,0.0,0.0,0.0,0.0,0.0,0.0,0.0,0.0,0.0,0.0,0.0,0.0,0.0,0.0,0.0,0.0,0.0,0.0,0.0,0.0,0.0,0.0,0.0,0.0,0.0,0.0,0.0,0.0,0.0,0.0,0.0,0.0,0.0,0.0,0.0,0.0,0.0,0.0,0.0,0.0,0.0,0.0,0.0,0.0,0.0,0.0,0.0,0.0,0.0,0.0,0.0,0.0,0.9165,0.0,1.1814,0.0,1.1446,1.0523,0.0,0.0,0.0,0.0,0.0,0.0,0.0,0.0,0.0,0.0,0.0,0.0,0.0,0.0,0.0,0.0,0.0,0.0,0.0,0.0,0.0,0.0,0.0,0.0,0.0,0.0,0.0,0.0,0.0,0.0,0.0,0.0,0.0,0.0,0.0,0.0,0.0,0.0,0.0,0.0,0.0,0.0,0.0,0.0,0.0,0.0,0.0,0.0,0.0,0.0,0.0,0.0,0.0,0.0,0.0,0.0,0.0,0.0,0.0,0.0,0.0,0.0,0.0,0.0,0.0,0.0,0.0,0.0,0.0,0.0,0.0,0.0,0.0,0.0,0.0,0.0,0.0,0.0,0.0,0.0,0.0,0.0,0.0,0.0,0.0,0.0,0.0,0.0,0.0,0.0,0.0,0.0,0.0,0.0,0.0,0.0,0.0,0.0,0.0,0.0,0.0,0.0,0.0,0.0,0.0,0.0,0.0,0.0,0.9229,1.1661,1.2996,1.3086,1.1904,1.179,1.0583,0.0,0.0,0.0,0.0,0.0,0.0,0.0,0.0,0.0,0.0,0.0,0.0,0.0,0.0,0.0,0.0,0.0,0.0,0.0,0.0,0.0,0.0,0.0,0.0,0.0,0.0,0.0,0.0,0.0,0.0,0.0,0.0,0.0,0.0,0.0,0.0,0.0,0.0,0.0,0.0,0.0,0.0,0.0,0.0,0.0,0.0,0.0,0.0,0.0,0.0,0.0,0.0,0.0,0.0,0.0,0.0,0.0,0.0,0.0,0.0,0.0,0.0,0.0,0.0,0.0,0.0,0.0,0.0,0.0,0.0,0.0,0.0,0.0,0.0,0.0,0.0,0.0,0.0,0.0,0.0,0.0,0.0,0.0,0.0,0.0,0.0,0.0,0.0,0.0,0.0,0.0,0.0,0.0,0.0,0.0,0.0,0.0,0.0,0.0,0.0,0.0,0.0,0.0,0.0,0.0,0.0,0.0,0.0,0.0,1.1161,1.2424,1.3352,1.3771,1.2069,1.1381,0.0,0.0,0.0,0.0,0.0,0.0,0.0,0.0,0.0,0.0,0.0,0.0,0.0,0.0,0.0,0.0,0.0,0.0,0.0,0.0,0.0,0.0,0.0,0.0,0.0,0.0,0.0,0.0,0.0,0.0,0.0,0.0,0.0,0.0,0.0,0.0,0.0,0.0,0.0,0.0,0.0,0.0,0.0,0.0,0.0,0.0,0.0,0.0,0.0,0.0,0.0,0.0,0.0,0.0,0.0,0.0,0.0,0.0,0.0,0.0,0.0,0.0,0.0,0.0,0.0,0.0,0.0,0.0,0.0,0.0,0.0,0.0,0.0,0.0,0.0,0.0,0.0,0.0,0.0,0.0,0.0,0.0,0.0,0.0,0.0,0.0,0.0,0.0,0.0,0.0,0.0,0.0,0.0,0.0,0.0,0.0,0.0,0.0,0.0,0.0,0.0,0.0,0.0,0.0,0.0,0.0,0.0,0.0,0.0,1.2762,1.4198,1.5065,1.5155,1.3307,1.2392,1.2622,0.0,0.0,0.0,0.0,0.0,0.0,0.0,0.0,0.0,0.0,0.0,0.0,0.0,0.0,0.0,0.0,0.0,0.0,0.0,0.0,0.0,0.0,0.0,0.0,0.0,0.0,0.0,0.0,0.0,0.0,0.0,0.0,0.0,0.0,0.0,0.0,0.0,0.0,0.0,0.0,0.0,0.0,0.0,0.0,0.0,0.0,0.0,0.0,0.0,0.0,0.0,0.0,0.0,0.0,0.0,0.0,0.0,0.0,0.0,0.0,0.0,0.0,0.0,0.0,0.0,0.0,0.0,0.0,0.0,0.0,0.0,0.0,0.0,0.0,0.0,0.0,0.0,0.0,0.0,0.0,0.0,0.0,0.0,0.0,0.0,0.0,0.0,0.0,0.0,0.0,0.0,0.0,0.0,0.0,0.0,0.0,0.0,0.0,0.0,0.0,0.0,0.0,0.0,0.0,0.0,0.0,0.0,0.0,1.5963,1.7922,1.7966,1.6025,1.5228,1.367,0.0,0.0,0.0,0.0,0.0,0.0,0.0,0.0,0.0,0.0,0.0,0.0,0.0,0.0,0.0,0.0,0.0,0.0,0.0,0.0,0.0,0.0,0.0,0.0,0.0,0.0,0.0,0.0,0.0,0.0,0.0,0.0,0.0,0.0,0.0,0.0,0.0,0.0,0.0,0.0,0.0,0.0,0.0,0.0,0.0,0.0,0.0,0.0,0.0,0.0,0.0,0.0,0.0,0.0,0.0,0.0,0.0,0.0,0.0,0.0,0.0,0.0,0.0,0.0,0.0,0.0,0.0,0.0,0.0,0.0,0.0,0.0,0.0,0.0,0.0,0.0,0.0,0.0,0.0,0.0,0.0,0.0,0.0,0.0,0.0,0.0,0.0,0.0,0.0,0.0,0.0,0.0,0.0,0.0,0.0,0.0,0.0,0.0,0.0,0.0,0.0,0.0,0.0,0.0,0.0,0.0,0.0,0.0,0.0,1.8245,2.0473,2.049,1.8084,1.6411,1.521,0.0,0.0,0.0,0.0,0.0,0.0,0.0,0.0,0.0,0.0,0.0,0.0,0.0,0.0,0.0,0.0,0.0,0.0,0.0,0.0,0.0,0.0,0.0,0.0,0.0,0.0,0.0,0.0,0.0,0.0,0.0,0.0,0.0,0.0,0.0,0.0,0.0,0.0,0.0,0.0,0.0,0.0,0.0,0.0,0.0,0.0,0.0,0.0,0.0,0.0,0.0,0.0,0.0,0.0,0.0,0.0,0.0,0.0,0.0,0.0,0.0,0.0,0.0,0.0,0.0,0.0,0.0,0.0,0.0,0.0,0.0,0.0,0.0,0.0,0.0,0.0,0.0,0.0,0.0,0.0,0.0,0.0,0.0,0.0,0.0,0.0,0.0,0.0,0.0,0.0,0.0,0.0,0.0,0.0,0.0,0.0,0.0,0.0,0.0,0.0,0.0,0.0,0.0,0.0,0.0,0.0,0.0,0.0,1.736,1.8617,2.0483,2.0756,1.9234,1.7864,1.6613,0.0,0.0,0.0,0.0,0.0,0.0,0.0,0.0,0.0,0.0,0.0,0.0,0.0,0.0,0.0,0.0,0.0,0.0,0.0,0.0,0.0,0.0,0.0,0.0,0.0,0.0,0.0,0.0,0.0,0.0,0.0,0.0,0.0,0.0,0.0,0.0,0.0,0.0,0.0,0.0,0.0,0.0,0.0,0.0,0.0,0.0,0.0,0.0,0.0,0.0,0.0,0.0,0.0,0.0,0.0,0.0,0.0,0.0,0.0,0.0,0.0,0.0,0.0,0.0,0.0,0.0,0.0,0.0,0.0,0.0,0.0,0.0,0.0,0.0,0.0,0.0,0.0,0.0,0.0,0.0,0.0,0.0,0.0,0.0,0.0,0.0,0.0,0.0,0.0,0.0,0.0,0.0,0.0,0.0,0.0,0.0,0.0,0.0,0.0,0.0,0.0,0.0,0.0,0.0,0.0,0.0,0.0,0.0,1.7307,1.8127,1.9349,1.9978,1.9889,1.9197,1.7707,0.0,0.0,0.0,0.0,0.0,0.0,0.0,0.0,0.0,0.0,0.0,0.0,0.0,0.0,0.0,0.0,0.0,0.0,0.0,0.0,0.0,0.0,0.0,0.0,0.0,0.0,0.0,0.0,0.0,0.0,0.0,0.0,0.0,0.0,0.0,0.0,0.0,0.0,0.0,0.0,0.0,0.0,0.0,0.0,0.0,0.0,0.0,0.0,0.0,0.0,0.0,0.0,0.0,0.0,0.0,0.0,0.0,0.0,0.0,0.0,0.0,0.0,0.0,0.0,0.0,0.0,0.0,0.0,0.0,0.0,0.0,0.0,0.0,0.0,0.0,0.0,0.0,0.0,0.0,0.0,0.0,0.0,0.0,0.0,0.0,0.0,0.0,0.0,0.0,0.0,0.0,0.0,0.0,0.0,0.0,0.0,0.0,0.0,0.0,0.0,0.0,0.0,0.0,0.0,0.0,0.0,0.0,0.0,1.8101,1.8865,2.0451,2.1062,2.0597,1.9046,1.7511,0.0,0.0,0.0,0.0,0.0,0.0,0.0,0.0,0.0,0.0,0.0,0.0,0.0,0.0,0.0,0.0,0.0,0.0,0.0,0.0,0.0,0.0,0.0,0.0,0.0,0.0,0.0,0.0,0.0,0.0,0.0,0.0,0.0,0.0,0.0,0.0,0.0,0.0,0.0,0.0,0.0,0.0,0.0,0.0,0.0,0.0,0.0,0.0,1.2055,0.0,0.0,0.0,0.0,0.0,0.0,0.0,0.0,0.0,0.0,0.0,0.0,0.0,0.0,0.0,0.0,0.0,0.0,0.0,0.0,0.0,0.0,0.0,0.0,0.0,0.0,0.0,0.0,0.0,0.0,0.0,0.0,0.0,0.0,0.0,0.0,0.0,0.0,0.0,0.0,0.0,0.0,0.0,0.0,0.0,0.0,0.0,0.0,0.0,0.0,0.0,0.0,0.0,0.0,0.0,0.0,0.0,0.0,0.0,1.8334,1.9066,2.0198,2.0658,2.0295,1.9116,1.7792,0.0,0.0,0.0,0.0,0.0,0.0,0.0,0.0,0.0,0.0,0.0,0.0,0.0,0.0,0.0,0.0,0.0,0.0,0.0,0.0,0.0,0.0,0.0,0.0,0.0,0.0,0.0,0.0,0.0,0.0,0.0,0.0,0.0,0.0,0.0,0.0,0.0,0.0,0.0,0.0,0.0,0.0,0.0,0.0,0.0,0.0,0.0,0.0,0.0,0.0,0.0,0.0,0.0,0.0,0.0,0.0,0.0,0.0,0.0,0.0,0.0,0.0,0.0,0.0,0.0,0.0,0.0,0.0,0.0,0.0,0.0,0.0,0.0,0.0,0.0,0.0,0.0,0.0,0.0,0.0,0.0,0.0,0.0,0.0,0.0,0.0,0.0,0.0,0.0,0.0,0.0,0.0,0.0,0.0,0.0,0.0,0.0,0.0,0.0,0.0,0.0,0.0,0.0,0.0,0.0,0.0,0.0,1.6904,1.8208,1.9083,1.956,1.9811,1.9798,1.9284,1.8218,1.6549,0.0,0.0,0.0,0.0,0.0,0.0,0.0,0.0,0.0,0.0,0.0,0.0,0.0,0.0,0.0,0.0,0.0,0.0,0.0,0.0,0.0,0.0,0.0,0.0,0.0,0.0,0.0,0.0,0.0,0.0,0.0,0.0,0.0,0.0,0.0,0.0,0.0,0.0,1.0795,1.2125,0.0,0.0,0.0,0.0,0.0,0.0,0.0,0.0,1.2408,0.0,0.0,0.0,0.0,0.0,0.0,0.0,0.0,0.0,0.0,0.0,0.0,0.0,0.0,0.0,0.0,0.0,0.0,0.0,0.0,0.0,0.0,0.0,0.0,0.0,0.0,0.0,0.0,0.0,0.0,0.0,0.0,0.0,0.0,0.0,0.0,0.0,0.0,0.0,0.0,0.0,0.0,0.0,0.0,0.0,0.0,0.0,0.0,0.0,0.0,0.0,0.0,0.0,0.0,0.0,0.0,1.6198,1.6589,1.7684,1.961,1.9761,1.9811,1.9786,1.9271,1.8218,1.6561,0.0,0.0,0.0,0.0,0.0,0.0,0.0,0.0,0.0,0.0,0.0,0.0,0.0,0.0,0.0,0.0,0.0,0.0,0.0,0.0,0.0,0.0,0.0,0.0,0.0,0.0,0.0,0.0,0.0,0.0,0.0,0.0,0.0,0.0,0.0,0.0,0.0,0.0,0.0,1.2181,1.2715,0.0,0.0,0.0,0.0,0.0,0.0,0.0,0.0,1.1697,0.0,0.0,0.0,0.0,0.0,0.0,0.0,0.0,0.0,0.0,0.0,0.0,0.0,0.0,0.0,0.0,0.0,0.0,0.0,0.0,0.0,0.0,0.0,0.0,0.0,0.0,0.0,0.0,0.0,0.0,0.0,0.0,0.0,0.0,0.0,0.0,0.0,0.0,0.0,0.0,0.0,0.0,0.0,0.0,0.0,0.0,0.0,0.0,0.0,0.0,0.0,0.0,0.0,0.0,0.0,1.6235,1.7303,1.8581,2.0188,1.9949,1.9949,2.0238,1.9183,1.7929,0.0,0.0,0.0,0.0,0.0,0.0,0.0,0.0,0.0,0.0,0.0,0.0,0.0,0.0,0.0,0.0,0.0,0.0,0.0,0.0,0.0,0.0,0.0,0.0,0.0,0.0,0.0,0.0,0.0,0.0,0.0,0.0,0.0,0.0,0.0,0.0,0.0,0.0,0.0,0.0,1.2807,1.3238,1.3965,0.0,0.0,0.0,0.0,0.0,0.0,1.3338,1.2734,0.0,0.0,0.0,0.0,0.0,0.0,0.0,0.0,0.0,0.0,0.0,0.0,0.0,0.0,0.0,0.0,0.0,0.0,0.0,0.0,0.0,0.0,0.0,0.0,0.0,0.0,0.0,0.0,0.0,0.0,0.0,0.0,0.0,0.0,0.0,0.0,0.0,0.0,0.0,0.0,0.0,0.0,0.0,0.0,0.0,0.0,0.0,0.0,0.0,0.0,0.0,0.0,0.0,0.0,0.0,1.6082,1.7801,1.9334,2.0617,2.0113,2.0088,2.0641,1.9095,1.7602,0.0,0.0,0.0,0.0,0.0,0.0,0.0,0.0,0.0,0.0,0.0,0.0,0.0,0.0,0.0,0.0,0.0,0.0,0.0,0.0,0.0,0.0,0.0,0.0,0.0,0.0,0.0,0.0,0.0,0.0,0.0,0.0,0.0,0.0,0.0,0.0,0.0,0.0,0.0,0.0,0.0,1.4002,1.4484,1.421,0.0,0.0,0.0,0.0,1.4566,1.4385,0.0,0.0,0.0,0.0,0.0,0.0,0.0,0.0,0.0,0.0,0.0,0.0,0.0,0.0,0.0,0.0,0.0,0.0,0.0,0.0,0.0,0.0,0.0,0.0,0.0,0.0,0.0,0.0,0.0,0.0,0.0,0.0,0.0,0.0,0.0,0.0,0.0,0.0,0.0,0.0,0.0,0.0,0.0,0.0,0.0,0.0,0.0,0.0,0.0,0.0,0.0,0.0,0.0,0.0,0.0,0.0,1.5679,1.6969,1.8617,2.0554,2.01,2.0088,2.0667,1.907,1.7438,0.0,0.0,0.0,0.0,0.0,0.0,0.0,0.0,0.0,0.0,0.0,0.0,0.0,0.0,0.0,0.0,0.0,0.0,0.0,0.0,0.0,0.0,0.0,0.0,0.0,0.0,0.0,0.0,0.0,0.0,0.0,0.0,0.0,0.0,0.0,0.0,0.0,0.0,0.0,0.0,0.0,1.4681,1.5658,1.5004,1.4423,0.0,0.0,1.5251,1.4401,1.5189,0.0,0.0,0.0,0.0,0.0,0.0,0.0,0.0,0.0,0.0,0.0,0.0,0.0,0.0,0.0,0.0,0.0,0.0,0.0,0.0,0.0,0.0,0.0,0.0,0.0,0.0,0.0,0.0,0.0,0.0,0.0,0.0,0.0,0.0,0.0,0.0,0.0,0.0,0.0,0.0,0.0,0.0,0.0,0.0,0.0,0.0,0.0,0.0,0.0,0.0,0.0,0.0,0.0,0.0,0.0,1.4132,1.6132,1.7889,1.9547,2.1042,2.0276,2.0238,2.1131,1.8944,1.711,0.0,0.0,0.0,0.0,0.0,0.0,0.0,0.0,0.0,0.0,0.0,0.0,0.0,0.0,0.0,0.0,0.0,0.0,0.0,0.0,0.0,0.0,0.0,0.0,0.0,0.0,0.0,0.0,0.0,0.0,0.0,0.0,0.0,0.0,0.0,0.0,0.0,0.0,0.0,0.0,0.0,0.0,1.5479,1.5307,0.0,0.0,0.0,1.5695,1.559,0.0,0.0,0.0,0.0,0.0,0.0,0.0,0.0,0.0,0.0,0.0,0.0,0.0,0.0,0.0,0.0,0.0,0.0,0.0,0.0,0.0,0.0,0.0,0.0,0.0,0.0,0.0,0.0,0.0,0.0,0.0,0.0,0.0,0.0,0.0,0.0,0.0,0.0,0.0,0.0,0.0,0.0,0.0,0.0,0.0,0.0,0.0,0.0,0.0,0.0,0.0,0.0,0.0,0.0,0.0,0.0,0.0,1.6498,1.8669,2.0338,2.1419,2.0402,2.0338,2.1407,1.9095,0.0,0.0,0.0,0.0,0.0,0.0,0.0,0.0,0.0,0.0,0.0,0.0,0.0,0.0,0.0,0.0,0.0,0.0,0.0,0.0,0.0,0.0,0.0,0.0,0.0,0.0,0.0,0.7164,0.0,0.0,0.0,0.0,0.0,0.0,0.0,0.0,0.0,0.0,0.0,0.0,0.0,0.0,1.5819,1.5327,1.5617,1.5856,0.0,0.0,1.6092,1.6269,1.6075,1.5777,0.0,0.0,0.0,0.0,0.0,0.0,0.0,0.0,0.0,0.0,0.0,0.0,0.0,0.0,0.0,0.0,0.0,0.0,0.0,0.0,0.0,0.0,0.0,0.0,0.0,0.0,0.0,0.0,0.0,0.0,0.0,0.0,0.0,0.0,0.0,0.0,0.0,0.0,0.0,0.0,0.0,0.0,0.0,0.0,0.0,0.0,0.0,0.0,0.0,0.0,0.0,0.0,0.0,0.0,1.4902,1.65,1.8669,2.0376,2.1419,2.0388,2.0338,2.1432,1.9798,1.7653,0.0,0.0,0.0,0.0,0.0,0.0,0.0,0.0,0.0,0.0,0.0,0.0,0.0,0.0,0.0,0.0,0.0,0.0,0.0,0.0,0.0,0.0,0.0,0.0,0.0,0.0,0.0,0.0,0.0,0.0,0.0,0.0,0.0,0.0,0.0,0.0,0.0,0.0,0.0,0.0,0.0,1.6322,1.5736,1.6057,1.6278,0.0,1.6566,1.6601,1.5639,1.6498,1.6455,1.4064,0.0,0.0,0.0,0.0,0.0,0.0,0.0,0.0,0.0,0.0,0.0,0.0,0.0,0.0,0.0,0.0,0.0,0.0,0.0,0.0,0.0,0.0,0.0,0.0,0.0,0.0,0.0,0.0,0.0,0.0,0.0,0.0,0.0,0.0,0.0,0.0,0.0,0.0,0.0,0.0,0.0,0.0,0.0,0.0,0.0,0.0,0.0,0.0,0.0,0.0,0.0,0.0,0.0,1.4896,1.6498,1.9045,2.0716,2.1432,2.0741,2.0728,2.1468,1.9873,1.7738,0.0,0.0,0.0,0.0,0.0,0.0,0.0,0.0,0.0,0.0,0.0,0.0,0.0,0.0,0.0,0.0,0.0,0.0,0.0,0.0,0.0,0.0,0.0,0.0,0.0,0.0,0.0,0.0,1.0865,1.1161,1.1254,0.0,0.0,0.0,0.0,0.0,0.0,0.0,0.0,0.0,0.0,1.6469,1.6493,1.6541,0.0,0.0,1.6651,1.6679,1.6265,1.6431,1.6071,1.4539,1.3861,0.0,0.0,0.0,0.0,0.0,0.0,0.0,0.0,0.0,0.0,0.0,0.0,0.0,0.0,0.0,0.0,0.0,0.0,0.0,0.0,0.0,0.0,0.0,0.0,0.0,0.0,0.0,0.0,0.0,0.0,0.0,0.0,0.0,0.0,0.0,0.0,0.0,0.0,0.0,0.0,0.0,0.0,0.0,0.0,0.0,0.0,0.0,0.0,0.0,0.0,0.0,0.0,1.4981,1.676,1.9384,2.1043,2.1721,2.1218,2.1131,2.1457,2.0213,1.8323,0.0,0.0,0.0,0.0,0.0,0.0,0.0,0.0,0.0,0.0,0.0,0.0,0.0,0.0,0.0,0.0,0.0,0.0,0.0,0.0,0.0,0.0,0.0,0.0,0.0,0.0,0.0,0.0,1.1856,1.1968,1.1476,0.0,0.0,0.0,0.0,0.0,0.0,0.0,0.0,0.0,0.0,1.6739,1.6732,1.6714,1.6746,1.6888,1.6683,1.6562,1.669,1.6465,1.5989,1.5111,0.0,0.0,0.0,0.0,0.0,0.0,0.0,0.0,0.0,0.0,0.0,0.0,0.0,0.0,0.0,0.0,0.0,0.0,0.0,0.0,0.0,0.0,0.0,0.0,0.0,0.0,0.0,0.9851,0.0,0.0,0.9825,0.0,0.0,0.0,0.0,0.0,0.0,0.0,0.0,0.0,0.0,0.0,0.0,0.0,0.0,0.0,0.0,0.0,0.0,0.0,0.0,0.0,0.0,1.5193,1.7361,1.9572,2.1232,2.2221,2.1757,2.1482,2.1495,2.0955,1.9598,1.7365,0.0,0.0,0.0,0.0,0.0,0.0,0.0,0.0,0.0,0.0,0.0,0.0,0.0,0.0,0.0,0.0,0.0,0.0,0.0,0.0,0.0,0.0,0.0,0.0,0.0,0.0,0.934,1.066,1.1459,0.0,0.0,0.0,0.0,0.0,0.0,0.0,0.0,0.0,1.4351,1.6148,1.7206,1.6285,1.6471,1.6888,1.7331,1.6701,1.6278,1.6665,1.6699,1.6391,0.0,0.0,0.0,0.0,0.0,0.0,0.0,0.0,0.0,0.0,0.0,0.0,0.0,0.0,0.0,0.0,0.0,0.0,0.0,0.0,0.0,0.0,0.0,0.0,0.0,0.0,0.0,1.269,1.1459,0.0,0.0,0.0,0.0,0.0,0.0,0.0,0.0,0.0,0.0,0.0,1.7979,1.8052,0.0,0.0,0.0,0.0,0.0,0.0,0.0,0.0,0.0,0.0,0.0,0.0,1.608,1.7928,2.0126,2.1568,2.2257,2.2119,2.1857,2.1506,2.0994,1.9431,1.6736,0.0,0.0,0.0,0.0,0.0,0.0,0.0,0.0,0.0,0.0,0.0,0.0,0.0,0.0,0.0,0.0,0.0,0.0,0.0,0.0,0.0,0.0,0.0,0.0,0.0,1.0955,0.0,0.0,0.0,0.0,0.0,0.0,0.0,0.0,0.0,0.0,0.0,1.4769,1.5389,1.586,1.6346,1.6884,1.7077,1.7412,0.0,0.0,0.0,0.0,0.0,0.0,0.0,0.0,0.0,0.0,0.0,0.0,0.0,0.0,1.5081,1.2418,1.1547,1.1157,1.1039,0.0,0.0,0.0,0.0,0.0,0.0,0.0,0.0,0.0,0.0,0.0,0.0,0.0,0.0,1.5533,1.456,1.3647,0.0,0.0,0.0,0.0,0.0,0.0,0.0,0.0,1.8375,1.9313,2.0185,2.0229,2.0228,2.0119,1.8776,1.6933,0.0,0.0,0.0,0.0,0.0,0.0,0.0,0.0,1.681,1.8493,2.0665,2.2031,2.2558,2.2583,2.2116,2.1142,2.0142,1.8526,1.6232,1.4373,1.2801,0.0,0.0,0.0,0.0,0.0,0.0,0.0,0.0,0.0,0.0,0.0,0.0,0.0,0.0,0.0,0.0,0.0,0.0,0.0,0.0,0.0,0.0,0.0,1.1287,0.0,0.0,0.0,0.0,0.0,0.0,0.0,0.0,0.0,1.3937,1.4761,1.5673,1.6635,1.6764,1.6914,1.735,0.0,0.0,0.0,0.0,0.0,0.0,0.0,1.6975,1.698,1.7015,1.6836,1.6246,1.6853,1.7416,1.7478,0.0,0.0,1.4549,1.3434,1.2809,1.2807,1.3003,1.3142,1.3147,1.3331,1.3502,0.0,0.0,0.0,0.0,1.7005,0.0,0.0,0.0,1.846,1.8864,0.0,1.6887,0.0,0.0,0.0,0.0,1.5652,1.7171,0.0,0.0,2.1155,2.2108,2.1696,2.171,2.1685,2.1595,2.0541,1.9698,1.9008,1.6468,0.0,0.0,0.0,0.0,0.0,0.0,1.7402,1.9108,2.1203,2.2531,2.2997,2.3035,2.2187,2.0389,1.8604,1.7131,1.5982,1.5439,1.4194,1.2077,1.1064,0.0,0.0,0.0,0.0,0.0,0.0,0.0,0.0,0.0,0.0,0.0,0.0,0.0,0.0,0.0,0.0,0.0,0.0,0.0,0.0,1.0385,0.0,0.0,0.0,0.0,0.0,0.0,0.0,0.0,0.0,1.4922,1.5013,1.6322,1.751,1.791,0.0,0.0,0.0,0.0,1.8361,1.7673,1.7152,1.7067,1.7554,1.8226,1.8686,1.8712,0.0,0.0,1.8798,1.8489,1.7886,1.5962,1.5774,1.6042,1.7818,1.6513,1.5389,1.5386,1.4511,1.3894,1.3848,1.37,1.3413,2.4688,0.0,0.0,0.0,0.0,2.2025,2.2377,2.2714,2.2911,2.2185,2.0768,1.996,0.0,0.0,0.0,0.0,0.0,0.0,2.1257,2.2909,2.3722,2.4418,2.5082,2.5066,2.5079,2.5028,2.3916,2.31,2.2495,2.0966,1.8405,1.5018,0.0,0.0,0.0,0.0,1.8719,2.0715,2.178,2.228,2.2249,2.2245,2.1351,1.952,1.8582,1.7542,1.6364,1.5927,1.5005,1.353,1.22,0.0,0.0,0.0,0.0,0.0,0.0,0.0,0.0,0.0,0.0,0.0,0.0,0.0,0.0,0.0,0.0,0.0,0.0,0.0,1.1783,1.1425,1.1392,0.0,0.0,0.0,0.0,0.0,0.0,0.0,0.0,0.0,1.7885,1.7352,1.708,0.0,0.0,1.7435,1.7393,1.8386,1.9228,1.9618,2.0078,0.0,2.0983,2.07,2.0565,2.0903,2.0348,1.9649,1.9013,1.8687,1.8597,1.8818,1.8956,1.9135,1.9366,1.6869,1.4809,1.4739,1.4697,1.4733,1.4897,1.5163,1.5418,2.874,2.6638,2.5193,2.4817,2.5097,2.5348,2.5699,2.6085,2.5884,2.5268,2.4359,2.3105,2.2078,2.1203,2.0167,0.0,0.0,0.0,2.3697,2.5473,2.5699,2.6155,2.6801,2.6826,2.6826,2.6758,2.5917,2.5297,2.4991,2.3853,2.1956,1.9321,0.0,1.6846,1.7803,1.8945,1.998,2.0981,2.1962,2.2121,2.1396,2.0858,1.9965,1.871,1.7864,1.6996,1.6114,1.5842,1.5294,1.4419,1.3355,1.2134,0.0,0.0,0.0,0.0,0.0,0.0,0.0,0.0,0.0,0.0,0.0,0.8644,0.7578,0.0,0.0,0.0,1.0227,1.1437,1.3035,1.235,0.0,0.0,0.0,0.0,0.0,0.0,0.0,1.6198,1.7115,1.8009,1.8852,1.7812,1.7577,1.9198,1.9318,1.902,1.8422,0.0,1.9908,1.9541,1.9915,2.0361,2.0595,2.0947,2.1429,2.2199,2.1021,1.9819,1.935,1.9079,1.9002,1.9096,1.9132,1.914,1.9132,1.6904,1.5354,1.5943,1.5861,1.5749,1.5889,1.6214,1.65,3.1582,3.1319,2.8882,2.772,2.758,2.8122,2.8344,2.8329,2.7839,2.8134,2.8769,2.6305,2.5737,2.6487,2.4456,0.0,2.513,2.513,2.5724,2.6776,2.7261,2.7499,2.7499,2.7512,2.7499,2.7517,2.6934,2.6628,2.6436,2.5378,2.4754,2.4478,2.1492,1.9967,1.9958,2.0814,2.0943,2.0278,2.1733,2.1885,2.055,1.926,1.838,1.7899,1.6753,1.5928,1.5439,1.541,1.522,1.4848,1.4413,1.3529,1.208,0.0,0.0,0.0,0.0,0.0,0.0,0.0,0.0,0.0,0.0,0.0,0.0,0.0,0.0,0.0,1.1871,0.0,1.448,1.3339,0.0,0.0,0.0,1.4586,1.6677,1.7309,1.7852,1.8505,0.0,0.0,1.8518,1.7984,1.8782,2.1957,2.2575,2.1938,1.9913,2.032,2.0255,1.8392,1.8129,1.8177,1.8731,2.005,2.144,2.2248,2.1703,2.0473,1.9555,1.9343,1.8753,1.7659,1.7258,1.7317,1.7258,1.697,1.7112,1.8077,1.7426,1.6687,1.6708,1.6715,1.6767,3.3077,3.2634,3.2011,3.1231,3.0421,3.0548,3.0621,3.0602,3.0489,3.0125,2.9541,2.89,2.8273,2.7695,2.7168,2.7288,2.7922,2.7922,2.8317,2.9007,2.9126,2.9221,2.9208,2.9189,2.9202,2.9183,2.8624,2.7687,2.6521,2.5757,2.4442,2.2633,2.1788,2.1222,2.0846,1.9977,1.9848,2.0499,2.0883,2.0768,2.0062,1.9117,1.8088,1.7032,1.6715,1.6196,1.5435,1.542,1.5357,1.5254,1.4863,1.4166,1.3163,1.1613,0.0,0.0,0.0,0.0,0.0,0.0,0.0,0.0,0.0,1.1215,0.9123,0.0,1.2528,0.0,1.302,1.479,1.6299,1.568,0.0,0.0,1.6484,1.6648,1.8477,1.9055,1.9112,1.8574,1.9029,1.9282,1.8983,1.9075,1.9693,2.113,2.0025,1.8866,1.8348,1.9296,1.9866,1.9405,1.9949,2.0745,2.0671,2.1183,2.1221,2.0511,2.0145,1.9512,1.8283,1.8075,1.7936,1.7567,1.7534,1.7508,1.7501,1.7415,1.7458,1.771,1.7211,1.6765,1.7028,1.7078,1.7127,3.4085,3.3809,3.3809,3.3169,3.2139,3.216,3.216,3.2135,3.1876,3.1424,3.0846,3.062,3.0156,2.9591,2.9566,2.971,2.9986,3.0018,3.0193,3.0495,3.0507,3.0119,2.9415,2.9403,2.901,2.8331,2.798,2.738,2.6498,2.6151,2.5306,2.3944,2.3254,2.2597,2.193,2.0669,2.0122,2.0286,1.9722,1.9506,1.9601,1.896,1.8137,1.7136,1.6674,1.6088,1.5289,1.4998,1.4956,1.5225,1.5045,1.4619,1.3917,1.2557,1.1208,0.0,0.0,0.0,0.0,0.0,0.0,0.0,0.0,0.0,0.0,0.0,1.3823,1.3557,1.4997,1.6487,1.7775,1.749,1.7743,1.9076,1.8749,1.8885,2.0002,2.03,2.0152,1.9433,1.9284,1.917,1.9079,1.8775,1.8817,1.9403,1.8476,1.7934,1.8525,1.9228,1.9464,1.8934,1.9395,2.0115,2.0638,2.0266,1.9843,1.9612,1.9098,1.8454,1.774,1.7615,1.7615,1.7615,1.7615,1.7615,1.7615,1.7615,1.7615,1.7568,1.7328,1.719,1.7331,1.7363,1.7428,3.4766,3.4703,3.4703,3.4161,3.3282,3.3118,3.2952,3.2751,3.2152,3.1968,3.2068,3.1572,3.1443,3.1612,3.1443,3.1344,3.1294,3.1269,3.1162,3.0931,3.0918,3.0146,2.8769,2.8737,2.8027,2.6694,2.6606,2.649,2.6365,2.6319,2.6157,2.587,2.4562,2.3529,2.278,2.1781,2.077,1.975,1.8827,1.8705,1.9333,1.8862,1.8218,1.7487,1.6527,1.568,1.4996,1.441,1.437,1.4924,1.4963,1.4811,1.4453,1.3282,1.2329,0.0,1.0532,0.0,0.0,0.0,0.0,0.0,0.0,0.0,0.0,1.4106,1.5141,1.6597,1.7335,1.8134,1.9093,1.9098,1.9521,2.0684,2.0909,2.1025,2.1184,2.1239,2.0984,2.0301,1.9241,1.8663,1.8736,1.7884,1.736,1.7692,1.7705,1.7993,1.9014,1.9236,1.8837,1.7733,1.7615,1.83,1.9043,1.8401,1.8096,1.896,1.8441,1.7641,1.7641,1.7615,1.7615,1.7615,1.7615,1.7615,1.7615,1.7615,1.7615,1.7608,1.7582,1.7575,1.7575,1.7575,1.7615,3.5104,3.4715,3.4703,3.4577,3.43,3.3243,3.2125,3.1014,3.0495,3.0733,3.1538,3.133,3.1812,3.2669,3.1704,3.1016,3.0586,3.0586,2.9789,2.8415,2.8382,2.8239,2.7923,2.7944,2.778,2.7464,2.7139,2.6515,2.5603,2.5264,2.4326,2.2795,2.2478,2.2231,2.2064,0.0,0.0,0.0,1.9895,2.0198,1.9695,1.8927,1.7936,1.6748,1.5933,0.0,1.4346,1.4171,1.4167,1.4277,1.4291,0.0,0.0,0.0,0.0,0.0,0.0,0.0,0.0,0.0,0.0,0.0,1.5856,1.5601,1.5003,1.6068,1.7402,1.8816,1.9263,1.9793,2.0673,2.1065,2.1504,2.207,2.2451,2.243,2.1789,2.1947,2.1438,1.9502,1.9037,1.8633,1.7974,1.7647,1.7548,1.7595,1.7615,1.7714,1.797,1.8068,1.7884,1.7635,1.7615,1.7674,1.7945,1.7793,1.7681,1.7886,1.7826,1.7615,1.7628,1.7628,1.7615,1.7628,1.7615,1.7628,1.7628,1.7615,1.7628,1.7615,1.7615,1.7615,1.7615,1.7615,1.7615,3.578,3.5529,3.5529,3.5192,0.0,3.3689,3.2186,3.0384,3.0288,3.0537,3.1033,3.074,3.0959,3.1488,3.0245,2.9526,2.9248,2.8802,2.8369,2.7906,2.7895,2.769,2.7287,2.7287,2.6855,2.6072,2.5864,2.5357,2.4642,2.4409,2.3671,2.251,2.25,2.2506,2.2483,2.2073,2.1201,1.9894,2.0268,2.0464,2.0442,1.9633,1.8832,1.8035,1.6967,0.0,0.0,0.0,0.0,0.0,0.0,0.0,0.0,0.0,0.0,1.498,1.4807,1.507,1.5916,1.6428,1.6997,1.7678,1.8321,1.8171,1.7006,1.8186,1.9382,2.0312,2.0869,2.1357,2.1796,2.2235,2.2676,2.3074,2.2767,2.2204,2.152,2.0985,2.0106,1.8678,1.8305,1.8111,1.7667,1.7615,1.7615,1.7615,1.7615,1.7615,1.7615,1.7615,1.7615,1.7615,1.7615,1.7615,1.7615,1.7615,1.7656,1.7762,1.7696,1.7669,1.7762,1.7809,1.7809,1.7829,1.7923,1.8057,1.8043,1.7923,1.7849,1.7953,1.782,1.7674,1.776,1.7701,1.7615,3.5666,3.5679,3.5666,3.5149,3.4218,3.357,3.1982,2.9897,3.0237,0.0,0.0,2.9969,2.9916,3.0016,2.8722,2.811,2.8066,2.7294,2.721,2.7668,2.7679,2.7337,2.6687,2.6698,2.5968,2.4681,2.4547,2.4346,2.4023,2.389,2.3613,2.3249,2.3162,2.3101,2.3101,2.3101,2.2574,2.1571,2.0742,2.0612,2.1125,2.0327,1.9731,1.9428,1.8102,1.7106,1.6458,1.5615,1.5215,1.5382,1.568,1.5912,1.6009,1.6372,1.6572,1.6552,1.6539,1.7038,1.8137,1.8283,1.8682,1.9481,2.0263,2.0214,1.9026,2.0166,2.1055,2.1415,2.2147,2.2596,2.2606,2.2986,2.3256,2.3426,2.2575,2.171,2.0745,1.9791,1.8826,1.7817,1.7641,1.7608,1.7608,1.7615,1.7615,1.7615,1.7615,1.7635,1.7642,1.7648,1.7642,1.7675,1.7729,1.7722,1.7761,1.7776,1.7848,1.8069,1.7908,1.7856,1.8022,1.8096,1.8096,1.8096,1.8337,1.8444,1.8464,1.8249,1.8192,1.8439,1.7875,1.7463,1.7853,1.7589,1.7324,3.2907,3.2883,3.2883,3.2778,3.2553,3.1334,2.994,2.8622,2.9034,2.924,2.9237,2.9061,2.9577,3.0513,2.8916,2.8206,2.8163,2.7702,2.697,2.6056,2.6032,2.5986,2.5867,2.5876,2.575,2.5503,2.5156,2.4975,2.4838,2.4173,2.3772,2.3652,2.3298,2.3101,2.3101,2.3101,2.3003,2.283,2.2271,2.1654,2.1029,2.0247,1.9428,1.8674,1.7872,1.7161,1.6682,1.651,1.6451,1.6485,1.6534,1.6731,1.7127,1.7247,1.755,1.8176,1.8254,1.8508,1.908,1.9443,1.9853,2.0371,2.084,2.0879,2.041,2.1505,2.2266,2.2323,2.2732,2.3003,2.3033,2.3393,2.3175,2.2318,2.2537,2.192,1.9685,1.9388,1.8948,1.7759,1.7615,1.7615,1.7615,1.7615,1.7622,1.7622,1.7695,1.7695,1.7856,1.7749,1.7716,1.7896,1.7962,1.8077,1.8236,1.8346,1.836,1.8422,1.8389,1.8344,1.8383,1.843,1.8424,1.843,1.8504,1.8531,1.8524,1.8464,1.8455,1.8459,1.7467,1.6765,1.7602,1.6875,1.631,3.228,3.228,3.228,3.228,3.2205,3.0876,2.9964,2.9337,2.8829,2.8634,2.8605,2.8345,2.8543,2.8921,2.7515,2.6734,2.6485,2.5831,2.5335,2.501,2.4996,2.5249,2.5654,2.5708,2.5708,2.5664,2.5513,2.5303,2.5072,2.4681,2.4248,2.3811,2.3337,2.3101,2.3101,2.3101,2.3101,2.3071,2.264,2.222,2.182,2.0989,2.0356,1.9965,1.9203,1.8555,1.8118,1.7857,1.764,1.7425,1.7613,1.7835,1.804,1.8298,1.8682,1.9259,1.9308,1.9503,1.998,2.0391,2.0693,2.0908,2.1532,2.1846,2.1641,2.2168,2.2586,2.2801,2.2994,2.2893,2.2457,2.2585,2.234,2.1481,2.108,2.0425,1.9508,1.8756,1.8244,1.7714,1.7615,1.7615,1.7615,1.7615,1.7669,1.7776,1.7949,1.813,1.827,1.8176,1.8116,1.8229,1.8268,1.8317,1.8462,1.8501,1.8559,1.868,1.8593,1.8584,1.8677,1.8724,1.8724,1.8738,1.8844,1.898,1.8951,1.8824,1.8727,1.8552,1.7296,1.6608,1.6675,1.5665,1.5074,3.1403,3.1393,3.1403,3.1403,3.1301,3.0292,2.9843,2.9739,2.8741,2.8301,2.8252,2.7976,2.7839,2.7721,2.665,2.5986,2.559,2.4789,2.456,2.4834,2.4742,2.5054,2.5659,2.5708,2.5708,2.5708,2.5708,2.5557,2.5244,2.5151,2.4662,2.3838,2.3425,2.3188,2.3101,2.3101,2.3101,2.3081,2.2779,2.2586,2.2469,2.1835,2.1454,2.1308,2.0596,2.0049,1.9736,1.9288,1.8898,1.8623,1.8879,1.9064,1.9074,1.9385,1.9745,2.0019,2.0068,2.0254,2.0703,2.1005,2.1229,2.1346,2.2059,2.2488,2.2498,2.2331,2.2483,2.2977,2.2893,2.2496,2.1948,2.1695,2.1333,2.0604,1.9731,1.9213,1.9047,1.8199,1.7615,1.7615,1.7615,1.7615,1.7615,1.7615,1.7702,1.7969,1.8323,1.8577,1.8591,1.8637,1.8691,1.8671,1.8637,1.8637,1.8657,1.8704,1.8806,1.8989,1.8878,1.8843,1.8978,1.9025,1.9025,1.9038,1.9221,1.9083,1.8935,1.859,1.8205,1.7683,1.6109,1.5095,1.4884,1.4429,1.3631,2.8698,2.8671,2.8777,2.8671,2.8751,2.8591,2.8548,2.8521,2.8344,2.8301,2.8281,2.8252,2.8223,2.8174,2.7702,2.7428,2.7301,2.6523,2.6123,2.6094,2.5776,2.564,2.5708,2.5708,2.5708,2.5708,2.5708,2.5654,2.5591,2.5254,2.4672,2.3909,2.3772,2.3525,2.3159,2.3101,2.3101,2.3101,2.3052,2.2869,2.2518,2.242,2.2217,2.1826,2.1347,2.1064,2.0956,2.0635,2.039,2.0351,2.0361,2.04,2.039,2.0468,2.0507,2.0527,2.0527,2.0723,2.1103,2.1171,2.1415,2.1807,2.2235,2.2487,2.2432,2.1836,2.1887,2.2612,2.2314,2.1824,2.1785,2.1299,2.0498,1.9409,1.9319,1.9095,1.8087,1.7687,1.7615,1.7615,1.7615,1.7615,1.7615,1.7655,1.7742,1.8029,1.8536,1.8771,1.8636,1.903,1.8962,1.9048,1.9008,1.8954,1.9158,1.9308,1.9259,1.9339,1.9325,1.9194,1.9114,1.9105,1.9254,1.8352,1.8929,1.849,1.7653,1.7143,1.6663,1.5684,1.4217,1.2631,1.2436,1.2788,1.2923,2.8301,2.8301,2.8301,2.8301,2.8301,2.8301,2.8301,2.8301,2.8301,2.8301,2.8301,2.8301,2.8301,2.8281,2.8132,2.7936,2.7653,2.7031,2.6621,2.6367,2.5913,2.5708,2.5708,2.5708,2.5708,2.5708,2.5708,2.5708,2.563,2.5283,2.4906,2.4545,2.4053,2.3701,2.3493,2.3249,2.3101,2.3101,2.3101,2.3003,2.2838,2.2615,2.2441,2.2236,2.1846,2.1621,2.1602,2.1426,2.125,2.1006,2.1201,2.125,2.0986,2.1201,2.126,2.0996,2.0967,2.1152,2.1562,2.1825,2.204,2.2256,2.2625,2.259,2.1855,2.1487,2.1338,2.1126,2.0879,2.05,1.9989,1.9846,1.9353,1.8442,1.8305,1.8199,1.7714,1.7615,1.7615,1.7615,1.7615,1.7615,1.7668,1.7929,1.8143,1.8336,1.8755,1.8736,1.8063,1.8671,1.8483,1.7149,1.7177,1.823,1.9007,1.9395,1.9366,1.9366,1.9395,1.9272,1.8169,1.7987,1.7712,1.6827,1.6832,1.6626,1.576,1.5583,1.5241,1.4074,1.3062,1.1705,1.0703,1.0895,1.0794,2.8301,2.8301,2.8301,2.8301,2.8301,2.8301,2.8301,2.8301,2.8301,2.8301,2.8301,2.8301,2.8301,2.8301,2.8301,2.8115,2.7839,2.7418,2.6963,2.6543,2.6089,2.5825,2.5718,2.5708,2.5708,2.5708,2.5708,2.5708,2.5679,2.543,2.5219,2.5014,2.4466,2.4046,2.3779,2.3457,2.323,2.3101,2.3101,2.3101,2.3074,2.282,2.2664,2.2625,2.2275,2.206,2.2051,2.1943,2.1738,2.1415,2.1719,2.1738,2.1435,2.1719,2.1738,2.1445,2.1396,2.1581,2.2031,2.2344,2.2537,2.2674,2.2957,2.2589,2.1543,2.1069,2.0457,1.9562,1.9256,1.8909,1.881,1.8611,1.8292,1.7687,1.7615,1.7615,1.7615,1.7615,1.7615,1.7615,1.7615,1.7391,1.7092,1.7039,1.6975,1.7064,1.7541,1.7783,1.6768,1.7214,1.7103,1.502,1.5666,1.6633,1.7848,1.7833,1.8069,1.8087,1.7847,1.7425,1.6556,1.6409,1.6262,1.5583,1.4842,1.4272,1.4034,1.3914,1.3621,1.2969,1.2026,1.0978,1.007,0.9789,0.9694,2.8301,2.8301,2.8301,2.8301,2.8301,2.8301,2.8301,2.8301,2.8301,2.8301,2.8301,2.8301,2.8301,2.8301,2.8301,2.8281,2.8203,2.7819,2.7409,2.6963,2.6533,2.6098,2.5718,2.5708,2.5708,2.5708,2.5708,2.5708,2.5708,2.5654,2.5488,2.5112,2.5004,2.4603,2.3978,2.3769,2.3545,2.3179,2.311,2.3101,2.3091,2.3093,2.3033,2.3015,2.2684,2.2469,2.2451,2.213,2.1905,2.1865,2.1935,2.1904,2.1855,2.1885,2.1894,2.1905,2.1886,2.2041,2.2422,2.2508,2.2664,2.2974,2.2965,2.2536,2.123,2.0368,1.9429,1.8297,1.7807,1.7862,1.8618,1.8189,1.7784,1.7648,1.7615,1.7615,1.7615,1.745,1.7589,1.7496,1.7279,1.6683,1.5639,1.4652,1.4551,1.457,1.4705,1.4896,1.4896,1.4901,1.4812,1.4485,1.444,1.474,1.481,1.5541,1.5359,1.5467,1.5839,1.5015,1.4812,1.4663,1.4574,1.4391,1.3944,1.3347,1.2629,1.2062,1.1619,1.1091,1.0702,0.9882,0.9794,0.9798,0.9741,2.8301,2.8301,2.8301,2.8301,2.8301,2.8301,2.8301,2.8301,2.8301,2.8301,2.8301,2.8291,2.8301,2.8301,2.8301,2.8301,2.8252,2.7878,2.7604,2.7379,2.6734,2.6299,2.6152,2.5854,2.5708,2.5708,2.5708,2.5708,2.5708,2.5708,2.564,2.5478,2.5229,2.4916,2.4584,2.4085,2.3701,2.3523,2.3269,2.3101,2.311,2.3101,2.3101,2.3091,2.2955,2.2867,2.2877,2.2732,2.2557,2.2305,2.2518,2.2537,2.2303,2.2285,2.2391,2.2627,2.241,2.2471,2.282,2.2888,2.2947,2.3018,2.235,2.1467,2.0297,1.9292,1.8293,1.7475,1.7266,1.7529,1.7837,1.7784,1.7615,1.7615,1.7582,1.7556,1.7424,1.6797,1.6196,1.6062,1.5476,1.4617,1.4374,1.4001,1.3949,1.4076,1.4378,1.4034,1.3467,1.3855,1.386,1.2277,1.2363,1.2697,1.1547,1.3555,1.4619,1.464,1.4605,1.3948,1.3591,1.3172,1.2993,1.2123,1.2002,1.1946,1.1046,1.0959,1.0391,1.027,0.9788,0.9788,0.9788,0.9788,0.9768,2.7286,2.6888,2.6861,2.6834,2.6834,2.6861,2.6834,2.6834,2.6861,2.6834,2.6834,2.6871,2.6844,2.6943,2.7357,2.7249,2.7005,2.7518,2.7819,2.7653,2.7086,2.6675,2.6367,2.6084,2.5845,2.5728,2.5708,2.5708,2.5708,2.5708,2.5708,2.5679,2.542,2.5205,2.5014,2.4505,2.4183,2.3945,2.3564,2.3327,2.3318,2.3181,2.3101,2.3101,2.3101,2.3101,2.3101,2.3101,2.2974,2.2771,2.2945,2.2964,2.2732,2.2693,2.282,2.3023,2.2859,2.281,2.3033,2.3101,2.2928,2.2545,2.1765,2.0701,1.9255,1.853,1.781,1.7191,1.714,1.744,1.7548,1.7615,1.7615,1.7529,1.7173,1.6902,1.6823,1.5583,1.4849,1.4538,1.3575,1.2857,1.2734,1.2573,1.2472,1.2707,1.2922,1.2504,1.1886,1.2187,1.2483,1.0391,1.0808,1.0955,1.0514,1.1723,1.2483,1.2574,1.2841,1.2393,1.2217,1.177,1.1261,1.024,0.9788,0.9788,0.9788,0.9788,0.9788,0.9788,0.9788,0.9788,0.9788,0.9788,0.968,2.5242,2.4128,2.385,2.4136,2.4211,2.4239,2.3961,2.4156,2.41,2.4294,2.4405,2.4072,2.4294,2.4322,2.5544,2.5325,2.482,2.667,2.7576,2.7285,2.7258,2.6795,2.607,2.5889,2.5738,2.5523,2.5659,2.5708,2.5708,2.5708,2.5708,2.5708,2.5679,2.5478,2.5112,2.5024,2.4818,2.4404,2.3975,2.375,2.374,2.3337,2.3101,2.3101,2.3101,2.3101,2.3101,2.3101,2.3071,2.3062,2.3071,2.3101,2.3052,2.3042,2.3081,2.3081,2.305,2.3038,2.2994,2.2862,2.2195,2.1498,2.1177,2.0175,1.8658,1.8301,1.7996,1.7355,1.7388,1.7602,1.7569,1.745,1.7364,1.7424,1.636,1.5657,1.5204,1.4148,1.3242,1.2982,1.1988,1.1359,1.1086,1.0692,1.0284,1.029,1.0302,1.0388,1.027,1.0448,0.9997,0.9879,1.0058,1.0119,0.994,0.9849,0.994,1.0065,1.0402,1.0448,1.066,1.0448,1.0539,0.9788,0.9788,0.9788,0.9788,0.9788,0.9788,0.9788,0.9788,0.9758,0.9731,0.9667,0.939,2.4211,2.3822,2.3794,2.3794,2.3794,2.3794,2.3794,2.3794,2.3794,2.3794,2.3794,2.3794,2.3794,2.385,2.435,2.4239,2.3905,2.482,2.5126,2.4986,2.4778,2.4456,2.3966,2.3608,2.3776,2.4409,2.5274,2.5684,2.5625,2.5625,2.5708,2.5708,2.5659,2.564,2.5426,2.5225,2.4994,2.4828,2.4173,2.3821,2.375,2.3347,2.3101,2.3101,2.3101,2.3101,2.3101,2.3101,2.3101,2.3101,2.3101,2.3101,2.3101,2.3101,2.3101,2.3003,2.2284,2.1845,2.1734,2.1123,2.0562,2.0039,1.9503,1.8871,1.8167,1.7803,1.7548,1.7252,1.7434,1.7615,1.7477,1.6631,1.6148,1.6095,1.5663,1.4824,1.3825,1.2648,1.1492,1.0624,1.0121,0.9968,1.0066,0.9677,0.9679,0.973,0.9761,0.9788,0.9788,0.9788,0.9788,0.9788,0.9788,0.9788,0.9788,0.9788,0.9788,0.9788,0.9788,0.9788,0.9788,0.9788,0.9788,0.9788,0.9788,0.9788,0.9788,0.9788,0.9788,0.9667,0.9572,0.9576,0.9636,0.9147,0.8407,2.2653,2.2189,2.2161,2.2153,2.2161,2.2161,2.2153,2.2153,2.2153,2.2153,2.2125,2.2153,2.2153,2.2302,2.271,2.2653,2.2266,2.2681,2.2674,2.2469,2.3264,2.3184,2.2852,2.233,2.2397,2.3078,2.3863,2.4196,2.4221,2.4196,2.4196,2.4205,2.4205,2.4452,2.4869,2.4739,2.4741,2.511,2.4662,2.4212,2.3965,2.3581,2.3279,2.313,2.3101,2.3101,2.3101,2.3101,2.3101,2.3101,2.3101,2.3101,2.3101,2.3091,2.2906,2.235,2.1756,2.1127,2.0643,2.0019,1.9288,1.897,1.8422,1.7991,1.7777,1.7369,1.7238,1.7354,1.7501,1.7391,1.6744,1.6035,1.5016,1.3852,1.3723,1.3183,1.1882,1.0931,1.0213,0.9532,0.9381,0.9445,0.9565,0.9673,0.9713,0.9775,0.9788,0.9788,0.9788,0.9788,0.9788,0.9788,0.9788,0.9788,0.9788,0.9788,0.9788,0.9788,0.9788,0.9788,0.9788,0.9788,0.9788,0.9788,0.9788,0.9788,0.9788,0.9788,0.9758,0.9572,0.8988,0.8282,0.7761,0.7118,0.6475,2.0673,1.9482,1.9453,1.962,1.9649,1.9678,1.9764,1.9562,1.962,1.9707,1.9649,1.9844,1.9671,1.9866,2.1002,2.0866,1.9895,2.0873,2.0895,2.0709,2.1852,2.2835,2.237,2.1908,2.184,2.1914,2.1994,2.1929,2.2181,2.2131,2.1727,2.203,2.2156,2.2366,2.3375,2.3574,2.4076,2.4814,2.4751,2.4282,2.3938,2.3614,2.3226,2.2796,2.2704,2.2653,2.2596,2.2539,2.2731,2.2938,2.2731,2.2621,2.2894,2.296,2.2151,2.1413,2.1226,2.0373,1.9648,1.9039,1.8667,1.8009,1.7895,1.7835,1.7336,1.7064,1.7094,1.7449,1.7193,1.6664,1.5743,1.4957,1.3718,1.1565,1.1237,1.0594,0.9306,0.9255,0.9332,0.9336,0.9449,0.962,0.9626,0.971,0.9765,0.9785,0.9788,0.9788,0.9788,0.9788,0.9788,0.9788,0.9788,0.9788,0.9788,0.9788,0.9788,0.9788,0.9788,0.9758,0.9788,0.9788,0.9788,0.9788,0.9667,0.9697,0.9636,0.9511,0.9019,0.8343,0.7515,0.6505,0.5861,0.5404,0.4822,1.9758,1.9395,1.9395,1.9395,1.9395,1.9395,1.9395,1.9395,1.9395,1.9395,1.9395,1.9395,1.9395,1.9482,1.978,1.9729,1.962,1.9844,1.9866,1.9562,2.0033,2.0338,2.0221,2.0484,2.0638,2.0698,2.1181,2.1693,2.1693,2.1491,2.1541,2.1693,2.1465,2.1752,2.2206,2.2215,2.2391,2.264,2.2345,2.2136,2.198,2.1627,2.126,2.1116,2.0957,2.0819,2.0729,2.0542,2.0921,2.1614,2.0877,2.0899,2.1578,2.1033,2.0764,2.089,1.9602,1.8596,1.8141,1.7388,1.684,1.6822,1.7089,1.7098,1.7185,1.6358,1.6536,1.6849,1.5902,1.4802,1.4877,1.3475,1.151,0.9915,0.9631,0.9508,0.9213,0.9182,0.9272,0.9464,0.9556,0.964,0.9717,0.9754,0.9788,0.9788,0.9788,0.9788,0.9788,0.9788,0.9788,0.9788,0.9788,0.9788,0.9788,0.9788,0.9788,0.9788,0.9758,0.9697,0.9758,0.9788,0.9788,0.9788,0.939,0.9299,0.9052,0.8836,0.8069,0.6902,0.6077,0.5129,0.47,0.4242,0.3413,1.9395,1.9395,1.9395,1.9395,1.9395,1.9395,1.9395,1.9395,1.9395,1.9395,1.9395,1.9395,1.9395,1.9395,1.9424,1.9424,1.9395,1.9395,1.9424,1.9424,1.9482,1.9381,1.9303,1.9555,1.9546,1.9463,1.9915,1.9978,1.9927,1.9973,1.9973,1.987,1.9973,2.0256,2.0794,2.082,2.1143,2.1567,2.142,2.1221,2.0991,2.0786,2.0589,2.0442,2.0204,2.0064,1.9884,1.9292,1.9431,2.0144,1.992,1.983,2.0373,1.992,1.9625,1.9807,1.8388,1.7604,1.7075,1.6402,1.6292,1.6616,1.6846,1.6682,1.6593,1.6206,1.6658,1.5476,1.4636,1.4126,1.3178,1.1483,1.0,0.9269,0.9028,0.9094,0.9204,0.9288,0.9438,0.9576,0.9647,0.9697,0.9788,0.9788,0.9788,0.9788,0.9788,0.9788,0.9788,0.9788,0.9788,0.9788,0.9788,0.9788,0.9788,0.9788,0.9579,0.9579,0.8681,0.8833,0.9174,0.9268,0.9113,0.8961,0.8867,0.8593,0.7947,0.7212,0.6077,0.5068,0.4395,0.366,0.3015,0.0,0.0,1.9395,1.9395,1.9395,1.9395,1.9395,1.9395,1.9395,1.9395,1.9395,1.9395,1.9395,1.9395,1.9395,1.9395,1.9395,1.9395,1.9395,1.9395,1.9395,1.9395,1.9395,1.9368,1.9343,1.9107,1.897,1.874,1.821,1.8124,1.8179,1.7939,1.774,1.8022,1.7917,1.8297,1.9195,1.9395,2.0084,2.0743,2.078,2.0536,2.0271,2.0152,1.9992,1.9771,1.9671,1.9492,1.9136,1.8543,1.8357,1.9153,1.9189,1.9096,1.9186,1.9245,1.8772,1.8056,1.7665,1.7104,1.6528,1.6377,1.6558,1.6993,1.7146,1.6691,1.597,1.6082,1.5689,1.3997,1.4255,1.294,1.141,0.9682,0.9269,0.9145,0.9189,0.9233,0.9279,0.9457,0.9603,0.9632,0.9724,0.9768,0.9788,0.9788,0.9788,0.9788,0.9788,0.9788,0.9788,0.9788,0.9788,0.9788,0.9788,0.9788,0.9788,0.9788,0.9488,0.9153,0.764,0.7271,0.7947,0.8039,0.7917,0.7764,0.7304,0.6693,0.5927,0.5008,0.4088,0.3445,0.2923,0.1756,0.0,0.0,0.0,1.9395,1.9395,1.9395,1.9395,1.9395,1.9395,1.9395,1.9395,1.9395,1.9395,1.9395,1.9395,1.9395,1.9395,1.9395,1.9395,1.9395,1.9395,1.9395,1.9395,1.9395,1.9395,1.9341,1.9078,1.8905,1.8676,1.8256,1.7996,1.7882,1.7695,1.7615,1.7615,1.7615,1.774,1.8048,1.8218,1.8113,1.8473,1.8577,1.8672,1.8615,1.8546,1.8511,1.836,1.8136,1.7806,1.7449,1.7139,1.7112,1.7197,1.7258,1.7585,1.7874,1.7292,1.7118,1.7435,1.7008,1.6552,1.6379,1.6545,1.6792,1.7159,1.7066,1.6685,1.5462,1.4636,1.4153,1.2886,1.1592,1.0566,0.9678,0.9318,0.9169,0.922,0.9383,0.949,0.9496,0.9559,0.9638,0.9716,0.9781,0.9788,0.9788,0.9788,0.9788,0.9788,0.9788,0.9788,0.9788,0.9788,0.9788,0.9788,0.9788,0.9788,0.9667,0.9393,0.8635,0.7897,0.642,0.5494,0.6169,0.6016,0.5588,0.5527,0.5529,0.4826,0.4059,0.3475,0.2677,0.2063,0.0,0.0,0.0,0.0,0.0,1.9395,1.9395,1.9395,1.9395,1.9395,1.9395,1.9395,1.9395,1.9395,1.9395,1.9395,1.9395,1.9395,1.9395,1.9395,1.9395,1.9395,1.9395,1.9395,1.9395,1.9395,1.9395,1.9381,1.9212,1.9072,1.8856,1.8456,1.8189,1.7976,1.7769,1.7615,1.7615,1.7615,1.7615,1.7615,1.7615,1.7661,1.7714,1.7615,1.7615,1.7615,1.7615,1.7615,1.7555,1.7334,1.7105,1.7029,1.6983,1.6859,1.674,1.6712,1.6844,1.7064,1.6614,1.6639,1.6922,1.6849,1.6585,1.6712,1.6859,1.7066,1.7289,1.6788,1.5684,1.4736,1.3642,1.2539,1.1538,1.0457,0.9778,0.903,0.9069,0.9192,0.9318,0.9469,0.9595,0.9676,0.9695,0.9721,0.9785,0.9785,0.9788,0.9788,0.9788,0.9788,0.9788,0.9697,0.9697,0.9788,0.9788,0.9788,0.9788,0.9788,0.9727,0.9606,0.8906,0.76,0.6431,0.4833,0.4091,0.4057,0.3536,0.2861,0.323,0.3752,0.3016,0.2278,0.1756,0.0,0.0,0.0,0.0,0.0,0.0,0.0,1.9395,1.9395,1.9395,1.9395,1.9395,1.9395,1.9395,1.9395,1.9395,1.9395,1.9395,1.9395,1.9395,1.9395,1.9395,1.9395,1.9395,1.9395,1.9395,1.9395,1.9395,1.9395,1.9388,1.9348,1.9254,1.8971,1.8698,1.8396,1.8103,1.7816,1.7669,1.7635,1.7615,1.7615,1.7615,1.7615,1.7615,1.7615,1.7615,1.7615,1.7615,1.7615,1.7615,1.7561,1.7421,1.728,1.7247,1.7246,1.7133,1.6881,1.7107,1.708,1.6901,1.6695,1.6707,1.6737,1.6739,1.6904,1.7065,1.7187,1.7263,1.7298,1.6215,1.4625,1.3426,1.2701,1.1592,1.0472,0.9642,0.9999,0.912,0.9167,0.9328,0.9441,0.9554,0.9686,0.9781,0.9788,0.9808,0.9812,0.9788,0.9788,0.9788,0.9788,0.9788,0.9758,0.9636,0.9545,0.9576,0.9235,0.8867,0.859,0.8343,0.7897,0.774,0.6881,0.5759,0.4867,0.0,0.0,0.0,0.1787,0.1479,0.1756,0.1879,0.0,0.0,0.0,0.0,0.0,0.0,0.0,0.0,0.0,0.0,1.9395,1.9395,1.9395,1.9395,1.9366,1.9366,1.922,1.9395,1.9156,1.9366,1.9272,1.9336,1.9156,1.9214,1.9366,1.9336,1.8975,1.8858,1.901,1.901,1.9004,1.8975,1.8858,1.8765,1.9022,1.9261,1.8899,1.8495,1.8356,1.8096,1.7776,1.7635,1.7615,1.7615,1.7615,1.7615,1.7615,1.7615,1.7615,1.7615,1.7615,1.7615,1.7615,1.7608,1.7521,1.7508,1.7515,1.7521,1.7508,1.7448,1.7515,1.7468,1.7263,1.6923,1.6668,1.682,1.6999,1.7153,1.7021,1.7297,1.6792,1.6082,1.5284,1.3965,1.2295,1.1437,1.0602,0.9747,0.9269,0.9444,0.9211,0.933,0.9503,0.9598,0.9643,0.9778,0.9778,0.9788,0.9788,0.9788,0.9788,0.9788,0.9788,0.9697,0.9542,0.9356,0.911,0.8836,0.8653,0.7825,0.6844,0.6597,0.6383,0.5904,0.546,0.436,0.3332,0.296,0.0,0.0,0.0,0.0,0.0,0.0,0.0,0.0,0.0,0.0,0.0,0.0,0.0,0.0,0.0,0.0,0.0,1.6921,1.6891,1.6921,1.6921,1.6921,1.6921,1.6915,1.6926,1.6926,1.6921,1.6921,1.6921,1.6921,1.6921,1.6921,1.6921,1.7015,1.6921,1.6921,1.6921,1.6921,1.6921,1.7009,1.7009,1.7513,1.7863,1.7977,1.8169,1.8442,1.8156,1.7849,1.7655,1.7615,1.7615,1.7615,1.7615,1.7582,1.7582,1.7582,1.7615,1.7615,1.7615,1.7615,1.7615,1.7615,1.7615,1.7615,1.7615,1.7608,1.7602,1.7608,1.7615,1.7279,1.6716,1.6355,1.6904,1.7178,1.6964,1.6435,1.6357,1.5757,1.4443,1.375,1.267,1.1319,1.046,0.9767,0.9321,0.9089,0.9248,0.9294,0.9516,0.9588,0.9632,0.9734,0.9775,0.9788,0.9788,0.9788,0.9788,0.9788,0.9788,0.9788,0.9606,0.9299,0.8958,0.8587,0.8158,0.7701,0.6475,0.519,0.4943,0.479,0.4322,0.3823,0.2917,0.1914,0.1359,0.0,0.0,0.0,0.0,0.0,0.0,0.0,0.0,0.0,0.0,0.0,0.0,0.0,0.0,0.0,0.0,0.0,1.4574,1.4574,1.4574,1.4574,1.4574,1.4604,1.4663,1.4574,1.4693,1.4782,1.4574,1.4693,1.4753,1.4663,1.4693,1.4693,1.4574,1.4723,1.4871,1.4931,1.4931,1.4723,1.4634,1.4723,1.5429,1.6403,1.6498,1.7259,1.8364,1.8317,1.7821,1.7403,1.7351,1.7127,1.6717,1.7153,1.7312,1.7252,1.7523,1.7615,1.7615,1.7615,1.7615,1.7615,1.7615,1.7615,1.7615,1.7615,1.7615,1.7477,1.7285,1.71,1.6902,1.5769,1.5577,1.6466,1.6711,1.6142,1.579,1.4973,1.4368,1.2967,1.181,1.1133,1.0476,0.9715,0.9116,0.9187,0.9303,0.9335,0.9429,0.9568,0.9646,0.9683,0.9724,0.9788,0.9788,0.9788,0.9788,0.9788,0.9788,0.9697,0.9576,0.9636,0.9326,0.7978,0.7545,0.675,0.6169,0.4942,0.3871,0.3565,0.3257,0.2826,0.2395,0.1997,0.1171,0.0617,0.0,0.0,0.0,0.0,0.0,0.0,0.0,0.0,0.0,0.0,0.0,0.0,0.0,0.0,0.0,0.0,0.0,1.4574,1.4574,1.4545,1.4574,1.4455,1.4396,1.4515,1.4426,1.4307,1.4574,1.4187,1.4426,1.4307,1.4247,1.4277,1.4426,1.4396,1.4158,1.4009,1.3949,1.4038,1.4038,1.4366,1.4574,1.4331,1.4837,1.4896,1.6495,1.7739,1.809,1.7427,1.6474,1.6596,1.6458,1.4746,1.6086,1.6849,1.6121,1.6882,1.7556,1.7615,1.7615,1.7615,1.7615,1.7615,1.7615,1.7556,1.7477,1.7364,1.7292,1.6254,1.5716,1.5444,1.4314,1.3723,1.375,1.3911,1.4228,1.4684,1.4094,1.2913,1.1701,1.1023,1.0374,0.9697,0.9405,0.9148,0.9207,0.94,0.953,0.9588,0.9703,0.9771,0.9754,0.9765,0.9788,0.9788,0.9758,0.9758,0.9292,0.9137,0.9204,0.9207,0.9329,0.9235,0.7731,0.6383,0.5588,0.4516,0.3227,0.0,0.0,0.0,0.0,0.0,0.0,0.0,0.0,0.0,0.0,0.0,0.0,0.0,0.0,0.0,0.0,0.0,0.0,0.0,0.0,0.0,0.0,0.0,0.0,0.0,1.1886,1.1886,1.1886,1.1886,1.1886,1.1886,1.1886,1.1882,1.1886,1.1886,1.189,1.1886,1.1886,1.2032,1.1886,1.1856,1.1886,1.2037,1.1916,1.2006,1.2037,1.1976,1.18,1.1946,1.2183,1.3138,1.3402,1.4282,1.5833,1.6132,1.545,1.4954,1.5037,1.481,1.325,1.452,1.4685,1.4749,1.5556,1.6744,1.7371,1.7589,1.7562,1.7556,1.7529,1.7477,1.7312,1.6691,1.6387,1.6095,1.499,1.4234,1.3884,1.3026,1.2354,1.3188,1.1619,1.1588,1.2561,1.2295,1.1351,1.0351,0.9888,0.9506,0.9019,0.9069,0.9262,0.9311,0.9479,0.9629,0.968,0.9751,0.9775,0.9758,0.9542,0.9451,0.9481,0.9697,0.9603,0.9015,0.8368,0.8039,0.7795,0.7761,0.7149,0.5556,0.4637,0.4179,0.2892,0.1355,0.0,0.0,0.0,0.0,0.0,0.0,0.0,0.0,0.0,0.0,0.0,0.0,0.0,0.0,0.0,0.0,0.0,0.0,0.0,0.0,0.0,0.0,0.0,0.0,0.0,0.9788,0.9788,0.9788,0.9788,0.9788,0.9788,0.9879,0.9849,0.991,0.9879,0.9788,0.991,0.991,0.9819,1.0001,1.0179,0.994,0.9788,0.9788,0.9788,0.9788,0.997,1.0179,1.0119,1.06,1.1615,1.1585,1.229,1.2875,1.3235,1.3122,1.326,1.3813,1.3085,1.2753,1.3277,1.3686,1.3702,1.4406,1.5343,1.6101,1.6313,1.6366,1.6419,1.6525,1.6532,1.634,1.5583,1.4904,1.4636,1.3507,1.2756,1.2512,1.146,1.0973,1.1324,1.0131,0.9722,1.0457,1.0511,0.9915,0.9348,0.8909,0.9075,0.8992,0.9089,0.9267,0.9386,0.9568,0.9703,0.9785,0.9785,0.9417,0.9204,0.8991,0.8897,0.8684,0.8346,0.7967,0.7248,0.649,0.5774,0.5651,0.5772,0.4943,0.3351,0.2707,0.2646,0.0,0.0,0.0,0.0,0.0,0.0,0.0,0.0,0.0,0.0,0.0,0.0,0.0,0.0,0.0,0.0,0.0,0.0,0.0,0.0,0.0,0.0,0.0,0.0,0.0,0.0,0.0,0.9788,0.9788,0.9788,0.9788,0.9788,0.9788,0.9788,0.9788,0.9788,0.9788,0.9788,0.9788,0.9788,0.9788,0.9788,0.9788,0.9788,0.9788,0.9788,0.9788,0.9788,0.9788,0.9788,0.9849,0.9879,1.0119,1.0327,1.0358,1.0327,1.0959,1.1258,1.1996,1.2586,1.163,1.1335,1.2016,1.2973,1.307,1.3443,1.3576,1.397,1.4008,1.3992,1.3911,1.375,1.3615,1.3647,1.3534,1.3426,1.3372,1.2055,1.1269,1.1,1.0107,0.9781,0.9588,0.9482,0.9127,0.9372,0.9427,0.9127,0.8964,0.8923,0.8943,0.8963,0.9222,0.9386,0.9218,0.9149,0.9244,0.9474,0.9606,0.8468,0.7944,0.7426,0.7118,0.6721,0.6204,0.5794,0.5285,0.4711,0.4147,0.3354,0.3444,0.3444,0.2001,0.1817,0.0,0.0,0.0,0.0,0.0,0.0,0.0,0.0,0.0,0.0,0.0,0.0,0.0,0.0,0.0,0.0,0.0,0.0,0.0,0.0,0.0,0.0,0.0,0.0,0.0,0.0,0.0,0.0,0.9788,0.9788,0.9788,0.9788,0.9788,0.9788,0.9788,0.9788,0.9788,0.9788,0.9788,0.9788,0.9788,0.9788,0.9788,0.9788,0.9788,0.9788,0.9788,0.9788,0.9788,0.9788,0.9788,0.9788,0.9788,0.9788,0.9788,0.9788,0.991,0.9788,1.001,1.0733,1.1267,1.0611,1.0373,1.0701,1.1425,1.2155,1.227,1.2399,1.3332,1.332,1.3291,1.3291,1.3291,1.3291,1.3237,1.2376,1.2082,1.1624,1.0543,1.0107,0.9888,0.9182,0.8964,0.8909,0.8909,0.8916,0.8923,0.8919,0.8909,0.8933,0.8983,0.9072,0.9089,0.9315,0.8834,0.8506,0.817,0.8124,0.6938,0.6754,0.6324,0.6016,0.568,0.5343,0.4855,0.4304,0.3903,0.3553,0.3159,0.2707,0.1848,0.1048,0.1048,0.0863,0.0863,0.0,0.0,0.0,0.0,0.0,0.0,0.0,0.0,0.0,0.0,0.0,0.0,0.0,0.0,0.0,0.0,0.0,0.0,0.0,0.0,0.0,0.0,0.0,0.0,0.0,0.0,0.0,0.0,0.9788,0.9788,0.9788,0.9788,0.9788,0.9788,0.9788,0.9788,0.9788,0.9788,0.9788,0.9788,0.9788,0.9788,0.9788,0.9788,0.9788,0.9788,0.9788,0.9788,0.9788,0.9788,0.9788,0.9788,0.9788,0.9788,0.9788,0.9788,0.9788,0.9788,0.9899,0.9869,0.9697,0.9743,0.9695,0.9619,0.9993,1.0641,1.0919,1.113,1.2114,1.2035,1.1932,1.1859,1.1746,1.1701,1.146,1.0836,1.0511,1.0186,0.962,0.9075,0.8937,0.8909,0.8909,0.8909,0.8912,0.8926,0.8963,0.9001,0.9025,0.9106,0.9167,0.9243,0.9257,0.9039,0.81,0.744,0.6959,0.6141,0.4826,0.5286,0.4885,0.4577,0.424,0.3873,0.3107,0.2524,0.2185,0.1874,0.0,0.0,0.0,0.0,0.0,0.0,0.0,0.0,0.0,0.0,0.0,0.0,0.0,0.0,0.0,0.0,0.0,0.0,0.0,0.0,0.0,0.0,0.0,0.0,0.0,0.0,0.0,0.0,0.0,0.0,0.0,0.0,0.0,0.0,0.0,0.9788,0.9788,0.9788,0.9788,0.9788,0.9788,0.9788,0.9788,0.9788,0.9788,0.9788,0.9788,0.9788,0.9788,0.9788,0.9788,0.9788,0.9788,0.9788,0.9788,0.9788,0.9788,0.9788,0.9788,0.9788,0.9788,0.9788,0.9788,0.9788,0.9788,0.9788,0.9788,0.9761,0.9788,0.9765,0.9673,0.9638,0.964,0.965,0.982,0.9972,1.0016,0.9998,0.9989,0.9922,0.9989,0.9882,0.9726,0.948,0.931,0.9192,0.8912,0.8909,0.8909,0.8909,0.8909,0.8923,0.9018,0.9165,0.9207,0.9247,0.9181,0.9128,0.8904,0.8874,0.8148,0.6891,0.6043,0.5547,0.4943,0.4703,0.0,0.0,0.2984,0.2647,0.2339,0.1602,0.0,0.0,0.0,0.0,0.0,0.0,0.0,0.0,0.0,0.0,0.0,0.0,0.0,0.0,0.0,0.0,0.0,0.0,0.0,0.0,0.0,0.0,0.0,0.0,0.0,0.0,0.0,0.0,0.0,0.0,0.0,0.0,0.0,0.0,0.0,0.0,-0.1018,-0.1664,0.9788,0.9788,0.9788,0.9788,0.9788,0.9788,0.9788,0.9788,0.9788,0.9788,0.9788,0.9788,0.9788,0.9788,0.9788,0.9788,0.9788,0.9788,0.9788,0.9788,0.9788,0.9788,0.9788,0.9788,0.9788,0.9788,0.9788,0.9788,0.9788,0.9788,0.9788,0.9788,0.9788,0.9788,0.9781,0.9734,0.9721,0.9727,0.9648,0.956,0.9517,0.942,0.9332,0.9332,0.9242,0.9205,0.9191,0.9127,0.9079,0.9052,0.9011,0.8923,0.8916,0.8916,0.8919,0.8946,0.9011,0.9205,0.9371,0.9456,0.9418,0.9091,0.8557,0.8095,0.7722,0.6464,0.5354,0.4389,0.3796,0.2923,0.1879,0.0,0.0,0.0,0.0832,0.0771,0.0,0.0,0.0,0.0,0.0,0.0,0.0,0.0,0.0,0.0,0.0,0.0,0.0,0.0,0.0,0.0,0.0,0.0,0.0,0.0,0.0,0.0,0.0,0.0,0.0,0.0,0.0,0.0,0.0,0.0,0.0,0.0,0.0,0.0,0.0,0.0,0.0,-0.2033,-0.2677,0.9788,0.9788,0.9788,0.9788,0.9788,0.9788,0.9788,0.9788,0.9788,0.9788,0.9788,0.9788,0.9788,0.9788,0.9788,0.9788,0.9788,0.9788,0.9788,0.9788,0.9788,0.9788,0.9788,0.9788,0.9788,0.9788,0.9788,0.9788,0.9788,0.9788,0.9788,0.9788,0.9788,0.9788,0.9788,0.9781,0.9778,0.9751,0.968,0.965,0.9639,0.9554,0.9462,0.9442,0.9405,0.9393,0.9376,0.9322,0.9237,0.9179,0.9076,0.896,0.8946,0.896,0.8977,0.9055,0.9222,0.9133,0.8763,0.8692,0.8319,0.7544,0.7225,0.6947,0.6265,0.4914,0.3863,0.2889,0.2094,0.0,0.0,0.0,0.0,0.0,0.0,0.0,0.0,0.0,0.0,0.0,0.0,0.0,0.0,0.0,0.0,0.0,0.0,0.0,0.0,0.0,0.0,0.0,0.0,0.0,0.0,0.0,0.0,0.0,0.0,0.0,0.0,0.0,0.0,0.0,0.0,0.0,0.0,0.0,0.0,0.0,0.0,0.0,0.0,-0.3322,-0.4211,0.9788,0.9788,0.9788,0.9788,0.9788,0.9788,0.9788,0.9788,0.9788,0.9788,0.9788,0.9788,0.9788,0.9788,0.9788,0.9788,0.9788,0.9788,0.9788,0.9788,0.9788,0.9788,0.9788,0.9788,0.9788,0.9788,0.9788,0.9788,0.9788,0.9788,0.9788,0.9788,0.9788,0.9788,0.9788,0.9788,0.9788,0.9778,0.9768,0.9744,0.9714,0.968,0.9622,0.9588,0.9534,0.9483,0.9452,0.9412,0.9352,0.9277,0.9231,0.9086,0.9055,0.9121,0.9162,0.9131,0.9222,0.8382,0.738,0.7248,0.6446,0.5663,0.6172,0.5918,0.4908,0.3377,0.2369,0.1756,0.0,0.0,0.0,0.0,0.0,0.0,0.0,0.0,0.0,0.0,0.0,0.0,0.0,0.0,0.0,0.0,0.0,0.0,0.0,0.0,0.0,0.0,0.0,0.0,0.0,0.0,0.0,0.0,0.0,0.0,0.0,0.0,0.0,0.0,0.0,0.0,0.0,0.0,0.0,-0.148,0.0,-0.2772,-0.3506,-0.4027,-0.4424,-0.5464,-0.6444,0.9788,0.9788,0.9788,0.9788,0.9788,0.9788,0.9788,0.9788,0.9788,0.9788,0.9788,0.9788,0.9788,0.9788,0.9788,0.9788,0.9788,0.9788,0.9788,0.9788,0.9788,0.9788,0.9788,0.9788,0.9788,0.9788,0.9788,0.9788,0.9788,0.9788,0.9788,0.9788,0.9788,0.9788,0.9788,0.9788,0.9788,0.9788,0.9788,0.9788,0.9788,0.9764,0.9744,0.9713,0.9693,0.9652,0.9646,0.9574,0.9503,0.9499,0.939,0.9279,0.9308,0.9271,0.9106,0.7805,0.7598,0.7167,0.5877,0.5575,0.4916,0.3628,0.3812,0.3658,0.283,0.194,0.0,0.0,0.0,0.0,0.0,0.0,0.0,0.0,0.0,0.0,0.0,0.0,0.0,0.0,0.0,0.0,0.0,0.0,0.0,0.0,0.0,0.0,0.0,0.0,0.0,0.0,0.0,0.0,0.0,0.0,0.0,0.0,0.0,0.0,0.0,0.0,0.0,0.0,0.0,0.0,0.0,-0.2617,-0.3662,-0.455,-0.5284,-0.5802,-0.6414,-0.7271,-0.8005,0.9788,0.9788,0.9788,0.9788,0.9788,0.9788,0.9788,0.9788,0.9788,0.9788,0.9788,0.9788,0.9788,0.9788,0.9788,0.9788,0.9788,0.9788,0.9788,0.9788,0.9788,0.9788,0.9788,0.9788,0.9788,0.9788,0.9788,0.9788,0.9788,0.9788,0.9788,0.9788,0.9788,0.9788,0.9788,0.9788,0.9788,0.9788,0.9788,0.9788,0.9788,0.9788,0.9788,0.9788,0.9788,0.9788,0.9785,0.9683,0.9646,0.9625,0.9496,0.9435,0.9218,0.8868,0.7775,0.657,0.6181,0.542,0.4292,0.3931,0.3016,0.0,0.0,0.1541,0.1356,0.074,0.0,0.0,0.0,0.0,0.0,0.0,0.0,0.0,0.0,0.0,0.0,0.0,0.0,0.0,0.0,0.0,0.0,0.0,0.0,0.0,0.0,0.0,0.0,0.0,0.0,0.0,0.0,0.0,0.0,0.0,0.0,0.0,0.0,0.0,0.0,0.0,0.0,0.0,0.0,-0.2032,-0.3137,-0.4243,-0.5286,-0.6143,-0.6968,-0.7609,-0.8008,-0.8404,-0.9049,0.9788,0.9788,0.9788,0.9788,0.9788,0.9788,0.9788,0.9788,0.9788,0.9788,0.9788,0.9788,0.9788,0.9788,0.9788,0.9788,0.9788,0.9788,0.9788,0.9788,0.9788,0.9788,0.9788,0.9788,0.9788,0.9788,0.9788,0.9788,0.9788,0.9788,0.9788,0.9788,0.9788,0.9788,0.9788,0.9788,0.9788,0.9788,0.9788,0.9788,0.9788,0.9788,0.9788,0.9788,0.9788,0.9788,0.9788,0.9761,0.9697,0.9523,0.9341,0.9193,0.8316,0.7611,0.6239,0.5244,0.4714,0.3741,0.2798,0.2309,0.1602,0.0,0.0,0.0,0.0,0.0,0.0,0.0,0.0,0.0,0.0,0.0,0.0,0.0,0.0,0.0,0.0,0.0,0.0,0.0,0.0,0.0,0.0,0.0,0.0,0.0,0.0,0.0,0.0,0.0,0.0,0.0,0.0,0.0,0.0,0.0,0.0,0.0,0.0,0.0,0.0,0.0,0.0,-0.1848,-0.2708,-0.3658,-0.4732,-0.5684,-0.6604,-0.7579,-0.8407,-0.9329,-0.9667,-0.9511,-0.9572,0.9788,0.9788,0.9788,0.9788,0.9788,0.9788,0.9788,0.9788,0.9788,0.9788,0.9788,0.9788,0.9788,0.9788,0.9788,0.9788,0.9788,0.9788,0.9788,0.9788,0.9788,0.9788,0.9788,0.9788,0.9788,0.9788,0.9788,0.9788,0.9788,0.9788,0.9788,0.9788,0.9788,0.9788,0.9788,0.9788,0.9788,0.9788,0.9788,0.9788,0.9788,0.9788,0.9788,0.9788,0.9788,0.9788,0.9788,0.969,0.8973,0.8239,0.7994,0.7216,0.6021,0.561,0.4621,0.3442,0.3046,0.2217,0.0,0.0,0.0,0.0,0.0,0.0,0.0,0.0,0.0,0.0,0.0,0.0,0.0,0.0,0.0,0.0,0.0,0.0,0.0,0.0,0.0,0.0,0.0,0.0,0.0,0.0,0.0,0.0,0.0,0.0,0.0,0.0,0.0,0.0,0.0,0.0,0.0,0.0,0.0,-0.114,0.0,0.0,-0.3291,-0.3137,-0.2923,-0.369,-0.4518,-0.5376,-0.611,-0.6726,-0.7706,-0.8653,-0.9113,-0.9667,-0.9788,-0.9667,-0.9727,0.9788,0.9788,0.9788,0.9788,0.9788,0.9788,0.9788,0.9788,0.9788,0.9788,0.9788,0.9788,0.9788,0.9788,0.9788,0.9788,0.9788,0.9788,0.9788,0.9788,0.9788,0.9788,0.9788,0.9788,0.9788,0.9788,0.9788,0.9788,0.9667,0.9788,0.9788,0.9667,0.9667,0.9636,0.9667,0.9727,0.9667,0.9788,0.9697,0.9667,0.9667,0.9727,0.9788,0.9788,0.9758,0.9727,0.9481,0.9265,0.8249,0.7268,0.6806,0.5429,0.4384,0.3897,0.2982,0.1909,0.1295,0.0,0.0,0.0,0.0,0.0,0.0,0.0,0.0,0.0,0.0,0.0,0.0,0.0,0.0,0.0,0.0,0.0,0.0,0.0,0.0,0.0,0.0,0.0,0.0,0.0,0.0,0.0,0.0,0.0,0.0,0.0,0.0,0.0,0.0,-0.074,-0.0709,0.0,0.0,0.0,0.0,-0.1509,-0.2861,-0.3382,-0.409,-0.4518,-0.4885,-0.5588,-0.623,-0.6905,-0.7581,-0.8044,-0.8504,-0.9299,-0.9572,-0.9788,-0.9788,-0.9788,-0.9788,0.9788,0.9788,0.9788,0.9788,0.9788,0.9788,0.9788,0.9788,0.9788,0.9788,0.9788,0.9788,0.9788,0.9788,0.9788,0.9788,0.9788,0.9788,0.9788,0.9788,0.9788,0.9788,0.9788,0.9788,0.9788,0.9788,0.9788,0.9481,0.9204,0.9174,0.9113,0.9268,0.9177,0.9113,0.9174,0.9143,0.8806,0.8897,0.893,0.9086,0.9299,0.9545,0.9542,0.9572,0.939,0.9326,0.8894,0.816,0.724,0.5984,0.4853,0.3505,0.2647,0.2124,0.154,0.0,0.0,0.0,0.0,0.0,0.0,0.0,0.0,0.0,0.0,0.0,0.0,0.0,0.0,0.0,0.0,0.0,0.0,0.0,0.0,0.0,0.0,0.0,0.0,0.0,0.0,0.0,0.0,0.0,0.0,0.0,0.0,0.0,0.0,0.0,0.0,-0.1694,-0.1971,0.0,0.0,0.0,0.0,-0.3262,-0.458,-0.4703,-0.51,-0.6232,-0.7027,-0.7393,-0.8036,-0.8343,-0.8745,-0.9177,-0.9667,-0.9758,-0.9788,-0.9788,-0.9788,-0.9788,-0.9788,0.9788,0.9788,0.9788,0.9788,0.9788,0.9788,0.9788,0.9788,0.9788,0.9788,0.9788,0.9788,0.9788,0.9788,0.9788,0.9788,0.9788,0.9788,0.9788,0.9788,0.9788,0.9788,0.9788,0.9788,0.9788,0.9636,0.939,0.8958,0.8069,0.7789,0.7207,0.6294,0.6112,0.6049,0.602,0.6232,0.6813,0.7179,0.7029,0.6785,0.764,0.8066,0.8742,0.8282,0.7243,0.724,0.6966,0.6171,0.4824,0.3353,0.0,0.0,0.0,0.0,0.0,0.0,0.0,0.0,0.0,0.0,0.0,0.0,0.0,0.0,0.0,0.0,0.0,0.0,0.0,0.0,0.0,0.0,0.0,0.0,0.0,0.0,0.0,0.0,0.0,0.0,0.0,0.0,0.0,0.0,0.0,0.0,0.0,0.0,0.0,0.0,-0.2094,-0.283,-0.3383,0.0,0.0,0.0,-0.4028,-0.5379,-0.6423,-0.6757,-0.7459,-0.8623,-0.9268,-0.8863,-0.9019,-0.9295,-0.9758,-0.9788,-0.9788,-0.9788,-0.9788,-0.9788,-0.9788,-0.9788,-0.9788]},{"header":{"parameterUnit":"m.s-1","parameterCategory":1,"la1":31.0,"la2":29.5877,"lo1":-88.7671,"lo2":-86.6584,"dy":0.0162,"dx":0.0185,"nx":115,"ny":88,"refTime":"2024-06-19T12:00:00:Z","depth":0,"parameterNumber":3,"parameterNumberName":"V-component_of_WINDS"},"data":[0.0,0.0,0.0,0.0,0.0,0.0,0.0,0.0,0.0,0.0,0.0,0.0,0.0,0.0,0.0,0.0,0.0,0.0,0.0,0.0,0.0,0.0,0.0,0.0,0.0,0.0,0.0,0.0,0.0,0.0,0.0,0.0,0.0,0.0,0.0,0.0,0.0,0.0,0.0,0.0,0.0,0.0,0.0,0.0,0.0,0.0,0.0,0.0,0.0,0.0,0.0,0.0,0.0,0.0,0.0,0.0,0.0,0.0,0.0,0.0,0.0,0.0,0.0,0.0,0.0,0.0,0.0,0.0,0.0,0.0,0.0,0.0,0.0,0.0,0.0,0.0,0.0,0.0,0.0,0.0,0.0,0.0,0.0,0.0,0.0,0.0,0.0,0.0,0.0,0.0,0.0,0.0,0.0,0.0,0.0,0.0,0.0,0.0,0.0,0.0,0.0,0.0,0.0,0.0,0.0,0.0,0.0,0.0,0.0,0.0,0.0,0.0,0.0,0.0,0.0,0.0,0.0,0.0,0.0,0.0,0.0,0.0,0.0,0.0,0.0,0.0,0.0,0.0,0.0,0.0,0.0,0.0,0.0,0.0,0.0,0.0,0.0,0.0,0.0,0.0,0.0,0.0,0.0,0.0,0.0,0.0,0.0,0.0,0.0,0.0,0.0,0.0,0.0,0.0,0.0,0.0,0.0,0.0,0.0,0.0,0.0,0.0,0.0,0.0,0.0,0.0,0.0,0.0,0.0,0.0,0.0,0.0,0.0,0.0,0.0,0.0,0.0,0.0,0.0,0.0,0.0,0.0,0.0,0.0,0.0,0.0,0.0,0.0,0.0,0.0,0.0,0.0,0.0,0.0,0.0,0.0,0.0,0.0,0.0,0.0,0.0,0.0,0.0,0.0,0.0,0.0,0.0,0.0,0.0,0.0,0.0,0.0,0.0,0.0,0.0,0.0,0.0,0.0,0.0,0.0,0.0,0.0,0.0,0.0,0.0,0.0,0.0,0.0,0.0,0.0,0.0,0.0,0.0,0.0,0.0,0.0,0.0,0.0,0.0,0.0,0.0,0.0,0.0,0.0,0.0,0.0,0.0,0.0,0.0,0.0,0.0,0.0,0.0,0.0,0.0,0.0,0.0,0.0,0.0,0.0,0.0,0.0,0.0,0.0,0.0,0.0,0.0,0.0,0.0,0.0,0.0,0.0,0.0,0.0,0.0,0.0,0.0,0.0,0.0,0.0,0.0,0.0,0.0,0.0,0.0,0.0,0.0,0.0,0.0,0.0,0.0,0.0,0.0,0.0,0.0,0.0,0.0,0.0,0.0,0.0,0.0,0.0,0.0,0.0,0.0,0.0,0.0,0.0,0.0,0.0,0.0,0.0,0.0,0.0,0.0,0.0,0.0,0.0,0.0,0.0,0.0,0.0,0.0,0.0,0.0,0.0,0.0,0.0,0.0,0.0,0.0,0.0,0.0,0.0,0.0,0.0,0.0,0.0,0.0,0.0,0.0,0.0,0.0,0.0,0.0,0.0,0.0,0.0,0.0,0.0,0.0,0.0,0.0,0.0,0.0,0.0,0.0,0.0,0.0,0.0,0.0,0.0,0.0,0.0,0.0,0.0,0.0,0.0,0.0,0.0,0.0,0.0,0.0,0.0,0.0,0.0,0.0,0.0,0.0,0.0,0.0,0.0,0.0,0.0,0.0,0.0,0.0,0.0,0.0,0.0,0.0,0.0,0.0,0.0,0.0,0.0,0.0,0.0,0.0,0.0,0.0,0.0,0.0,0.0,0.0,0.0,0.0,0.0,0.0,0.0,0.0,0.0,0.0,0.0,0.0,0.0,0.0,0.0,0.0,0.0,0.0,0.0,0.0,0.0,0.0,0.0,0.0,0.0,0.0,0.0,0.0,0.0,0.0,0.0,0.0,0.0,0.0,0.0,0.0,0.0,0.0,0.0,0.0,0.0,0.0,0.0,0.0,0.0,0.0,0.0,0.0,0.0,0.0,0.0,0.0,0.0,0.0,0.0,0.0,0.0,0.0,0.0,0.0,0.0,0.0,0.0,0.0,0.0,0.0,0.0,0.0,0.0,0.0,0.0,0.0,0.0,0.0,0.0,0.0,0.0,0.0,0.0,0.0,0.0,0.0,0.0,0.0,0.0,0.0,0.0,0.0,0.0,0.0,0.0,0.0,0.0,0.0,0.0,0.0,0.0,0.0,0.0,0.0,0.0,0.0,0.0,0.0,0.0,0.0,0.0,0.0,0.0,0.0,0.0,0.0,0.0,0.0,0.0,0.0,0.0,0.0,0.0,0.0,0.0,0.0,0.0,0.0,0.0,0.0,0.0,0.0,0.0,0.0,0.0,0.0,0.0,0.0,0.0,0.0,0.0,0.0,0.0,0.0,0.0,0.0,0.0,0.0,0.0,0.0,0.0,0.0,0.0,0.0,0.0,0.0,0.0,0.0,0.0,0.0,0.0,0.0,0.0,0.0,0.0,0.0,0.0,0.0,0.0,0.0,0.0,0.0,0.0,0.0,0.0,0.0,0.0,0.0,0.0,0.0,0.0,0.0,0.0,0.0,0.0,0.0,0.0,0.0,0.0,0.0,0.0,0.0,0.0,0.0,0.0,0.0,0.0,0.0,0.0,0.0,0.0,0.0,0.0,0.0,0.0,0.0,0.0,0.0,0.0,0.0,0.0,0.0,0.0,0.0,0.0,0.0,0.0,0.0,0.0,0.0,0.0,0.0,0.0,0.0,0.0,0.0,0.0,0.0,0.0,0.0,0.0,0.0,0.0,0.0,0.0,0.0,0.0,0.0,0.0,0.0,0.0,0.0,0.0,0.0,0.0,0.0,0.0,0.0,0.0,0.0,0.0,0.0,0.0,0.0,0.0,0.0,0.0,0.0,0.0,0.0,0.0,0.0,0.0,0.0,0.0,0.0,0.0,0.0,0.0,0.0,0.0,0.0,0.0,0.0,0.0,0.0,0.0,0.0,0.0,0.0,0.0,0.0,0.0,0.0,0.0,0.0,0.0,0.0,0.0,0.0,0.0,0.0,0.0,0.0,0.0,0.0,0.0,0.0,0.0,0.0,0.0,0.0,0.0,0.0,0.0,0.0,0.0,0.0,0.0,0.0,0.0,0.0,0.0,0.0,0.0,0.0,0.0,0.0,0.0,0.0,0.0,0.0,0.0,0.0,0.0,0.0,0.0,0.0,0.0,0.0,0.0,0.0,0.0,0.0,0.0,0.0,0.0,0.0,0.0,0.0,0.0,0.0,0.0,0.0,0.0,0.0,0.0,0.0,0.0,0.0,0.0,0.0,0.0,0.0,0.0,0.0,0.0,0.0,0.0,0.0,0.0,0.0,0.0,0.0,0.0,0.0,0.0,0.0,0.0,0.0,0.0,0.0,0.0,0.0,0.0,0.0,0.0,0.0,0.0,0.0,0.0,0.0,0.0,0.0,0.0,0.0,0.0,0.0,0.0,0.0,0.0,0.0,0.0,0.0,0.0,0.0,0.0,0.0,0.0,0.0,0.0,0.0,0.0,0.0,0.0,0.0,0.0,0.0,0.0,0.0,0.0,0.0,0.0,0.0,0.0,0.0,0.0,0.0,0.0,0.0,0.0,0.0,0.0,0.0,0.0,0.0,0.0,0.0,0.0,0.0,0.0,0.0,0.0,0.0,0.0,0.0,0.0,0.0,0.0,0.0,0.0,0.0,0.0,0.0,0.0,0.0,0.0,0.0,0.0,0.0,0.0,0.0,0.0,0.0,0.0,0.0,0.0,0.0,0.0,0.0,0.0,0.0,0.0,0.0,0.0,0.0,0.0,0.0,0.0,0.0,0.0,0.0,0.0,0.0,0.0,0.0,0.0,0.0,0.0,0.0,0.0,0.0,0.0,0.0,0.0,0.0,0.0,0.0,0.0,0.0,0.0,0.0,0.0,0.0,0.0,0.0,0.0,0.0,0.0,0.0,0.0,0.0,0.0,0.0,0.0,0.0,0.0,0.0,0.0,0.0,0.0,0.0,0.0,0.0,0.0,0.0,0.0,0.0,0.0,0.0,0.0,0.0,0.0,0.0,0.0,0.0,0.0,0.0,0.0,0.0,0.0,0.0,0.0,0.0,0.0,0.0,0.0,0.0,0.0,0.0,0.0,0.0,0.0,0.0,0.0,0.0,0.0,0.0,0.0,0.0,0.0,0.0,0.0,0.0,0.0,0.0,0.0,0.0,0.0,0.0,0.0,0.0,0.0,0.0,0.0,0.0,0.0,0.6607,0.0,0.0,0.0,0.0,0.0,0.0,0.0,0.0,0.0,0.0,0.0,0.0,0.0,0.0,0.0,0.0,0.0,0.0,0.0,0.0,0.0,0.0,0.0,0.0,0.0,0.0,0.0,0.0,0.0,0.0,0.0,0.0,0.0,0.0,0.0,0.0,0.0,0.0,0.0,0.0,0.0,0.0,0.0,0.0,0.0,0.0,0.0,0.0,0.0,0.0,0.0,0.0,0.0,0.0,0.0,0.0,0.0,0.0,0.0,0.0,0.0,0.0,0.0,0.0,0.0,0.0,0.0,0.0,0.0,0.0,0.0,0.0,0.0,0.0,0.0,0.0,0.0,0.0,0.0,0.0,0.0,0.0,0.0,0.0,0.0,0.0,0.0,0.0,0.0,0.0,0.0,0.0,0.0,0.0,0.0,0.0,0.0,0.0,0.0,0.0,0.0,0.0,0.0,0.0,0.0,0.0,0.0,0.0,0.0,0.0,0.659,0.659,0.659,0.659,0.6603,0.0,0.0,0.0,0.0,0.0,0.0,0.0,0.0,0.0,0.0,0.0,0.0,0.0,0.0,0.0,0.0,0.0,0.0,0.0,0.0,0.0,0.0,0.0,0.0,0.0,0.0,0.0,0.0,0.0,0.0,0.0,0.0,0.0,0.0,0.0,0.0,0.0,0.0,0.0,0.0,0.0,0.0,0.0,0.0,0.0,0.0,0.0,0.0,0.0,0.0,0.0,0.0,0.0,0.0,0.0,0.0,0.0,0.0,0.0,0.0,0.0,0.0,0.0,0.0,0.0,0.0,0.0,0.0,0.0,0.0,0.0,0.0,0.0,0.0,0.0,0.0,0.0,0.0,0.0,0.0,0.0,0.0,0.0,0.0,0.0,0.0,0.0,0.0,0.0,0.0,0.0,0.0,0.0,0.0,0.0,0.0,0.0,0.0,0.0,0.0,0.0,0.0,0.0,0.0,0.0,0.0,0.0,0.0,0.0,0.0,0.0,0.0,0.6979,0.7104,0.7365,0.0,0.0,0.0,0.0,0.0,0.0,0.0,0.0,0.0,0.0,0.0,0.0,0.0,0.0,0.0,0.0,0.0,0.0,0.0,0.0,0.0,0.0,0.0,0.0,0.0,0.0,0.0,0.0,0.0,0.0,0.0,0.0,0.0,0.0,0.0,0.0,0.0,0.0,0.0,0.0,0.0,0.0,0.0,0.0,0.0,0.0,0.0,0.0,0.0,0.0,0.0,0.0,0.0,0.0,0.0,0.0,0.0,0.0,0.0,0.0,0.0,0.0,0.0,0.0,0.0,0.0,0.0,0.0,0.0,0.0,0.0,0.0,0.0,0.0,0.0,0.0,0.0,0.0,0.0,0.0,0.0,0.0,0.0,0.0,0.0,0.0,0.0,0.0,0.0,0.0,0.0,0.0,0.0,0.0,0.0,0.0,0.0,0.0,0.0,0.0,0.0,0.0,0.0,0.0,0.0,0.0,0.0,0.0,0.0,0.0,0.7092,0.8117,0.813,0.0,0.9523,0.0,0.0,0.0,0.0,0.0,0.0,0.0,0.0,0.0,0.0,0.0,0.0,0.0,0.0,0.0,0.0,0.0,0.0,0.0,0.0,0.0,0.0,0.0,0.0,0.0,0.0,0.0,0.0,0.0,0.0,0.0,0.0,0.0,0.0,0.0,0.0,0.0,0.0,0.0,0.0,0.0,0.0,0.0,0.0,0.0,0.0,0.0,0.0,0.0,0.0,0.0,0.0,0.0,0.0,0.0,0.0,0.0,0.0,0.0,0.0,0.0,0.0,0.0,0.0,0.0,0.0,0.0,0.0,0.0,0.0,0.0,0.0,0.0,0.0,0.0,0.0,0.0,0.0,0.0,0.0,0.0,0.0,0.0,0.0,0.0,0.0,0.0,0.0,0.0,0.0,0.0,0.0,0.0,0.0,0.0,0.0,0.0,0.0,0.0,0.0,0.0,0.0,0.0,0.0,0.0,0.0,0.0,0.0,0.0,0.0,0.7829,0.8298,0.8298,0.8668,0.0,0.0,0.0,0.0,0.0,0.0,0.0,0.0,0.0,0.0,0.0,0.0,0.0,0.0,0.0,0.0,0.0,0.0,0.0,0.0,0.0,0.0,0.0,0.0,0.0,0.0,0.0,0.0,0.0,0.0,0.0,0.0,0.0,0.0,0.0,0.0,0.0,0.0,0.0,0.0,0.0,0.0,0.0,0.0,0.0,0.0,0.0,0.0,0.0,0.0,0.0,0.0,0.0,0.0,0.0,0.0,0.0,0.0,0.0,0.0,0.0,0.0,0.0,0.0,0.0,0.0,0.0,0.0,0.0,0.0,0.0,0.0,0.0,0.0,0.0,0.0,0.0,0.0,0.0,0.0,0.0,0.0,0.0,0.0,0.0,0.0,0.0,0.0,0.0,0.0,0.0,0.0,0.0,0.0,0.0,0.0,0.0,0.0,0.0,0.0,0.0,0.0,0.0,0.0,0.0,0.0,0.0,0.0,0.0,0.0,0.8024,0.8438,0.872,0.8732,0.8851,0.9095,0.0,0.0,0.0,0.0,0.0,0.0,0.0,0.0,0.0,0.0,0.0,0.0,0.0,0.0,0.0,0.0,0.0,0.0,0.0,0.0,0.0,0.0,0.0,0.0,0.0,0.0,0.0,0.0,0.0,0.0,0.0,0.0,0.0,0.0,0.0,0.0,0.0,0.0,0.0,0.0,0.0,0.0,0.0,0.0,0.0,0.0,0.0,0.0,0.0,0.0,0.0,0.0,0.0,0.0,0.0,0.0,0.0,0.0,0.0,0.0,0.0,0.0,0.0,0.0,0.0,0.0,0.0,0.0,0.0,0.0,0.0,0.0,0.0,0.0,0.0,0.0,0.0,0.0,0.0,0.0,0.0,0.0,0.0,0.0,0.0,0.0,0.0,0.0,0.0,0.0,0.0,0.0,0.0,0.0,0.0,0.0,0.0,0.0,0.0,0.0,0.0,0.0,0.0,0.0,0.0,0.0,0.0,0.0,0.0,0.8782,0.8806,0.9786,0.9824,0.9617,0.0,0.0,0.0,0.0,0.0,0.0,0.0,0.0,0.0,0.0,0.0,0.0,0.0,0.0,0.0,0.0,0.0,0.0,0.0,0.0,0.0,0.0,0.0,0.0,0.0,0.0,0.0,0.0,0.0,0.0,0.0,0.0,0.0,0.0,0.0,0.0,0.0,0.0,0.0,0.0,0.0,0.0,0.0,0.0,0.0,0.0,0.0,0.0,0.0,0.0,0.0,0.0,0.0,0.0,0.0,0.0,0.0,0.0,0.0,0.0,0.0,0.0,0.0,0.0,0.0,0.0,0.0,0.0,0.0,0.0,0.0,0.0,0.0,0.0,0.0,0.0,0.0,0.0,0.0,0.0,0.0,0.0,0.0,0.0,0.0,0.0,0.0,0.0,0.0,0.0,0.0,0.0,0.0,0.0,0.0,0.0,0.0,0.0,0.0,0.0,0.0,0.0,0.0,0.0,0.0,0.0,0.0,0.0,0.0,0.7766,0.8117,0.9159,1.0854,0.9635,0.9102,0.0,0.0,0.0,0.0,0.0,0.0,0.0,0.0,0.0,0.0,0.0,0.0,0.0,0.0,0.0,0.0,0.0,0.0,0.0,0.0,0.0,0.0,0.0,0.0,0.0,0.0,0.0,0.0,0.0,0.0,0.0,0.0,0.0,0.0,0.0,0.0,0.0,0.0,0.0,0.0,0.0,0.0,0.0,0.0,0.0,0.0,0.0,0.0,0.0,0.0,0.0,0.0,0.0,0.0,0.0,0.0,0.0,0.0,0.0,0.0,0.0,0.0,0.0,0.0,0.0,0.0,0.0,0.0,0.0,0.0,0.0,0.0,0.0,0.0,0.0,0.0,0.0,0.0,0.0,0.0,0.0,0.0,0.0,0.0,0.0,0.0,0.0,0.0,0.0,0.0,0.0,0.0,0.0,0.0,0.0,0.0,0.0,0.0,0.0,0.0,0.0,0.0,0.0,0.0,0.0,0.0,0.0,0.0,0.0,0.7673,0.0,0.9924,0.0,0.9604,0.882,0.0,0.0,0.0,0.0,0.0,0.0,0.0,0.0,0.0,0.0,0.0,0.0,0.0,0.0,0.0,0.0,0.0,0.0,0.0,0.0,0.0,0.0,0.0,0.0,0.0,0.0,0.0,0.0,0.0,0.0,0.0,0.0,0.0,0.0,0.0,0.0,0.0,0.0,0.0,0.0,0.0,0.0,0.0,0.0,0.0,0.0,0.0,0.0,0.0,0.0,0.0,0.0,0.0,0.0,0.0,0.0,0.0,0.0,0.0,0.0,0.0,0.0,0.0,0.0,0.0,0.0,0.0,0.0,0.0,0.0,0.0,0.0,0.0,0.0,0.0,0.0,0.0,0.0,0.0,0.0,0.0,0.0,0.0,0.0,0.0,0.0,0.0,0.0,0.0,0.0,0.0,0.0,0.0,0.0,0.0,0.0,0.0,0.0,0.0,0.0,0.0,0.0,0.0,0.0,0.0,0.0,0.0,0.0,0.7718,0.9774,1.0917,1.0992,1.0,0.9893,0.887,0.0,0.0,0.0,0.0,0.0,0.0,0.0,0.0,0.0,0.0,0.0,0.0,0.0,0.0,0.0,0.0,0.0,0.0,0.0,0.0,0.0,0.0,0.0,0.0,0.0,0.0,0.0,0.0,0.0,0.0,0.0,0.0,0.0,0.0,0.0,0.0,0.0,0.0,0.0,0.0,0.0,0.0,0.0,0.0,0.0,0.0,0.0,0.0,0.0,0.0,0.0,0.0,0.0,0.0,0.0,0.0,0.0,0.0,0.0,0.0,0.0,0.0,0.0,0.0,0.0,0.0,0.0,0.0,0.0,0.0,0.0,0.0,0.0,0.0,0.0,0.0,0.0,0.0,0.0,0.0,0.0,0.0,0.0,0.0,0.0,0.0,0.0,0.0,0.0,0.0,0.0,0.0,0.0,0.0,0.0,0.0,0.0,0.0,0.0,0.0,0.0,0.0,0.0,0.0,0.0,0.0,0.0,0.0,0.0,0.9366,1.0413,1.1191,1.1543,1.0138,0.956,0.0,0.0,0.0,0.0,0.0,0.0,0.0,0.0,0.0,0.0,0.0,0.0,0.0,0.0,0.0,0.0,0.0,0.0,0.0,0.0,0.0,0.0,0.0,0.0,0.0,0.0,0.0,0.0,0.0,0.0,0.0,0.0,0.0,0.0,0.0,0.0,0.0,0.0,0.0,0.0,0.0,0.0,0.0,0.0,0.0,0.0,0.0,0.0,0.0,0.0,0.0,0.0,0.0,0.0,0.0,0.0,0.0,0.0,0.0,0.0,0.0,0.0,0.0,0.0,0.0,0.0,0.0,0.0,0.0,0.0,0.0,0.0,0.0,0.0,0.0,0.0,0.0,0.0,0.0,0.0,0.0,0.0,0.0,0.0,0.0,0.0,0.0,0.0,0.0,0.0,0.0,0.0,0.0,0.0,0.0,0.0,0.0,0.0,0.0,0.0,0.0,0.0,0.0,0.0,0.0,0.0,0.0,0.0,0.0,1.1366,1.2126,1.2613,1.2689,1.1154,1.0421,1.0603,0.0,0.0,0.0,0.0,0.0,0.0,0.0,0.0,0.0,0.0,0.0,0.0,0.0,0.0,0.0,0.0,0.0,0.0,0.0,0.0,0.0,0.0,0.0,0.0,0.0,0.0,0.0,0.0,0.0,0.0,0.0,0.0,0.0,0.0,0.0,0.0,0.0,0.0,0.0,0.0,0.0,0.0,0.0,0.0,0.0,0.0,0.0,0.0,0.0,0.0,0.0,0.0,0.0,0.0,0.0,0.0,0.0,0.0,0.0,0.0,0.0,0.0,0.0,0.0,0.0,0.0,0.0,0.0,0.0,0.0,0.0,0.0,0.0,0.0,0.0,0.0,0.0,0.0,0.0,0.0,0.0,0.0,0.0,0.0,0.0,0.0,0.0,0.0,0.0,0.0,0.0,0.0,0.0,0.0,0.0,0.0,0.0,0.0,0.0,0.0,0.0,0.0,0.0,0.0,0.0,0.0,0.0,0.0,1.5099,1.5614,1.5142,1.3656,1.2906,1.1572,0.0,0.0,0.0,0.0,0.0,0.0,0.0,0.0,0.0,0.0,0.0,0.0,0.0,0.0,0.0,0.0,0.0,0.0,0.0,0.0,0.0,0.0,0.0,0.0,0.0,0.0,0.0,0.0,0.0,0.0,0.0,0.0,0.0,0.0,0.0,0.0,0.0,0.0,0.0,0.0,0.0,0.0,0.0,0.0,0.0,0.0,0.0,0.0,0.0,0.0,0.0,0.0,0.0,0.0,0.0,0.0,0.0,0.0,0.0,0.0,0.0,0.0,0.0,0.0,0.0,0.0,0.0,0.0,0.0,0.0,0.0,0.0,0.0,0.0,0.0,0.0,0.0,0.0,0.0,0.0,0.0,0.0,0.0,0.0,0.0,0.0,0.0,0.0,0.0,0.0,0.0,0.0,0.0,0.0,0.0,0.0,0.0,0.0,0.0,0.0,0.0,0.0,0.0,0.0,0.0,0.0,0.0,0.0,0.0,1.6573,1.7621,1.7989,1.7655,1.5506,1.4045,0.0,0.0,0.0,0.0,0.0,0.0,0.0,0.0,0.0,0.0,0.0,0.0,0.0,0.0,0.0,0.0,0.0,0.0,0.0,0.0,0.0,0.0,0.0,0.0,0.0,0.0,0.0,0.0,0.0,0.0,0.0,0.0,0.0,0.0,0.0,0.0,0.0,0.0,0.0,0.0,0.0,0.0,0.0,0.0,0.0,0.0,0.0,0.0,0.0,0.0,0.0,0.0,0.0,0.0,0.0,0.0,0.0,0.0,0.0,0.0,0.0,0.0,0.0,0.0,0.0,0.0,0.0,0.0,0.0,0.0,0.0,0.0,0.0,0.0,0.0,0.0,0.0,0.0,0.0,0.0,0.0,0.0,0.0,0.0,0.0,0.0,0.0,0.0,0.0,0.0,0.0,0.0,0.0,0.0,0.0,0.0,0.0,0.0,0.0,0.0,0.0,0.0,0.0,0.0,0.0,0.0,0.0,0.0,1.6492,1.8395,2.0063,2.1007,2.1105,1.7767,1.5748,0.0,0.0,0.0,0.0,0.0,0.0,0.0,0.0,0.0,0.0,0.0,0.0,0.0,0.0,0.0,0.0,0.0,0.0,0.0,0.0,0.0,0.0,0.0,0.0,0.0,0.0,0.0,0.0,0.0,0.0,0.0,0.0,0.0,0.0,0.0,0.0,0.0,0.0,0.0,0.0,0.0,0.0,0.0,0.0,0.0,0.0,0.0,0.0,0.0,0.0,0.0,0.0,0.0,0.0,0.0,0.0,0.0,0.0,0.0,0.0,0.0,0.0,0.0,0.0,0.0,0.0,0.0,0.0,0.0,0.0,0.0,0.0,0.0,0.0,0.0,0.0,0.0,0.0,0.0,0.0,0.0,0.0,0.0,0.0,0.0,0.0,0.0,0.0,0.0,0.0,0.0,0.0,0.0,0.0,0.0,0.0,0.0,0.0,0.0,0.0,0.0,0.0,0.0,0.0,0.0,0.0,0.0,0.0,1.8498,2.0132,2.2283,2.3417,2.339,1.9663,1.7062,0.0,0.0,0.0,0.0,0.0,0.0,0.0,0.0,0.0,0.0,0.0,0.0,0.0,0.0,0.0,0.0,0.0,0.0,0.0,0.0,0.0,0.0,0.0,0.0,0.0,0.0,0.0,0.0,0.0,0.0,0.0,0.0,0.0,0.0,0.0,0.0,0.0,0.0,0.0,0.0,0.0,0.0,0.0,0.0,0.0,0.0,0.0,0.0,0.0,0.0,0.0,0.0,0.0,0.0,0.0,0.0,0.0,0.0,0.0,0.0,0.0,0.0,0.0,0.0,0.0,0.0,0.0,0.0,0.0,0.0,0.0,0.0,0.0,0.0,0.0,0.0,0.0,0.0,0.0,0.0,0.0,0.0,0.0,0.0,0.0,0.0,0.0,0.0,0.0,0.0,0.0,0.0,0.0,0.0,0.0,0.0,0.0,0.0,0.0,0.0,0.0,0.0,0.0,0.0,0.0,0.0,0.0,0.0,1.893,2.0543,2.1574,2.234,2.2875,2.0694,1.8922,0.0,0.0,0.0,0.0,0.0,0.0,0.0,0.0,0.0,0.0,0.0,0.0,0.0,0.0,0.0,0.0,0.0,0.0,0.0,0.0,0.0,0.0,0.0,0.0,0.0,0.0,0.0,0.0,0.0,0.0,0.0,0.0,0.0,0.0,0.0,0.0,0.0,0.0,0.0,0.0,0.0,0.0,0.0,0.0,0.0,0.0,0.0,0.0,1.5639,0.0,0.0,0.0,0.0,0.0,0.0,0.0,0.0,0.0,0.0,0.0,0.0,0.0,0.0,0.0,0.0,0.0,0.0,0.0,0.0,0.0,0.0,0.0,0.0,0.0,0.0,0.0,0.0,0.0,0.0,0.0,0.0,0.0,0.0,0.0,0.0,0.0,0.0,0.0,0.0,0.0,0.0,0.0,0.0,0.0,0.0,0.0,0.0,0.0,0.0,0.0,0.0,0.0,0.0,0.0,0.0,0.0,0.0,0.0,1.9943,2.1597,2.2261,2.2767,2.3065,2.1942,2.0557,0.0,0.0,0.0,0.0,0.0,0.0,0.0,0.0,0.0,0.0,0.0,0.0,0.0,0.0,0.0,0.0,0.0,0.0,0.0,0.0,0.0,0.0,0.0,0.0,0.0,0.0,0.0,0.0,0.0,0.0,0.0,0.0,0.0,0.0,0.0,0.0,0.0,0.0,0.0,0.0,0.0,0.0,0.0,0.0,0.0,0.0,0.0,0.0,0.0,0.0,0.0,0.0,0.0,0.0,0.0,0.0,0.0,0.0,0.0,0.0,0.0,0.0,0.0,0.0,0.0,0.0,0.0,0.0,0.0,0.0,0.0,0.0,0.0,0.0,0.0,0.0,0.0,0.0,0.0,0.0,0.0,0.0,0.0,0.0,0.0,0.0,0.0,0.0,0.0,0.0,0.0,0.0,0.0,0.0,0.0,0.0,0.0,0.0,0.0,0.0,0.0,0.0,0.0,0.0,0.0,0.0,0.0,1.8815,2.0946,2.2767,2.3336,2.3584,2.3595,2.3007,2.1759,1.9744,0.0,0.0,0.0,0.0,0.0,0.0,0.0,0.0,0.0,0.0,0.0,0.0,0.0,0.0,0.0,0.0,0.0,0.0,0.0,0.0,0.0,0.0,0.0,0.0,0.0,0.0,0.0,0.0,0.0,0.0,0.0,0.0,0.0,0.0,0.0,0.0,0.0,0.0,1.3375,1.5856,0.0,0.0,0.0,0.0,0.0,0.0,0.0,0.0,1.5511,0.0,0.0,0.0,0.0,0.0,0.0,0.0,0.0,0.0,0.0,0.0,0.0,0.0,0.0,0.0,0.0,0.0,0.0,0.0,0.0,0.0,0.0,0.0,0.0,0.0,0.0,0.0,0.0,0.0,0.0,0.0,0.0,0.0,0.0,0.0,0.0,0.0,0.0,0.0,0.0,0.0,0.0,0.0,0.0,0.0,0.0,0.0,0.0,0.0,0.0,0.0,0.0,0.0,0.0,0.0,0.0,1.8966,1.9531,2.0958,2.337,2.355,2.3584,2.358,2.3017,2.1759,1.9759,0.0,0.0,0.0,0.0,0.0,0.0,0.0,0.0,0.0,0.0,0.0,0.0,0.0,0.0,0.0,0.0,0.0,0.0,0.0,0.0,0.0,0.0,0.0,0.0,0.0,0.0,0.0,0.0,0.0,0.0,0.0,0.0,0.0,0.0,0.0,0.0,0.0,0.0,0.0,1.7579,1.835,0.0,0.0,0.0,0.0,0.0,0.0,0.0,0.0,1.694,0.0,0.0,0.0,0.0,0.0,0.0,0.0,0.0,0.0,0.0,0.0,0.0,0.0,0.0,0.0,0.0,0.0,0.0,0.0,0.0,0.0,0.0,0.0,0.0,0.0,0.0,0.0,0.0,0.0,0.0,0.0,0.0,0.0,0.0,0.0,0.0,0.0,0.0,0.0,0.0,0.0,0.0,0.0,0.0,0.0,0.0,0.0,0.0,0.0,0.0,0.0,0.0,0.0,0.0,0.0,1.8779,2.0462,2.2194,2.4033,2.3774,2.3748,2.4092,2.2862,2.1415,0.0,0.0,0.0,0.0,0.0,0.0,0.0,0.0,0.0,0.0,0.0,0.0,0.0,0.0,0.0,0.0,0.0,0.0,0.0,0.0,0.0,0.0,0.0,0.0,0.0,0.0,0.0,0.0,0.0,0.0,0.0,0.0,0.0,0.0,0.0,0.0,0.0,0.0,0.0,0.0,1.8854,1.9672,2.1275,0.0,0.0,0.0,0.0,0.0,0.0,1.8939,1.8313,0.0,0.0,0.0,0.0,0.0,0.0,0.0,0.0,0.0,0.0,0.0,0.0,0.0,0.0,0.0,0.0,0.0,0.0,0.0,0.0,0.0,0.0,0.0,0.0,0.0,0.0,0.0,0.0,0.0,0.0,0.0,0.0,0.0,0.0,0.0,0.0,0.0,0.0,0.0,0.0,0.0,0.0,0.0,0.0,0.0,0.0,0.0,0.0,0.0,0.0,0.0,0.0,0.0,0.0,0.0,1.8317,2.0935,2.3041,2.4489,2.3943,2.3913,2.4545,2.2731,2.1001,0.0,0.0,0.0,0.0,0.0,0.0,0.0,0.0,0.0,0.0,0.0,0.0,0.0,0.0,0.0,0.0,0.0,0.0,0.0,0.0,0.0,0.0,0.0,0.0,0.0,0.0,0.0,0.0,0.0,0.0,0.0,0.0,0.0,0.0,0.0,0.0,0.0,0.0,0.0,0.0,0.0,2.118,2.2708,2.2118,0.0,0.0,0.0,0.0,2.1955,2.163,0.0,0.0,0.0,0.0,0.0,0.0,0.0,0.0,0.0,0.0,0.0,0.0,0.0,0.0,0.0,0.0,0.0,0.0,0.0,0.0,0.0,0.0,0.0,0.0,0.0,0.0,0.0,0.0,0.0,0.0,0.0,0.0,0.0,0.0,0.0,0.0,0.0,0.0,0.0,0.0,0.0,0.0,0.0,0.0,0.0,0.0,0.0,0.0,0.0,0.0,0.0,0.0,0.0,0.0,0.0,0.0,1.8561,2.0156,2.2113,2.4414,2.3954,2.3913,2.4548,2.2727,2.0782,0.0,0.0,0.0,0.0,0.0,0.0,0.0,0.0,0.0,0.0,0.0,0.0,0.0,0.0,0.0,0.0,0.0,0.0,0.0,0.0,0.0,0.0,0.0,0.0,0.0,0.0,0.0,0.0,0.0,0.0,0.0,0.0,0.0,0.0,0.0,0.0,0.0,0.0,0.0,0.0,0.0,2.258,2.3104,2.2037,2.1109,0.0,0.0,2.2531,2.1502,2.3671,0.0,0.0,0.0,0.0,0.0,0.0,0.0,0.0,0.0,0.0,0.0,0.0,0.0,0.0,0.0,0.0,0.0,0.0,0.0,0.0,0.0,0.0,0.0,0.0,0.0,0.0,0.0,0.0,0.0,0.0,0.0,0.0,0.0,0.0,0.0,0.0,0.0,0.0,0.0,0.0,0.0,0.0,0.0,0.0,0.0,0.0,0.0,0.0,0.0,0.0,0.0,0.0,0.0,0.0,0.0,1.662,1.9226,2.1296,2.3244,2.5049,2.4137,2.4092,2.5128,2.2552,2.0369,0.0,0.0,0.0,0.0,0.0,0.0,0.0,0.0,0.0,0.0,0.0,0.0,0.0,0.0,0.0,0.0,0.0,0.0,0.0,0.0,0.0,0.0,0.0,0.0,0.0,0.0,0.0,0.0,0.0,0.0,0.0,0.0,0.0,0.0,0.0,0.0,0.0,0.0,0.0,0.0,0.0,0.0,2.3553,2.3431,0.0,0.0,0.0,2.4111,2.3666,0.0,0.0,0.0,0.0,0.0,0.0,0.0,0.0,0.0,0.0,0.0,0.0,0.0,0.0,0.0,0.0,0.0,0.0,0.0,0.0,0.0,0.0,0.0,0.0,0.0,0.0,0.0,0.0,0.0,0.0,0.0,0.0,0.0,0.0,0.0,0.0,0.0,0.0,0.0,0.0,0.0,0.0,0.0,0.0,0.0,0.0,0.0,0.0,0.0,0.0,0.0,0.0,0.0,0.0,0.0,0.0,0.0,1.9684,2.2273,2.4238,2.5498,2.4287,2.4238,2.5483,2.2731,0.0,0.0,0.0,0.0,0.0,0.0,0.0,0.0,0.0,0.0,0.0,0.0,0.0,0.0,0.0,0.0,0.0,0.0,0.0,0.0,0.0,0.0,0.0,0.0,0.0,0.0,0.0,0.8547,0.0,0.0,0.0,0.0,0.0,0.0,0.0,0.0,0.0,0.0,0.0,0.0,0.0,0.0,2.3702,2.4116,2.4811,2.5375,0.0,0.0,2.5596,2.5692,2.6753,2.7224,0.0,0.0,0.0,0.0,0.0,0.0,0.0,0.0,0.0,0.0,0.0,0.0,0.0,0.0,0.0,0.0,0.0,0.0,0.0,0.0,0.0,0.0,0.0,0.0,0.0,0.0,0.0,0.0,0.0,0.0,0.0,0.0,0.0,0.0,0.0,0.0,0.0,0.0,0.0,0.0,0.0,0.0,0.0,0.0,0.0,0.0,0.0,0.0,0.0,0.0,0.0,0.0,0.0,0.0,1.776,1.9708,2.2273,2.4257,2.5498,2.4298,2.4238,2.5513,2.362,2.1061,0.0,0.0,0.0,0.0,0.0,0.0,0.0,0.0,0.0,0.0,0.0,0.0,0.0,0.0,0.0,0.0,0.0,0.0,0.0,0.0,0.0,0.0,0.0,0.0,0.0,0.0,0.0,0.0,0.0,0.0,0.0,0.0,0.0,0.0,0.0,0.0,0.0,0.0,0.0,0.0,0.0,2.4399,2.4851,2.5572,2.6401,0.0,2.73,2.6959,2.6649,2.8431,2.8681,2.5209,0.0,0.0,0.0,0.0,0.0,0.0,0.0,0.0,0.0,0.0,0.0,0.0,0.0,0.0,0.0,0.0,0.0,0.0,0.0,0.0,0.0,0.0,0.0,0.0,0.0,0.0,0.0,0.0,0.0,0.0,0.0,0.0,0.0,0.0,0.0,0.0,0.0,0.0,0.0,0.0,0.0,0.0,0.0,0.0,0.0,0.0,0.0,0.0,0.0,0.0,0.0,0.0,0.0,1.7713,1.9684,2.2697,2.4661,2.5513,2.4691,2.4676,2.5585,2.371,2.1422,0.0,0.0,0.0,0.0,0.0,0.0,0.0,0.0,0.0,0.0,0.0,0.0,0.0,0.0,0.0,0.0,0.0,0.0,0.0,0.0,0.0,0.0,0.0,0.0,0.0,0.0,0.0,0.0,1.2963,1.3301,1.3427,0.0,0.0,0.0,0.0,0.0,0.0,0.0,0.0,0.0,0.0,2.5634,2.6267,2.7225,0.0,0.0,2.841,2.828,2.8137,2.8424,2.773,2.4961,2.3887,0.0,0.0,0.0,0.0,0.0,0.0,0.0,0.0,0.0,0.0,0.0,0.0,0.0,0.0,0.0,0.0,0.0,0.0,0.0,0.0,0.0,0.0,0.0,0.0,0.0,0.0,0.0,0.0,0.0,0.0,0.0,0.0,0.0,0.0,0.0,0.0,0.0,0.0,0.0,0.0,0.0,0.0,0.0,0.0,0.0,0.0,0.0,0.0,0.0,0.0,0.0,0.0,1.7795,1.9974,2.305,2.5023,2.5857,2.5259,2.5128,2.5543,2.4088,2.2129,0.0,0.0,0.0,0.0,0.0,0.0,0.0,0.0,0.0,0.0,0.0,0.0,0.0,0.0,0.0,0.0,0.0,0.0,0.0,0.0,0.0,0.0,0.0,0.0,0.0,0.0,0.0,0.0,1.4145,1.4358,1.3953,0.0,0.0,0.0,0.0,0.0,0.0,0.0,0.0,0.0,0.0,2.6919,2.7337,2.8304,2.9077,2.9288,2.8933,2.8868,2.9537,2.8698,2.7281,2.5463,0.0,0.0,0.0,0.0,0.0,0.0,0.0,0.0,0.0,0.0,0.0,0.0,0.0,0.0,0.0,0.0,0.0,0.0,0.0,0.0,0.0,0.0,0.0,0.0,0.0,0.0,0.0,0.8284,0.0,0.0,0.8254,0.0,0.0,0.0,0.0,0.0,0.0,0.0,0.0,0.0,0.0,0.0,0.0,0.0,0.0,0.0,0.0,0.0,0.0,0.0,0.0,0.0,0.0,1.8026,2.0668,2.33,2.5247,2.6482,2.5929,2.5573,2.5588,2.4918,2.333,2.0741,0.0,0.0,0.0,0.0,0.0,0.0,0.0,0.0,0.0,0.0,0.0,0.0,0.0,0.0,0.0,0.0,0.0,0.0,0.0,0.0,0.0,0.0,0.0,0.0,0.0,0.0,1.1106,1.2676,1.3917,0.0,0.0,0.0,0.0,0.0,0.0,0.0,0.0,0.0,2.2884,2.5999,2.8146,2.7854,2.8492,2.9288,2.998,2.8855,2.8625,3.0733,2.9441,2.786,0.0,0.0,0.0,0.0,0.0,0.0,0.0,0.0,0.0,0.0,0.0,0.0,0.0,0.0,0.0,0.0,0.0,0.0,0.0,0.0,0.0,0.0,0.0,0.0,0.0,0.0,0.0,1.2135,1.1522,0.0,0.0,0.0,0.0,0.0,0.0,0.0,0.0,0.0,0.0,0.0,1.8884,1.9592,0.0,0.0,0.0,0.0,0.0,0.0,0.0,0.0,0.0,0.0,0.0,0.0,1.9142,2.1365,2.3932,2.5704,2.6554,2.639,2.6048,2.563,2.4937,2.3545,2.1301,0.0,0.0,0.0,0.0,0.0,0.0,0.0,0.0,0.0,0.0,0.0,0.0,0.0,0.0,0.0,0.0,0.0,0.0,0.0,0.0,0.0,0.0,0.0,0.0,0.0,1.3041,0.0,0.0,0.0,0.0,0.0,0.0,0.0,0.0,0.0,0.0,0.0,2.3521,2.5866,2.679,2.775,2.9133,2.954,3.0159,0.0,0.0,0.0,0.0,0.0,0.0,0.0,0.0,0.0,0.0,0.0,0.0,0.0,0.0,2.8855,2.4471,2.4073,2.4342,2.4117,0.0,0.0,0.0,0.0,0.0,0.0,0.0,0.0,0.0,0.0,0.0,0.0,0.0,0.0,1.598,1.5665,1.4163,0.0,0.0,0.0,0.0,0.0,0.0,0.0,0.0,2.093,2.1926,2.2246,2.2915,2.2889,2.2174,2.1176,1.9181,0.0,0.0,0.0,0.0,0.0,0.0,0.0,0.0,2.0034,2.2064,2.4627,2.6285,2.6914,2.6944,2.6621,2.5905,2.5181,2.4116,2.2704,2.0551,1.8669,0.0,0.0,0.0,0.0,0.0,0.0,0.0,0.0,0.0,0.0,0.0,0.0,0.0,0.0,0.0,0.0,0.0,0.0,0.0,0.0,0.0,0.0,0.0,1.443,0.0,0.0,0.0,0.0,0.0,0.0,0.0,0.0,0.0,2.5569,2.5374,2.6311,2.8668,2.8999,2.9296,3.0014,0.0,0.0,0.0,0.0,0.0,0.0,0.0,2.9328,3.185,3.1876,3.1706,3.21,3.339,3.4134,3.3442,0.0,0.0,2.8515,2.8085,2.8311,2.7582,2.9465,3.134,3.174,3.2636,3.3262,0.0,0.0,0.0,0.0,1.644,0.0,0.0,0.0,1.9666,2.0251,0.0,1.8169,0.0,0.0,0.0,0.0,1.7576,1.9387,0.0,0.0,2.5184,2.6348,2.5827,2.5815,2.5785,2.5708,2.4425,2.3475,2.2677,1.9582,0.0,0.0,0.0,0.0,0.0,0.0,2.0761,2.2823,2.5297,2.6911,2.759,2.7635,2.7246,2.6452,2.5665,2.5102,2.4787,2.3134,2.1522,1.9927,1.6637,0.0,0.0,0.0,0.0,0.0,0.0,0.0,0.0,0.0,0.0,0.0,0.0,0.0,0.0,0.0,0.0,0.0,0.0,0.0,0.0,1.4712,0.0,0.0,0.0,0.0,0.0,0.0,0.0,0.0,0.0,2.7235,2.8384,2.9295,3.0328,3.1021,0.0,0.0,0.0,0.0,3.1843,3.0572,2.9745,2.9861,3.1224,3.0109,3.0308,3.3844,0.0,0.0,3.6893,3.6831,3.6671,3.5695,3.7162,3.7451,3.4828,3.3951,3.3144,3.1328,3.3027,3.5104,3.6254,3.6644,3.6542,2.633,0.0,0.0,0.0,0.0,2.2933,2.3892,2.5226,2.539,2.4966,2.4103,2.271,0.0,0.0,0.0,0.0,0.0,0.0,2.4507,2.7333,2.8334,2.9101,2.9793,2.9806,2.9821,2.9762,2.8502,2.753,2.6839,2.4986,2.1959,1.7917,0.0,0.0,0.0,0.0,2.2333,2.4687,2.5986,2.7119,2.8222,2.825,2.7856,2.7052,2.6354,2.5885,2.5655,2.4613,2.3441,2.2106,1.9668,0.0,0.0,0.0,0.0,0.0,0.0,0.0,0.0,0.0,0.0,0.0,0.0,0.0,0.0,0.0,0.0,0.0,0.0,0.0,1.4535,1.6392,1.7334,0.0,0.0,0.0,0.0,0.0,0.0,0.0,0.0,0.0,3.2982,3.1024,2.9583,0.0,0.0,3.0236,3.0125,3.1806,3.3305,3.3937,3.4776,0.0,3.5401,3.2688,3.2358,3.7564,3.972,4.0679,4.0484,4.1665,4.2453,4.1713,4.208,4.217,4.1354,3.903,3.7179,3.6596,3.7915,3.9406,4.0179,4.1309,4.2359,3.27,2.9813,2.7194,2.6584,2.7389,2.7662,2.8636,3.004,2.9776,2.9455,2.8998,2.7142,2.5707,2.458,2.2996,0.0,0.0,0.0,2.7715,3.0357,3.0627,3.1136,3.1869,3.1899,3.1899,3.1854,3.0852,3.0148,2.9717,2.8427,2.6195,2.3026,0.0,2.0055,2.124,2.2577,2.413,2.591,2.7151,2.8124,2.885,2.8808,2.8414,2.7642,2.715,2.6711,2.6295,2.582,2.508,2.4057,2.2144,1.9801,0.0,0.0,0.0,0.0,0.0,0.0,0.0,0.0,0.0,0.0,0.0,1.2091,0.9966,0.0,0.0,0.0,1.4488,1.576,1.7737,1.8971,0.0,0.0,0.0,0.0,0.0,0.0,0.0,2.5922,3.0059,3.3825,3.68,3.4677,3.3015,3.3547,3.3501,3.3447,3.3535,0.0,3.6618,3.719,3.8053,3.8547,3.8178,3.5739,3.584,4.164,4.2922,4.349,4.4106,4.5222,4.5805,4.5469,4.5348,4.5366,4.5348,4.326,4.1134,4.0217,4.159,4.305,4.3435,4.4397,4.5333,3.7597,3.7078,3.1867,3.0284,3.1276,3.1891,3.2786,3.3723,3.314,3.3529,3.4323,3.1419,3.0672,3.1496,2.9146,0.0,2.9982,2.9982,3.0657,3.1839,3.2452,3.2736,3.2736,3.2751,3.2736,3.2721,3.2063,3.1734,3.1716,3.0513,2.9863,2.9661,2.6072,2.4115,2.397,2.5138,2.6066,2.6758,2.8548,2.9508,2.9554,2.9481,2.9025,2.8197,2.7986,2.7519,2.6742,2.6691,2.6395,2.5685,2.4106,2.2267,2.013,0.0,0.0,0.0,0.0,0.0,0.0,0.0,0.0,0.0,0.0,0.0,0.0,0.0,0.0,0.0,1.9044,0.0,2.2756,2.2199,0.0,0.0,0.0,2.5295,2.8959,2.895,2.8849,2.9293,0.0,0.0,4.0111,3.9518,3.9102,3.9459,3.9851,3.9782,3.8977,4.0041,4.0904,4.0126,4.0246,4.0352,4.0572,3.9456,4.0429,4.53,4.5953,4.5916,4.6992,4.7354,4.7381,4.7153,4.7177,4.7176,4.7177,4.6388,4.5314,4.2847,4.4167,4.5847,4.5984,4.6003,4.6067,3.9376,3.8805,3.7438,3.6486,3.5816,3.5965,3.6211,3.643,3.6296,3.5862,3.5205,3.4442,3.3694,3.3006,3.2377,3.2557,3.335,3.335,3.3784,3.4531,3.4711,3.4785,3.477,3.4786,3.4801,3.474,3.4113,3.3849,3.3907,3.3116,3.218,3.1116,3.0161,2.8614,2.6592,2.6814,2.7538,2.8705,2.9175,2.9902,3.0893,3.135,3.0669,2.8843,2.8734,2.8087,2.6767,2.6708,2.6632,2.642,2.5518,2.4229,2.2598,1.8653,0.0,0.0,0.0,0.0,0.0,0.0,0.0,0.0,0.0,1.6299,1.2805,0.0,1.7789,0.0,2.1912,2.4403,2.486,2.5713,0.0,0.0,2.8055,2.8908,3.2002,3.2592,3.2649,3.2374,3.6554,4.0768,4.4052,4.3032,4.2473,4.3564,4.1516,3.9776,3.963,4.1322,4.2543,4.2519,4.371,4.4806,4.4711,4.46,4.5058,4.7456,4.7316,4.7179,4.7941,4.8103,4.8051,4.802,4.8012,4.8021,4.8003,4.7847,4.7561,4.6821,4.6341,4.6296,4.7426,4.7242,4.6975,4.0621,4.0292,4.0292,3.9529,3.8302,3.8285,3.8285,3.8255,3.7988,3.7449,3.6761,3.6492,3.5938,3.5265,3.5235,3.5446,3.5775,3.5774,3.5983,3.6342,3.6357,3.6375,3.6446,3.6431,3.6471,3.6508,3.6137,3.6007,3.6056,3.5706,3.5112,3.4354,3.4354,3.3266,3.1067,2.9518,2.8804,2.8904,2.9762,3.0878,3.2221,3.2308,3.1138,2.8803,2.8555,2.7517,2.5539,2.5621,2.5645,2.5464,2.507,2.4301,2.3105,1.9974,1.7593,0.0,0.0,0.0,0.0,0.0,0.0,0.0,0.0,0.0,0.0,0.0,2.0737,2.1306,2.5145,2.7644,2.7767,2.9001,3.0463,3.2104,3.207,3.3209,3.6411,3.7049,3.7019,3.6452,3.9814,4.3438,4.6491,4.575,4.5289,4.6484,4.4881,4.3499,4.3314,4.4287,4.51,4.5431,4.6466,4.7244,4.7252,4.7243,4.7464,4.8088,4.8021,4.7917,4.8248,4.8315,4.8315,4.8315,4.8315,4.8315,4.8315,4.8315,4.8315,4.8186,4.7609,4.7389,4.8106,4.7949,4.7801,4.1478,4.1403,4.1403,4.0711,3.9664,3.9775,3.9532,3.8987,3.8317,3.814,3.826,3.7961,3.7764,3.7674,3.7764,3.777,3.771,3.768,3.7718,3.7731,3.7716,3.7813,3.7919,3.7919,3.7963,3.8079,3.7998,3.8008,3.8094,3.7983,3.7882,3.7818,3.7822,3.7023,3.5416,3.252,3.0327,2.8871,3.0611,3.2073,3.3109,3.2343,3.066,2.8156,2.778,2.6488,2.4116,2.4312,2.4335,2.4,2.3975,2.3702,2.3074,2.0949,1.9587,0.0,1.7186,0.0,0.0,0.0,0.0,0.0,0.0,0.0,0.0,2.3333,2.4348,2.5435,2.8638,3.0823,3.1272,3.2341,3.3812,3.578,3.6124,3.7496,4.0695,4.1238,4.1128,4.0663,4.3343,4.6049,4.787,4.7674,4.7535,4.8037,4.7991,4.757,4.7508,4.7313,4.7516,4.823,4.8315,4.8143,4.819,4.8251,4.8241,4.8286,4.8277,4.8305,4.8305,4.8315,4.8315,4.8315,4.8315,4.8315,4.8315,4.8315,4.8315,4.8296,4.8223,4.8205,4.8288,4.8288,4.8315,4.1882,4.1418,4.1403,4.1254,4.1104,4.1839,4.0207,3.7002,3.6342,3.6626,3.771,3.9343,3.9682,3.9107,3.9768,3.9788,3.9281,3.9281,3.9352,3.9516,3.9516,3.9498,3.9555,3.954,3.9536,3.9543,3.8984,3.9034,3.9661,3.8996,3.8414,3.789,3.7875,3.6862,3.4969,0.0,0.0,0.0,3.2705,3.284,3.1866,3.0549,2.8774,2.6545,2.6747,0.0,2.4508,2.4452,2.4477,2.439,2.4382,0.0,0.0,0.0,0.0,0.0,0.0,0.0,0.0,0.0,0.0,0.0,2.5467,2.5304,2.4754,2.7143,2.9214,3.0296,3.2379,3.4197,3.5493,3.6349,3.7246,3.8227,3.8886,4.0,4.1745,4.2499,4.2999,4.3419,4.4985,4.663,4.7995,4.8157,4.8131,4.826,4.8315,4.8258,4.8142,4.8085,4.8153,4.8287,4.8315,4.8314,4.8318,4.8312,4.8332,4.8319,4.832,4.8315,4.8351,4.8351,4.8315,4.8351,4.8315,4.8351,4.8351,4.8315,4.8351,4.8315,4.8315,4.8315,4.8315,4.8315,4.8315,4.2641,4.2342,4.2342,4.1987,0.0,4.1556,4.0283,3.8198,3.9339,4.0158,4.0811,4.1543,4.1648,4.1176,4.0549,4.0085,3.9707,3.8968,3.9092,3.9901,3.9885,4.0336,4.108,4.108,4.1107,4.1123,4.0746,4.058,4.0608,4.0224,3.9688,3.8988,3.8971,3.8448,3.7417,3.766,3.6721,3.4544,3.4281,3.4142,3.4063,3.2635,3.0883,2.8896,2.8518,0.0,0.0,0.0,0.0,0.0,0.0,0.0,0.0,0.0,0.0,2.5336,2.4552,2.4713,2.6164,2.6973,2.8044,2.964,3.0757,3.0619,2.8835,3.1223,3.3193,3.4141,3.574,3.7038,3.7799,3.856,3.9276,4.0015,4.0706,4.1814,4.346,4.437,4.516,4.6085,4.6843,4.7567,4.8212,4.8315,4.8315,4.8315,4.8315,4.8315,4.8315,4.8315,4.8315,4.8315,4.8315,4.8315,4.8315,4.8315,4.8674,4.9217,4.8867,4.8545,4.8885,4.893,4.893,4.8985,4.9242,4.9526,4.9489,4.9242,4.8791,4.8419,4.8302,4.8314,4.8303,4.8304,4.8315,4.3799,4.3815,4.3799,4.3213,4.2208,4.1827,4.1585,4.153,4.3133,0.0,0.0,4.3605,4.3427,4.3168,4.1403,4.0615,4.0504,3.9161,3.9315,4.0635,4.0651,4.1351,4.2605,4.2622,4.2636,4.2696,4.257,4.2168,4.161,4.1326,4.0899,4.032,4.0168,4.0113,4.0113,4.0113,3.9199,3.741,3.5656,3.5256,3.6178,3.4767,3.3123,3.1319,3.0502,2.9003,2.6726,2.6345,2.5765,2.4888,2.537,2.5777,2.5901,2.6457,2.7343,2.849,2.861,2.9473,3.1454,3.1708,3.2357,3.37,3.5053,3.4968,3.3038,3.4928,3.6468,3.7139,3.8408,3.9186,3.9203,3.9863,4.0587,4.1299,4.2125,4.3365,4.5193,4.6065,4.6889,4.8053,4.8222,4.8296,4.8296,4.8315,4.8315,4.8315,4.8315,4.837,4.8471,4.8406,4.8388,4.8563,4.871,4.8608,4.8386,4.8838,4.9373,5.0414,4.9621,4.9058,4.9601,4.9802,4.9802,4.9802,5.038,5.0674,5.0729,5.0225,4.9476,4.8508,4.8615,4.8723,4.8394,4.849,4.8586,4.5764,4.5782,4.5782,4.5689,4.5585,4.6291,4.6996,4.74,4.4022,4.2494,4.259,4.4378,4.474,4.4036,4.3843,4.3746,4.368,4.2862,4.3004,4.3905,4.3919,4.406,4.4243,4.426,4.4266,4.4228,4.3572,4.3203,4.2966,4.1816,4.1123,4.0967,4.0405,4.0113,4.0113,4.0113,3.9943,3.9592,3.7111,3.5293,3.4232,3.2719,3.1204,2.974,3.0002,2.9649,2.864,2.856,2.8458,2.8303,2.8387,2.8725,2.9331,2.9464,3.0169,3.1522,3.1657,3.2097,3.3007,3.3677,3.4387,3.5239,3.6141,3.6208,3.5306,3.72,3.8565,3.8713,3.9423,3.9943,3.9994,4.062,4.1329,4.2085,4.3294,4.4634,4.6026,4.6807,4.7493,4.822,4.8315,4.8315,4.8315,4.8315,4.8333,4.8333,4.8535,4.8618,4.9142,4.8765,4.8673,4.9252,4.9602,4.9331,4.8856,4.9981,5.0787,5.0785,5.061,5.0315,5.0592,5.0637,5.0618,5.0637,5.0839,5.0912,5.0894,5.0729,5.0108,4.9044,4.9757,5.0287,4.9109,4.9446,4.9553,4.6208,4.6208,4.6208,4.6208,4.6261,4.7205,4.7836,4.8108,4.6587,4.588,4.5944,4.654,4.6579,4.6115,4.501,4.4273,4.3807,4.2674,4.2584,4.3318,4.3349,4.3789,4.4547,4.4584,4.4584,4.4564,4.4245,4.3826,4.3372,4.2696,4.1999,4.1191,4.0472,4.0113,4.0113,4.0113,4.0113,4.0062,3.8483,3.7301,3.663,3.5148,3.4046,3.3393,3.2845,3.2138,3.142,3.1007,3.0591,3.0219,3.0584,3.0929,3.1285,3.1654,3.2357,3.34,3.3484,3.3823,3.4562,3.5318,3.5887,3.6259,3.7342,3.7838,3.7483,3.8396,3.9169,3.9542,3.9926,4.0411,4.1146,4.1543,4.2294,4.374,4.4822,4.5809,4.6736,4.7463,4.7997,4.8258,4.8315,4.8315,4.8315,4.8315,4.8545,4.8921,4.9315,4.9811,5.0196,4.9939,4.9774,5.017,5.0363,5.0241,4.9793,5.0403,5.1338,5.1938,5.1346,5.1059,5.1316,5.1444,5.1444,5.1481,5.1775,5.2058,5.2068,5.172,5.1277,5.132,5.0953,5.1304,5.1898,5.1539,5.0085,4.6832,4.6816,4.6832,4.6832,4.6901,4.7605,4.7934,4.7999,4.8671,4.9018,4.8934,4.8394,4.8157,4.7954,4.616,4.501,4.4268,4.2882,4.254,4.3014,4.2909,4.345,4.4499,4.4584,4.4584,4.4584,4.4584,4.4265,4.3724,4.3507,4.2662,4.1288,4.0625,4.0265,4.0113,4.0113,4.0113,4.0079,3.9554,3.9169,3.8966,3.7867,3.7207,3.6953,3.5718,3.477,3.4184,3.3451,3.2774,3.2256,3.274,3.3061,3.3078,3.3575,3.4157,3.4675,3.4759,3.5081,3.5814,3.6428,3.6863,3.7066,3.8256,3.9,3.9017,3.927,3.9588,4.0049,4.0411,4.1057,4.1993,4.2694,4.3617,4.5343,4.6133,4.6816,4.7516,4.8035,4.8315,4.8315,4.8315,4.8315,4.8315,4.8315,4.8636,4.9454,5.0427,5.1041,5.1077,5.1206,5.1353,5.1298,5.1206,5.1206,5.1261,5.1389,5.1934,5.3072,5.222,5.1858,5.2142,5.227,5.227,5.2307,5.2719,5.3059,5.3195,5.2862,5.2685,5.2945,5.2792,5.2969,5.4245,5.281,5.076,4.8719,4.8735,4.8672,4.8735,4.8688,4.8781,4.8829,4.8845,4.897,4.9018,4.8984,4.8934,4.8883,4.8798,4.7921,4.7447,4.7227,4.594,4.5246,4.5196,4.4702,4.4465,4.4584,4.4584,4.4584,4.4584,4.4584,4.4547,4.4381,4.3741,4.2679,4.136,4.1123,4.0747,4.0214,4.0113,4.0113,4.0113,4.0028,3.966,3.9051,3.8882,3.8481,3.7804,3.7021,3.6575,3.6389,3.574,3.5273,3.5205,3.5222,3.5289,3.5273,3.5363,3.543,3.5509,3.5509,3.5847,3.6598,3.6761,3.7139,3.777,3.856,3.9046,3.91,4.006,4.0521,4.048,4.1312,4.2035,4.2298,4.3851,4.5241,4.6143,4.6857,4.756,4.8056,4.8267,4.8315,4.8315,4.8315,4.8315,4.8315,4.8425,4.8746,4.9619,5.1014,5.1926,5.1995,5.2372,5.2812,5.2781,5.2401,5.2254,5.2637,5.2957,5.2913,5.3133,5.3096,5.2915,5.2965,5.3031,5.3081,5.311,5.3177,5.3414,5.3634,5.3656,5.3664,5.3917,5.4121,5.4573,5.4137,5.3011,5.159,4.9018,4.9018,4.9018,4.9018,4.9018,4.9018,4.9018,4.9018,4.9018,4.9018,4.9018,4.9018,4.9018,4.8984,4.8665,4.8326,4.7836,4.6819,4.6109,4.5669,4.4939,4.4584,4.4584,4.4584,4.4584,4.4584,4.4584,4.4584,4.4448,4.3792,4.3085,4.2459,4.166,4.1052,4.0743,4.032,4.0113,4.0113,4.0113,3.9943,3.9656,3.922,3.887,3.8514,3.7838,3.7449,3.7415,3.711,3.6761,3.6383,3.6721,3.6761,3.6349,3.6721,3.6777,3.6366,3.6315,3.6637,3.7393,3.785,3.8222,3.8548,3.9237,3.9775,4.0095,4.0625,4.1099,4.18,4.2339,4.2978,4.3863,4.5104,4.6293,4.7272,4.7765,4.8035,4.8258,4.8315,4.8315,4.8315,4.8315,4.8315,4.8462,4.9177,4.9848,5.0463,5.1703,5.2727,5.3023,5.3185,5.3395,5.3777,5.346,5.3131,5.3211,5.3196,5.3206,5.3206,5.3196,5.322,5.3524,5.3564,5.3615,5.3879,5.3897,5.3961,5.418,5.4231,5.4267,5.4541,5.4933,5.5218,5.4426,5.385,5.3054,4.9018,4.9018,4.9018,4.9018,4.9018,4.9018,4.9018,4.9018,4.9018,4.9018,4.9018,4.9018,4.9018,4.9018,4.9018,4.8697,4.8157,4.743,4.6701,4.5974,4.5244,4.4787,4.4601,4.4584,4.4584,4.4584,4.4584,4.4584,4.4533,4.4045,4.3626,4.3271,4.2324,4.1597,4.1187,4.0629,4.0286,4.0113,4.0113,4.0113,4.0015,3.9576,3.9305,3.9237,3.8582,3.821,3.8193,3.8007,3.7652,3.7139,3.7618,3.7652,3.7173,3.7618,3.7652,3.719,3.7105,3.7427,3.8159,3.87,3.9085,3.9322,3.9812,4.0336,4.0838,4.1238,4.2002,4.3049,4.3763,4.4615,4.5271,4.6281,4.7267,4.8184,4.8315,4.8315,4.8315,4.8315,4.8315,4.8315,4.8315,4.8354,4.8688,4.9926,5.1102,5.1278,5.2519,5.3633,5.3897,5.3777,5.3833,5.439,5.4187,5.3775,5.3343,5.3492,5.3516,5.3572,5.3632,5.3729,5.3942,5.3987,5.4032,5.4231,5.4439,5.4571,5.4632,5.4663,5.4757,5.5076,5.5389,5.5507,5.5004,5.4816,5.4456,4.9018,4.9018,4.9018,4.9018,4.9018,4.9018,4.9018,4.9018,4.9018,4.9018,4.9018,4.9018,4.9018,4.9018,4.9018,4.8984,4.8849,4.8124,4.7413,4.6701,4.5957,4.5261,4.4601,4.4584,4.4584,4.4584,4.4584,4.4584,4.4584,4.4547,4.4147,4.344,4.3254,4.256,4.1478,4.117,4.0781,4.0248,4.013,4.0113,4.0096,4.0049,3.9994,3.9914,3.9339,3.8966,3.8886,3.8282,3.7893,3.7872,3.7944,3.7939,3.7855,3.7905,3.7922,3.7893,3.786,3.8176,3.8836,3.9034,3.9305,3.9893,4.0078,4.0343,4.1001,4.211,4.3131,4.3834,4.557,4.6533,4.6446,4.7307,4.8044,4.824,4.8315,4.8315,4.8315,4.8354,4.8324,4.8316,4.8374,4.8624,4.8949,5.0678,5.1702,5.2204,5.3362,5.4404,5.4404,5.4423,5.4447,5.4535,5.4486,5.4183,5.3516,5.3755,5.4234,5.4386,5.434,5.4371,5.4447,5.4487,5.4511,5.4539,5.4655,5.4804,5.4974,5.5121,5.5256,5.5444,5.5541,5.5514,5.5371,5.5568,5.5241,4.9018,4.9018,4.9018,4.9018,4.9018,4.9018,4.9018,4.9018,4.9018,4.9018,4.9018,4.9001,4.9018,4.9018,4.9018,4.9018,4.8934,4.8225,4.7752,4.7363,4.6247,4.5551,4.5297,4.4838,4.4584,4.4584,4.4584,4.4584,4.4584,4.4584,4.4465,4.413,4.3643,4.3102,4.2527,4.1664,4.1052,4.0794,4.0354,4.0113,4.013,4.0113,4.0113,4.0096,3.9859,3.9706,3.9723,3.9423,3.9119,3.8633,3.9051,3.9085,3.8679,3.8599,3.8831,3.9191,3.8865,3.892,3.9576,3.9694,3.9795,4.007,4.0424,4.0856,4.1558,4.2764,4.4027,4.5154,4.6258,4.7118,4.7629,4.8044,4.8315,4.8315,4.8306,4.8316,4.8363,4.8523,4.8582,4.8442,4.8714,4.9345,5.0128,5.1247,5.2171,5.2764,5.3775,5.4511,5.4775,5.4678,5.4697,5.5094,5.5055,5.4858,5.4912,5.4492,5.456,5.4877,5.4988,5.4795,5.4764,5.4867,5.4909,5.5108,5.5134,5.5167,5.5374,5.5411,5.556,5.5582,5.5689,5.5689,5.5689,5.5689,5.5574,4.9479,4.9652,4.9666,4.9681,4.9681,4.9666,4.9681,4.9681,4.9666,4.9681,4.9681,4.9683,4.9698,4.9622,4.9417,4.9477,4.9544,4.87,4.8124,4.7836,4.6855,4.6145,4.5669,4.5179,4.4821,4.4618,4.4584,4.4584,4.4584,4.4584,4.4584,4.4533,4.4028,4.3656,4.3271,4.2391,4.1833,4.1474,4.0815,4.0455,4.0438,4.0202,4.0113,4.0113,4.0113,4.0113,4.0113,4.0113,3.9893,3.9491,3.9842,3.9876,3.9423,3.9356,3.9576,3.9977,3.9643,3.9559,3.9994,4.0113,4.0167,4.036,4.072,4.1293,4.2373,4.3588,4.4855,4.6056,4.7012,4.7755,4.8131,4.8315,4.8315,4.8325,4.8411,4.8486,4.8513,4.8864,4.895,4.8982,5.0007,5.074,5.1073,5.2118,5.2965,5.3572,5.4344,5.4983,5.518,5.5114,5.5028,5.556,5.5441,5.5392,5.5378,5.5154,5.5028,5.5287,5.5346,5.5188,5.5107,5.5224,5.535,5.5588,5.5689,5.5689,5.5689,5.5689,5.5689,5.5689,5.5689,5.5689,5.5689,5.5689,5.5609,5.0421,5.0942,5.1073,5.096,5.0903,5.0889,5.1021,5.0929,5.0955,5.0863,5.081,5.0968,5.0863,5.085,5.0269,5.038,5.0608,4.9636,4.8802,4.8226,4.7995,4.718,4.6019,4.5875,4.5377,4.4713,4.4612,4.4584,4.4584,4.4584,4.4584,4.4584,4.4533,4.413,4.344,4.3288,4.2932,4.2269,4.1525,4.1136,4.1119,4.0472,4.0113,4.0113,4.0113,4.0113,4.0113,4.0113,4.0062,4.0045,4.0062,4.0113,4.0028,4.0011,4.0079,4.0079,4.0074,4.0104,4.0129,4.0204,4.0509,4.0861,4.1007,4.1943,4.3427,4.4594,4.5685,4.6808,4.7691,4.8278,4.8269,4.8354,4.8364,4.8363,4.863,4.882,4.8963,4.9238,4.953,4.9861,5.1414,5.2456,5.2155,5.2995,5.4169,5.4526,5.508,5.5541,5.5582,5.5529,5.5632,5.5673,5.5621,5.561,5.5662,5.5678,5.5662,5.566,5.5617,5.5529,5.5489,5.5529,5.5512,5.5689,5.5689,5.5689,5.5689,5.5689,5.5689,5.5689,5.5689,5.5695,5.5719,5.571,5.5738,5.0903,5.1086,5.1099,5.1099,5.1099,5.1099,5.1099,5.1099,5.1099,5.1099,5.1099,5.1099,5.1099,5.1073,5.0836,5.0889,5.1047,5.0608,5.0326,5.0047,4.9561,4.8783,4.7871,4.7286,4.6413,4.5308,4.4786,4.4598,4.4609,4.4609,4.4584,4.4584,4.4612,4.4465,4.4205,4.369,4.3237,4.2949,4.1816,4.1208,4.1136,4.0489,4.0113,4.0113,4.0113,4.0113,4.0113,4.0113,4.0113,4.0113,4.0113,4.0113,4.0113,4.0113,4.0113,4.0146,4.0461,4.0655,4.0714,4.1013,4.1297,4.1661,4.2367,4.3143,4.3994,4.5488,4.6548,4.7158,4.7819,4.8315,4.8344,4.8559,4.8701,4.8719,4.8839,4.9059,4.933,4.9463,5.0025,5.1075,5.2371,5.3135,5.3495,5.436,5.4717,5.5184,5.5535,5.5689,5.5689,5.5689,5.5689,5.5689,5.5689,5.5689,5.5689,5.5689,5.5689,5.5689,5.5689,5.5689,5.5689,5.5689,5.5689,5.5689,5.5689,5.5689,5.5689,5.5689,5.5689,5.571,5.5707,5.5726,5.5716,5.5778,5.5835,5.1636,5.188,5.1892,5.1874,5.1892,5.1892,5.1874,5.1874,5.1874,5.1874,5.1886,5.1874,5.1874,5.1831,5.1611,5.1636,5.1825,5.1624,5.1606,5.1674,5.0827,5.0004,4.9146,4.8161,4.7288,4.635,4.5598,4.5267,4.5254,4.5267,4.5267,4.5284,4.5284,4.5152,4.4923,4.4459,4.4122,4.3711,4.2662,4.1884,4.1508,4.0895,4.0371,4.0163,4.0113,4.0113,4.0113,4.0113,4.0113,4.0113,4.0113,4.0113,4.0113,4.0096,4.0179,4.0424,4.0703,4.0967,4.1235,4.1563,4.2079,4.2608,4.34,4.432,4.5057,4.6532,4.7122,4.7599,4.8003,4.8354,4.8541,4.8718,4.9021,4.9322,4.9378,4.9525,4.9853,4.9951,5.0481,5.1746,5.3203,5.4084,5.442,5.4857,5.5088,5.5612,5.5689,5.5689,5.5689,5.5689,5.5689,5.5689,5.5689,5.5689,5.5689,5.5689,5.5689,5.5689,5.5689,5.5689,5.5689,5.5689,5.5689,5.5689,5.5689,5.5689,5.5689,5.5689,5.5695,5.5707,5.5765,5.5834,5.5889,5.5955,5.6014,5.2565,5.3164,5.3175,5.3092,5.3082,5.3071,5.3039,5.3114,5.3092,5.306,5.3082,5.2988,5.3053,5.2959,5.2393,5.2468,5.2948,5.2486,5.2456,5.2572,5.1874,5.0914,5.0096,4.8633,4.7785,4.7536,4.6701,4.63,4.6179,4.6204,4.6395,4.6252,4.6192,4.6112,4.563,4.5528,4.5221,4.4708,4.3915,4.3193,4.258,4.1844,4.121,4.0601,4.054,4.0502,4.0556,4.0453,4.0279,4.0184,4.0279,4.0341,4.0209,4.0171,4.0533,4.0862,4.0938,4.1369,4.1718,4.2021,4.255,4.3679,4.4084,4.4845,4.6523,4.7123,4.761,4.8105,4.8384,4.8568,4.8813,4.9019,4.936,4.9968,5.0043,5.0243,5.0676,5.0705,5.1128,5.2278,5.4103,5.5441,5.4766,5.5247,5.5555,5.567,5.5689,5.5689,5.5689,5.5689,5.5689,5.5689,5.5689,5.5689,5.5689,5.5689,5.5689,5.5689,5.5689,5.5695,5.5689,5.5689,5.5689,5.5689,5.571,5.5705,5.5716,5.5717,5.576,5.5825,5.5903,5.601,5.6061,5.6127,5.618,5.302,5.3196,5.3196,5.3196,5.3196,5.3196,5.3196,5.3196,5.3196,5.3196,5.3196,5.3196,5.3196,5.3164,5.2991,5.3031,5.3092,5.2988,5.2959,5.3114,5.2875,5.2214,5.1169,4.9377,4.8401,4.8248,4.7225,4.6389,4.6389,4.6483,4.646,4.6389,4.6495,4.6383,4.6167,4.6185,4.61,4.5847,4.5187,4.4702,4.4387,4.3734,4.3349,4.3115,4.2496,4.2216,4.2151,4.1655,4.1116,4.0756,4.1139,4.1127,4.0797,4.1059,4.1196,4.111,4.1739,4.2262,4.248,4.2836,4.3515,4.4401,4.503,4.5883,4.6975,4.793,4.8282,4.8504,4.8761,4.9086,4.9043,4.9426,4.9981,5.0421,5.0575,5.0837,5.1268,5.1095,5.1436,5.3505,5.4897,5.5378,5.5464,5.5497,5.5689,5.5689,5.5689,5.5689,5.5689,5.5689,5.5689,5.5689,5.5689,5.5689,5.5689,5.5689,5.5689,5.5689,5.5695,5.5705,5.5695,5.5689,5.5689,5.5689,5.5738,5.5753,5.5774,5.5789,5.5865,5.5963,5.6058,5.6153,5.619,5.6246,5.6303,5.3196,5.3196,5.3196,5.3196,5.3196,5.3196,5.3196,5.3196,5.3196,5.3196,5.3196,5.3196,5.3196,5.3196,5.3185,5.3185,5.3196,5.3196,5.3185,5.3185,5.3164,5.2889,5.2147,5.0695,4.986,4.941,4.8302,4.7641,4.7302,4.7198,4.7198,4.7241,4.7198,4.7077,4.6842,4.683,4.6664,4.6383,4.5935,4.5639,4.5273,4.4894,4.4469,4.4214,4.37,4.3399,4.3009,4.2764,4.2271,4.1589,4.1589,4.1632,4.1369,4.1589,4.1729,4.1643,4.2352,4.2895,4.3486,4.387,4.4535,4.5498,4.6205,4.6865,4.7683,4.8435,4.855,4.8898,4.9116,4.9265,4.9506,4.9987,5.0563,5.11,5.1202,5.1409,5.1865,5.185,5.2518,5.3962,5.506,5.5705,5.5689,5.5689,5.5689,5.5689,5.5689,5.5689,5.5689,5.5689,5.5689,5.5689,5.5689,5.5689,5.5689,5.5689,5.5745,5.5745,5.5793,5.577,5.5754,5.5758,5.5764,5.5789,5.5784,5.5827,5.5883,5.5963,5.6058,5.6158,5.6235,5.6307,5.6345,5.6367,5.6426,5.3196,5.3196,5.3196,5.3196,5.3196,5.3196,5.3196,5.3196,5.3196,5.3196,5.3196,5.3196,5.3196,5.3196,5.3196,5.3196,5.3196,5.3196,5.3196,5.3196,5.3196,5.3122,5.2965,5.2053,5.1334,5.0711,5.0031,4.9127,4.846,4.83,4.8248,4.8123,4.8162,4.7977,4.7583,4.7481,4.7172,4.6864,4.6741,4.6465,4.6069,4.5866,4.5637,4.5201,4.4839,4.43,4.388,4.3752,4.3576,4.2334,4.2167,4.2145,4.204,4.1927,4.2162,4.2601,4.2912,4.3559,4.4427,4.4691,4.5415,4.6608,4.6947,4.7629,4.8431,4.8682,4.883,4.9322,4.9207,4.9589,5.0044,5.0546,5.11,5.1697,5.1947,5.2197,5.2288,5.2792,5.3441,5.411,5.5145,5.5574,5.5689,5.5689,5.5689,5.5689,5.5689,5.5689,5.5689,5.5689,5.5689,5.5689,5.5689,5.5689,5.5689,5.5689,5.5761,5.5817,5.5906,5.5936,5.5883,5.587,5.5887,5.5909,5.5951,5.6027,5.6094,5.6183,5.6258,5.632,5.6369,5.6457,5.6523,5.6523,5.6543,5.3196,5.3196,5.3196,5.3196,5.3196,5.3196,5.3196,5.3196,5.3196,5.3196,5.3196,5.3196,5.3196,5.3196,5.3196,5.3196,5.3196,5.3196,5.3196,5.3196,5.3196,5.3196,5.3049,5.2417,5.194,5.14,5.0243,4.9527,4.9215,4.8618,4.8315,4.8315,4.8315,4.8248,4.8113,4.8007,4.8047,4.7889,4.7848,4.7706,4.7561,4.7462,4.7371,4.7136,4.6637,4.6011,4.5457,4.5387,4.5314,4.4947,4.4379,4.3662,4.2953,4.3001,4.3112,4.3154,4.3806,4.4418,4.4774,4.5379,4.6058,4.6984,4.7288,4.761,4.876,4.9116,4.9257,4.9603,4.9962,5.0249,5.0527,5.121,5.1673,5.212,5.3044,5.3818,5.3857,5.3528,5.397,5.4928,5.5472,5.5689,5.5689,5.5689,5.5689,5.5689,5.5689,5.5689,5.5689,5.5689,5.5689,5.5689,5.5689,5.5689,5.571,5.5757,5.5899,5.5969,5.6079,5.6099,5.6048,5.6065,5.6109,5.6115,5.6135,5.6219,5.6279,5.6319,5.6382,5.6427,5.6484,5.6543,5.6582,5.6601,5.6621,5.3196,5.3196,5.3196,5.3196,5.3196,5.3196,5.3196,5.3196,5.3196,5.3196,5.3196,5.3196,5.3196,5.3196,5.3196,5.3196,5.3196,5.3196,5.3196,5.3196,5.3196,5.3196,5.3159,5.2784,5.2399,5.1895,5.0794,5.0059,4.9472,4.882,4.8315,4.8315,4.8315,4.8315,4.8315,4.8315,4.8277,4.8258,4.8315,4.8315,4.8315,4.8315,4.8315,4.815,4.7544,4.6837,4.647,4.6425,4.6241,4.5993,4.5838,4.5352,4.4454,4.4437,4.4428,4.4446,4.4766,4.5489,4.5838,4.6241,4.681,4.7581,4.7822,4.836,4.8963,4.9401,4.9712,4.9974,5.0272,5.0448,5.0726,5.1433,5.1967,5.2678,5.3703,5.4593,5.4876,5.4635,5.461,5.5491,5.567,5.5689,5.5689,5.5689,5.5689,5.5689,5.5705,5.5705,5.5689,5.5689,5.5689,5.5689,5.5689,5.57,5.5721,5.5837,5.6069,5.6176,5.6297,5.6297,5.626,5.6295,5.6353,5.6333,5.6301,5.6365,5.6419,5.6476,5.6484,5.6523,5.6562,5.6601,5.6621,5.6621,5.6621,5.3196,5.3196,5.3196,5.3196,5.3196,5.3196,5.3196,5.3196,5.3196,5.3196,5.3196,5.3196,5.3196,5.3196,5.3196,5.3196,5.3196,5.3196,5.3196,5.3196,5.3196,5.3196,5.3177,5.3067,5.281,5.2123,5.1371,5.0629,4.9821,4.8948,4.8545,4.837,4.8315,4.8315,4.8315,4.8315,4.8315,4.8315,4.8315,4.8315,4.8315,4.8315,4.8315,4.8168,4.7783,4.7397,4.7305,4.7223,4.6994,4.6379,4.692,4.6847,4.6434,4.5947,4.5902,4.5828,4.5911,4.6287,4.6727,4.714,4.7591,4.8346,4.8638,4.9078,4.946,4.9671,4.9962,5.0348,5.0633,5.0703,5.0908,5.1991,5.2736,5.3371,5.4184,5.4934,5.5472,5.5689,5.5626,5.5645,5.5689,5.5689,5.5689,5.5689,5.5689,5.5695,5.5716,5.5731,5.5726,5.5744,5.5784,5.5808,5.5825,5.5752,5.5735,5.6044,5.6268,5.6333,5.6465,5.6445,5.6426,5.6456,5.6484,5.6476,5.6453,5.6504,5.6523,5.6543,5.6582,5.6601,5.6621,5.6621,5.6621,5.6621,5.6621,5.3196,5.3196,5.3196,5.3196,5.3206,5.3206,5.3259,5.3196,5.3261,5.3206,5.322,5.3217,5.3261,5.3241,5.3206,5.3217,5.3305,5.3347,5.3314,5.3314,5.3295,5.3305,5.3347,5.3359,5.3164,5.2829,5.2191,5.1424,5.0518,4.9802,4.8921,4.8453,4.8315,4.8315,4.8315,4.8315,4.8315,4.8315,4.8315,4.8315,4.8315,4.8315,4.8315,4.8296,4.8058,4.8021,4.8039,4.8058,4.8021,4.7939,4.8039,4.7994,4.7591,4.6654,4.6186,4.6214,4.6627,4.7049,4.7325,4.7765,4.8255,4.8682,4.8938,4.9311,4.9773,5.0038,5.0281,5.0732,5.1258,5.1584,5.1745,5.2914,5.3895,5.4434,5.4862,5.5453,5.5631,5.5689,5.5689,5.5689,5.5689,5.5689,5.5689,5.5705,5.5712,5.5724,5.5745,5.5789,5.5817,5.59,5.5989,5.5999,5.6024,5.588,5.5749,5.6179,5.6503,5.6485,5.6562,5.6562,5.6543,5.6582,5.6582,5.6543,5.6543,5.6562,5.6601,5.6621,5.6621,5.6621,5.6621,5.6621,5.6621,5.6621,5.6621,5.387,5.3879,5.387,5.387,5.387,5.387,5.3851,5.3888,5.3888,5.387,5.387,5.387,5.387,5.387,5.387,5.387,5.3861,5.387,5.387,5.387,5.387,5.387,5.3842,5.3842,5.3701,5.3482,5.3053,5.2119,5.0841,4.9968,4.9206,4.8508,4.8315,4.8315,4.8315,4.8315,4.8306,4.8306,4.8306,4.8315,4.8315,4.8315,4.8315,4.8315,4.8315,4.8315,4.8315,4.8315,4.8296,4.8278,4.8296,4.8315,4.8125,4.7868,4.7332,4.7243,4.7518,4.7822,4.7986,4.8446,4.8767,4.9152,4.9371,4.9659,5.0024,5.0291,5.0689,5.1229,5.1548,5.2115,5.2544,5.3794,5.4376,5.4626,5.5203,5.5612,5.5689,5.5689,5.5689,5.5689,5.5689,5.5689,5.5689,5.5721,5.5753,5.5769,5.5788,5.5833,5.5898,5.6014,5.6147,5.615,5.6163,5.6084,5.5983,5.6252,5.6569,5.6605,5.6621,5.6621,5.6621,5.6621,5.6621,5.6601,5.6601,5.6621,5.6621,5.6621,5.6621,5.6621,5.6621,5.6621,5.6621,5.6621,5.6621,5.4511,5.4511,5.4511,5.4511,5.4511,5.4503,5.4487,5.4511,5.4479,5.4455,5.4511,5.4479,5.4463,5.4487,5.4479,5.4479,5.4511,5.4471,5.4431,5.4414,5.4414,5.4471,5.4495,5.4471,5.4255,5.3968,5.3858,5.2921,5.1325,5.0325,4.9466,4.8889,4.8576,4.8448,4.855,4.8439,4.8383,4.8383,4.8307,4.8315,4.8315,4.8315,4.8315,4.8315,4.8315,4.8315,4.8315,4.8315,4.8315,4.8344,4.8392,4.8458,4.8486,4.8805,4.8846,4.8595,4.8532,4.8683,4.8777,4.8973,4.9195,4.9582,4.9911,5.0086,5.0367,5.0718,5.1207,5.1769,5.2423,5.2774,5.3472,5.426,5.4703,5.4914,5.5324,5.5689,5.5689,5.5689,5.5689,5.5689,5.5689,5.5705,5.5726,5.5716,5.5729,5.5879,5.5899,5.5981,5.6048,5.613,5.6234,5.6274,5.6273,5.6277,5.6258,5.6293,5.6511,5.6579,5.6601,5.6621,5.6621,5.6621,5.6621,5.6621,5.6621,5.6621,5.6621,5.6621,5.6621,5.6621,5.6621,5.6621,5.6621,5.6621,5.6621,5.4511,5.4511,5.4519,5.4511,5.4543,5.4558,5.4527,5.455,5.4582,5.4511,5.4613,5.455,5.4582,5.4597,5.459,5.455,5.4558,5.4621,5.4659,5.4674,5.4651,5.4651,5.4566,5.4511,5.4555,5.442,5.4404,5.343,5.2164,5.1174,5.0433,4.9869,4.9066,4.8659,4.9287,4.8783,4.8504,4.871,4.8514,4.8316,4.8315,4.8315,4.8315,4.8315,4.8315,4.8315,4.8316,4.8344,4.8364,4.8411,4.8666,4.8822,4.8888,4.921,4.9378,4.9371,4.9326,4.9215,4.9081,4.9253,4.9596,4.9936,5.011,5.0289,5.0622,5.1214,5.1717,5.1885,5.314,5.4049,5.4376,5.503,5.5415,5.5497,5.5555,5.5689,5.5689,5.5695,5.5695,5.5715,5.5721,5.5749,5.5768,5.5748,5.5744,5.5894,5.6024,5.6109,5.6205,5.6294,5.6367,5.6406,5.6426,5.6426,5.6406,5.6465,5.6504,5.6582,5.6601,5.6621,5.6621,5.6621,5.6621,5.6621,5.6621,5.6621,5.6621,5.6621,5.6621,5.6621,5.6621,5.6621,5.6621,5.6621,5.6621,5.518,5.518,5.518,5.518,5.518,5.518,5.518,5.516,5.518,5.518,5.5199,5.518,5.518,5.5128,5.518,5.5186,5.518,5.5147,5.5173,5.5153,5.5147,5.516,5.5218,5.5167,5.5095,5.4855,5.4771,5.4487,5.3344,5.256,5.1848,5.1099,5.026,4.9899,5.0215,4.9415,4.9182,4.9102,4.8873,4.8541,4.8382,4.8324,4.8334,4.8316,4.8325,4.8344,4.8383,4.8559,4.8621,4.8719,4.9029,4.9234,4.9333,4.9587,4.9779,4.9544,4.9955,4.9943,4.9687,4.9773,5.0037,5.0313,5.0426,5.052,5.0827,5.1433,5.2192,5.264,5.376,5.4607,5.5074,5.5478,5.5612,5.5695,5.5712,5.5728,5.5722,5.5705,5.5702,5.574,5.5782,5.587,5.5904,5.5889,5.5951,5.6093,5.6176,5.6232,5.6352,5.6468,5.6523,5.6562,5.6562,5.6562,5.6562,5.6562,5.6562,5.6601,5.6601,5.6621,5.6621,5.6621,5.6621,5.6621,5.6621,5.6621,5.6621,5.6621,5.6621,5.6621,5.6621,5.6621,5.6621,5.6621,5.6621,5.5689,5.5689,5.5689,5.5689,5.5689,5.5689,5.5673,5.5678,5.5668,5.5673,5.5689,5.5668,5.5668,5.5684,5.5651,5.5599,5.5662,5.5689,5.5689,5.5689,5.5689,5.5657,5.5599,5.561,5.5501,5.5237,5.5244,5.5011,5.4676,5.4088,5.3371,5.2451,5.1439,5.1287,5.1149,5.0652,5.0199,4.983,4.9326,4.894,4.8737,4.8667,4.8649,4.8631,4.8595,4.8614,4.8658,4.8864,4.9035,4.9116,4.9438,4.9657,4.9719,5.0012,5.0141,5.0043,5.0358,5.0458,5.0272,5.026,5.0421,5.0589,5.0688,5.0658,5.0832,5.1548,5.239,5.3063,5.426,5.503,5.5491,5.567,5.5714,5.5749,5.5784,5.5779,5.5813,5.5844,5.5801,5.5761,5.5874,5.611,5.6122,5.609,5.615,5.6306,5.6361,5.6364,5.6465,5.6582,5.6601,5.6621,5.6621,5.6621,5.6621,5.6621,5.6621,5.6621,5.6621,5.6621,5.6621,5.6621,5.6621,5.6621,5.6621,5.6621,5.6621,5.6621,5.6621,5.6621,5.6621,5.6621,5.6621,5.6621,5.6621,5.5689,5.5689,5.5689,5.5689,5.5689,5.5689,5.5689,5.5689,5.5689,5.5689,5.5689,5.5689,5.5689,5.5689,5.5689,5.5689,5.5689,5.5689,5.5689,5.5689,5.5689,5.5689,5.5689,5.5678,5.5673,5.561,5.5552,5.5546,5.5552,5.5252,5.4573,5.3696,5.2677,5.2597,5.2481,5.2049,5.1315,5.0766,5.0062,4.9581,4.9431,4.9359,4.9303,4.9326,4.9371,4.9408,4.942,4.9431,4.946,4.9475,4.9852,5.0056,5.0135,5.0383,5.0467,5.0504,5.0544,5.0629,5.0565,5.0554,5.0629,5.0678,5.0765,5.088,5.0996,5.2299,5.3063,5.3469,5.4669,5.5426,5.5684,5.5721,5.5826,5.5864,5.5935,5.5955,5.6004,5.6084,5.601,5.5844,5.5954,5.6214,5.6345,5.6301,5.6301,5.6429,5.6435,5.6445,5.6504,5.6601,5.6601,5.6621,5.6621,5.6621,5.6621,5.6621,5.6621,5.6621,5.6621,5.6621,5.6621,5.6621,5.6621,5.6621,5.6621,5.6621,5.6621,5.6621,5.6621,5.6621,5.6621,5.6621,5.6621,5.6621,5.6621,5.5689,5.5689,5.5689,5.5689,5.5689,5.5689,5.5689,5.5689,5.5689,5.5689,5.5689,5.5689,5.5689,5.5689,5.5689,5.5689,5.5689,5.5689,5.5689,5.5689,5.5689,5.5689,5.5689,5.5689,5.5689,5.5689,5.5689,5.5689,5.5668,5.5689,5.5531,5.4739,5.3873,5.3807,5.3675,5.3192,5.2482,5.1876,5.1106,5.0552,5.0193,4.9711,4.9496,4.9496,4.9496,4.9496,4.9511,4.9753,4.9846,4.9974,5.0274,5.0383,5.0426,5.0619,5.0678,5.0688,5.0688,5.0726,5.0765,5.0745,5.0688,5.0822,5.1111,5.1452,5.1548,5.2996,5.387,5.4476,5.5081,5.5818,5.5998,5.602,5.605,5.6065,5.61,5.6133,5.6197,5.6261,5.6251,5.6079,5.6181,5.6361,5.6454,5.6514,5.6514,5.6536,5.6536,5.6523,5.6582,5.6621,5.6621,5.6621,5.6621,5.6621,5.6621,5.6621,5.6621,5.6621,5.6621,5.6621,5.6621,5.6621,5.6621,5.6621,5.6621,5.6621,5.6621,5.6621,5.6621,5.6621,5.6621,5.6621,5.6621,5.6601,5.6582,5.5689,5.5689,5.5689,5.5689,5.5689,5.5689,5.5689,5.5689,5.5689,5.5689,5.5689,5.5689,5.5689,5.5689,5.5689,5.5689,5.5689,5.5689,5.5689,5.5689,5.5689,5.5689,5.5689,5.5689,5.5689,5.5689,5.5689,5.5689,5.5689,5.5689,5.561,5.5437,5.517,5.4904,5.4635,5.4033,5.3429,5.3045,5.235,5.1806,5.1444,5.074,5.0303,5.024,5.0127,4.9936,5.0012,5.0171,5.026,5.0347,5.0518,5.0658,5.0683,5.0688,5.0688,5.0688,5.0707,5.0784,5.0996,5.1048,5.1183,5.1645,5.1991,5.2255,5.2669,5.3658,5.44,5.4672,5.5424,5.6071,5.6219,5.6178,5.6194,5.62,5.6227,5.6273,5.634,5.6389,5.6383,5.6316,5.6426,5.6504,5.6523,5.6582,5.6582,5.6582,5.6582,5.6562,5.6582,5.6621,5.6621,5.6621,5.6621,5.6621,5.6621,5.6621,5.6621,5.6621,5.6621,5.6621,5.6621,5.6621,5.6621,5.6621,5.6621,5.6621,5.6621,5.6621,5.6621,5.6621,5.6621,5.6601,5.6582,5.6562,5.6523,5.5689,5.5689,5.5689,5.5689,5.5689,5.5689,5.5689,5.5689,5.5689,5.5689,5.5689,5.5689,5.5689,5.5689,5.5689,5.5689,5.5689,5.5689,5.5689,5.5689,5.5689,5.5689,5.5689,5.5689,5.5689,5.5689,5.5689,5.5689,5.5689,5.5689,5.5689,5.5689,5.5535,5.5511,5.5555,5.4857,5.4486,5.4327,5.3532,5.3143,5.2837,5.2132,5.1738,5.1541,5.1196,5.0944,5.0985,5.0776,5.0842,5.0854,5.0677,5.0707,5.0688,5.0688,5.0688,5.0688,5.0765,5.1144,5.1813,5.1885,5.2274,5.2742,5.2949,5.3205,5.3388,5.4116,5.4881,5.5178,5.5701,5.615,5.6229,5.625,5.6308,5.6347,5.6383,5.6397,5.6462,5.6504,5.6484,5.6465,5.6543,5.6601,5.6601,5.6601,5.6601,5.6601,5.6601,5.6621,5.6621,5.6621,5.6621,5.6621,5.6621,5.6621,5.6621,5.6621,5.6621,5.6621,5.6621,5.6621,5.6621,5.6621,5.6621,5.6621,5.6621,5.6621,5.6621,5.6621,5.6621,5.6621,5.6621,5.6601,5.6562,5.6534,5.6479,5.5689,5.5689,5.5689,5.5689,5.5689,5.5689,5.5689,5.5689,5.5689,5.5689,5.5689,5.5689,5.5689,5.5689,5.5689,5.5689,5.5689,5.5689,5.5689,5.5689,5.5689,5.5689,5.5689,5.5689,5.5689,5.5689,5.5689,5.5689,5.5689,5.5689,5.5689,5.5689,5.5689,5.5689,5.5651,5.5381,5.5304,5.5164,5.4544,5.4044,5.3972,5.3255,5.2755,5.2755,5.2414,5.2202,5.2125,5.176,5.1491,5.1337,5.1106,5.0765,5.0726,5.0726,5.0745,5.0899,5.1106,5.2202,5.3145,5.3626,5.3414,5.3609,5.3836,5.4164,5.4297,5.513,5.5602,5.5765,5.6043,5.6369,5.6453,5.6484,5.6523,5.6504,5.6517,5.6518,5.6562,5.6582,5.6582,5.6562,5.6601,5.6621,5.6621,5.6621,5.6621,5.6621,5.6621,5.6621,5.6621,5.6621,5.6621,5.6621,5.6621,5.6621,5.6621,5.6621,5.6621,5.6621,5.6621,5.6621,5.6621,5.6621,5.6621,5.6621,5.6621,5.6621,5.6601,5.6601,5.6601,5.6621,5.6562,5.6543,5.6484,5.6448,5.6382,5.5689,5.5689,5.5689,5.5689,5.5689,5.5689,5.5689,5.5689,5.5689,5.5689,5.5689,5.5689,5.5689,5.5689,5.5689,5.5689,5.5689,5.5689,5.5689,5.5689,5.5689,5.5689,5.5689,5.5689,5.5689,5.5689,5.5689,5.5689,5.5689,5.5689,5.5689,5.5689,5.5689,5.5689,5.5689,5.5651,5.5631,5.5478,5.5074,5.49,5.4664,5.4184,5.3664,5.3549,5.3337,5.3101,5.3005,5.2697,5.2217,5.189,5.1471,5.0976,5.0899,5.0976,5.1072,5.1356,5.2299,5.3325,5.4179,5.4882,5.4644,5.4539,5.4878,5.5091,5.5251,5.5819,5.6117,5.6293,5.6426,5.6504,5.6582,5.6621,5.6601,5.6582,5.6582,5.6582,5.6601,5.6601,5.6621,5.6621,5.6621,5.6621,5.6621,5.6621,5.6621,5.6621,5.6621,5.6621,5.6621,5.6621,5.6621,5.6621,5.6621,5.6621,5.6621,5.6621,5.6621,5.6621,5.6621,5.6621,5.6621,5.6621,5.6621,5.6621,5.6621,5.6601,5.6582,5.6582,5.6562,5.6504,5.6465,5.6426,5.6406,5.6328,5.6249,5.5689,5.5689,5.5689,5.5689,5.5689,5.5689,5.5689,5.5689,5.5689,5.5689,5.5689,5.5689,5.5689,5.5689,5.5689,5.5689,5.5689,5.5689,5.5689,5.5689,5.5689,5.5689,5.5689,5.5689,5.5689,5.5689,5.5689,5.5689,5.5689,5.5689,5.5689,5.5689,5.5689,5.5689,5.5689,5.5689,5.5689,5.5631,5.5574,5.5439,5.5266,5.4895,5.4568,5.4376,5.4068,5.378,5.3606,5.3376,5.287,5.2447,5.2019,5.1529,5.1356,5.1563,5.1793,5.2453,5.3666,5.4259,5.4897,5.5525,5.5761,5.563,5.5792,5.6016,5.6094,5.6227,5.6376,5.6457,5.6523,5.6562,5.6621,5.6621,5.6601,5.6601,5.6601,5.6601,5.6601,5.6621,5.6621,5.6621,5.6621,5.6621,5.6621,5.6621,5.6621,5.6621,5.6621,5.6621,5.6621,5.6621,5.6621,5.6621,5.6621,5.6621,5.6621,5.6621,5.6621,5.6621,5.6621,5.6621,5.6621,5.6621,5.6621,5.6621,5.6621,5.6601,5.6543,5.6504,5.6465,5.6416,5.6317,5.6262,5.6213,5.6102,5.6017,5.5689,5.5689,5.5689,5.5689,5.5689,5.5689,5.5689,5.5689,5.5689,5.5689,5.5689,5.5689,5.5689,5.5689,5.5689,5.5689,5.5689,5.5689,5.5689,5.5689,5.5689,5.5689,5.5689,5.5689,5.5689,5.5689,5.5689,5.5689,5.5689,5.5689,5.5689,5.5689,5.5689,5.5689,5.5689,5.5689,5.5689,5.5689,5.5689,5.5689,5.5689,5.5376,5.5261,5.5088,5.4972,5.4741,5.4703,5.4299,5.3895,5.3697,5.3082,5.2626,5.262,5.2746,5.2993,5.3831,5.4492,5.4905,5.5628,5.5973,5.6191,5.6289,5.6277,5.6287,5.6355,5.6451,5.6523,5.6562,5.6562,5.6601,5.6621,5.6621,5.6621,5.6621,5.6621,5.6621,5.6621,5.6621,5.6621,5.6621,5.6621,5.6621,5.6621,5.6621,5.6621,5.6621,5.6621,5.6621,5.6621,5.6621,5.6621,5.6621,5.6621,5.6621,5.6621,5.6621,5.6621,5.6621,5.6621,5.6621,5.6621,5.6621,5.6621,5.6601,5.6562,5.6523,5.6465,5.6404,5.6346,5.6242,5.6158,5.6087,5.6021,5.5936,5.5855,5.5689,5.5689,5.5689,5.5689,5.5689,5.5689,5.5689,5.5689,5.5689,5.5689,5.5689,5.5689,5.5689,5.5689,5.5689,5.5689,5.5689,5.5689,5.5689,5.5689,5.5689,5.5689,5.5689,5.5689,5.5689,5.5689,5.5689,5.5689,5.5689,5.5689,5.5689,5.5689,5.5689,5.5689,5.5689,5.5689,5.5689,5.5689,5.5689,5.5689,5.5689,5.5689,5.5689,5.5689,5.5689,5.5689,5.567,5.5093,5.4881,5.4587,5.3857,5.351,5.3469,5.3528,5.425,5.4999,5.532,5.5655,5.6105,5.621,5.6365,5.6445,5.6484,5.6483,5.6488,5.6558,5.6582,5.6601,5.6601,5.6621,5.6621,5.6621,5.6621,5.6621,5.6621,5.6621,5.6621,5.6621,5.6621,5.6621,5.6621,5.6621,5.6621,5.6621,5.6621,5.6621,5.6621,5.6621,5.6621,5.6621,5.6621,5.6621,5.6621,5.6621,5.6621,5.6601,5.6601,5.6601,5.6621,5.6621,5.6601,5.6582,5.6562,5.6543,5.6504,5.6428,5.6338,5.6266,5.6178,5.609,5.5994,5.591,5.5874,5.5816,5.5755,5.5689,5.5689,5.5689,5.5689,5.5689,5.5689,5.5689,5.5689,5.5689,5.5689,5.5689,5.5689,5.5689,5.5689,5.5689,5.5689,5.5689,5.5689,5.5689,5.5689,5.5689,5.5689,5.5689,5.5689,5.5689,5.5689,5.5689,5.5689,5.5689,5.5689,5.5689,5.5689,5.5689,5.5689,5.5689,5.5689,5.5689,5.5689,5.5689,5.5689,5.5689,5.5689,5.5689,5.5689,5.5689,5.5689,5.5689,5.5535,5.5348,5.4883,5.4538,5.4206,5.4229,5.4372,5.5294,5.573,5.5993,5.6145,5.6337,5.6417,5.6481,5.6562,5.6601,5.6582,5.6582,5.6601,5.6601,5.6621,5.6621,5.6621,5.6621,5.6621,5.6621,5.6621,5.6621,5.6621,5.6621,5.6621,5.6621,5.6621,5.6621,5.6621,5.6621,5.6621,5.6621,5.6621,5.6621,5.6621,5.6621,5.6621,5.6601,5.6601,5.6621,5.6621,5.6621,5.6601,5.6562,5.6562,5.6582,5.6523,5.6465,5.6484,5.6523,5.6454,5.638,5.6287,5.6207,5.6139,5.6058,5.5914,5.5835,5.5748,5.571,5.5717,5.5707,5.5689,5.5689,5.5689,5.5689,5.5689,5.5689,5.5689,5.5689,5.5689,5.5689,5.5689,5.5689,5.5689,5.5689,5.5689,5.5689,5.5689,5.5689,5.5689,5.5689,5.5689,5.5689,5.5689,5.5689,5.5689,5.5689,5.5689,5.5689,5.5689,5.5689,5.5689,5.5689,5.5689,5.5689,5.5689,5.5689,5.5689,5.5689,5.5689,5.5689,5.5689,5.5689,5.5689,5.5689,5.5689,5.5689,5.5689,5.5667,5.5668,5.5544,5.5561,5.5509,5.5534,5.5714,5.5981,5.6281,5.6363,5.6421,5.6484,5.6543,5.6562,5.6582,5.6621,5.6621,5.6601,5.6621,5.6621,5.6621,5.6621,5.6621,5.6621,5.6621,5.6621,5.6621,5.6621,5.6621,5.6621,5.6621,5.6621,5.6621,5.6621,5.6621,5.6621,5.6621,5.6621,5.6621,5.6621,5.6621,5.6621,5.6601,5.6582,5.6582,5.6601,5.6621,5.6621,5.6582,5.6562,5.6492,5.6465,5.6406,5.633,5.6338,5.6369,5.6305,5.6225,5.6149,5.6074,5.6043,5.5936,5.5817,5.5764,5.571,5.5689,5.571,5.57,5.5689,5.5689,5.5689,5.5689,5.5689,5.5689,5.5689,5.5689,5.5689,5.5689,5.5689,5.5689,5.5689,5.5689,5.5689,5.5689,5.5689,5.5689,5.5689,5.5689,5.5689,5.5689,5.5689,5.5689,5.5689,5.5689,5.5689,5.5689,5.571,5.5689,5.5689,5.571,5.571,5.5716,5.571,5.57,5.571,5.5689,5.5705,5.571,5.571,5.57,5.5689,5.5689,5.5695,5.57,5.5722,5.5739,5.5819,5.5916,5.5935,5.6066,5.6098,5.6173,5.6308,5.6432,5.6508,5.6523,5.6582,5.6621,5.6621,5.6621,5.6621,5.6621,5.6621,5.6621,5.6621,5.6621,5.6621,5.6621,5.6621,5.6621,5.6621,5.6621,5.6621,5.6621,5.6621,5.6621,5.6621,5.6621,5.6621,5.6621,5.6621,5.6621,5.6621,5.6621,5.6621,5.6621,5.6621,5.6582,5.6562,5.6538,5.6538,5.6601,5.6621,5.6582,5.6523,5.6445,5.6353,5.6305,5.6277,5.6225,5.6194,5.6109,5.6041,5.5982,5.5934,5.5909,5.586,5.5753,5.5707,5.5689,5.5689,5.5689,5.5689,5.5689,5.5689,5.5689,5.5689,5.5689,5.5689,5.5689,5.5689,5.5689,5.5689,5.5689,5.5689,5.5689,5.5689,5.5689,5.5689,5.5689,5.5689,5.5689,5.5689,5.5689,5.5689,5.5689,5.5689,5.5689,5.5689,5.5689,5.5722,5.5749,5.5754,5.5764,5.5758,5.5773,5.5764,5.5754,5.5759,5.5794,5.5779,5.5794,5.5788,5.5753,5.5731,5.5712,5.5707,5.5738,5.5729,5.576,5.5852,5.5939,5.6049,5.6177,5.6297,5.6383,5.6425,5.6463,5.6543,5.6582,5.6582,5.6621,5.6621,5.6621,5.6621,5.6621,5.6621,5.6621,5.6621,5.6621,5.6621,5.6621,5.6621,5.6621,5.6621,5.6621,5.6621,5.6621,5.6621,5.6621,5.6621,5.6621,5.6621,5.6621,5.6621,5.6621,5.6621,5.6621,5.6621,5.6621,5.6621,5.6601,5.6523,5.6484,5.6459,5.645,5.6504,5.6582,5.6504,5.6445,5.6351,5.6239,5.6229,5.6175,5.6061,5.5967,5.592,5.5851,5.5825,5.5803,5.5773,5.571,5.5695,5.5689,5.5689,5.5689,5.5689,5.5689,5.5689,5.5689,5.5689,5.5689,5.5689,5.5689,5.5689,5.5689,5.5689,5.5689,5.5689,5.5689,5.5689,5.5689,5.5689,5.5689,5.5689,5.5689,5.5689,5.5689,5.5689,5.5689,5.5689,5.5689,5.5689,5.5716,5.5738,5.5769,5.5865,5.5866,5.5924,5.6054,5.6094,5.6081,5.6104,5.6061,5.5993,5.5947,5.5986,5.6016,5.5906,5.5846,5.5784,5.5834,5.5959,5.5939,5.5974,5.6068,5.6199,5.6326,5.6426,5.6484,5.6523,5.6543,5.6562,5.6582,5.6621,5.6621,5.6621,5.6621,5.6621,5.6621,5.6621,5.6621,5.6621,5.6621,5.6621,5.6621,5.6621,5.6621,5.6621,5.6621,5.6621,5.6621,5.6621,5.6621,5.6621,5.6621,5.6621,5.6621,5.6621,5.6621,5.6621,5.6621,5.6621,5.6621,5.6621,5.6601,5.6562,5.6504,5.6426,5.6355,5.6324,5.6445,5.6523,5.6387,5.6282,5.6188,5.6098,5.6039,5.595,5.5822,5.5758,5.5765,5.576,5.5734,5.5695,5.5689,5.5689,5.5689,5.5689,5.5689,5.5689,5.5689,5.5689]}]]